[[{"header":{"parameterUnit":"m.s-1","parameterCategory":1,"la1":31.0,"la2":29.5877,"lo1":-88.7671,"lo2":-86.6584,"dy":0.0162,"dx":0.0185,"nx":115,"ny":88,"refTime":"2026-04-03T00:00:00:Z","depth":0,"parameterNumber":2,"parameterNumberName":"U-component_of_WINDS"},"data":[0.0,0.0,0.0,0.0,0.0,0.0,0.0,0.0,0.0,0.0,0.0,0.0,0.0,0.0,0.0,0.0,0.0,0.0,0.0,0.0,0.0,0.0,0.0,0.0,0.0,0.0,0.0,0.0,0.0,0.0,0.0,0.0,0.0,0.0,0.0,0.0,0.0,0.0,0.0,0.0,0.0,0.0,0.0,0.0,0.0,0.0,0.0,0.0,0.0,0.0,0.0,0.0,0.0,0.0,0.0,0.0,0.0,0.0,0.0,0.0,0.0,0.0,0.0,0.0,0.0,0.0,0.0,0.0,0.0,0.0,0.0,0.0,0.0,0.0,0.0,0.0,0.0,0.0,0.0,0.0,0.0,0.0,0.0,0.0,0.0,0.0,0.0,0.0,0.0,0.0,0.0,0.0,0.0,0.0,0.0,0.0,0.0,0.0,0.0,0.0,0.0,0.0,0.0,0.0,0.0,0.0,0.0,0.0,0.0,0.0,0.0,0.0,0.0,0.0,0.0,0.0,0.0,0.0,0.0,0.0,0.0,0.0,0.0,0.0,0.0,0.0,0.0,0.0,0.0,0.0,0.0,0.0,0.0,0.0,0.0,0.0,0.0,0.0,0.0,0.0,0.0,0.0,0.0,0.0,0.0,0.0,0.0,0.0,0.0,0.0,0.0,0.0,0.0,0.0,0.0,0.0,0.0,0.0,0.0,0.0,0.0,0.0,0.0,0.0,0.0,0.0,0.0,0.0,0.0,0.0,0.0,0.0,0.0,0.0,0.0,0.0,0.0,0.0,0.0,0.0,0.0,0.0,0.0,0.0,0.0,0.0,0.0,0.0,0.0,0.0,0.0,0.0,0.0,0.0,0.0,0.0,0.0,0.0,0.0,0.0,0.0,0.0,0.0,0.0,0.0,0.0,0.0,0.0,0.0,0.0,0.0,0.0,0.0,0.0,0.0,0.0,0.0,0.0,0.0,0.0,0.0,0.0,0.0,0.0,0.0,0.0,0.0,0.0,0.0,0.0,0.0,0.0,0.0,0.0,0.0,0.0,0.0,0.0,0.0,0.0,0.0,0.0,0.0,0.0,0.0,0.0,0.0,0.0,0.0,0.0,0.0,0.0,0.0,0.0,0.0,0.0,0.0,0.0,0.0,0.0,0.0,0.0,0.0,0.0,0.0,0.0,0.0,0.0,0.0,0.0,0.0,0.0,0.0,0.0,0.0,0.0,0.0,0.0,0.0,0.0,0.0,0.0,0.0,0.0,0.0,0.0,0.0,0.0,0.0,0.0,0.0,0.0,0.0,0.0,0.0,0.0,0.0,0.0,0.0,0.0,0.0,0.0,0.0,0.0,0.0,0.0,0.0,0.0,0.0,0.0,0.0,0.0,0.0,0.0,0.0,0.0,0.0,0.0,0.0,0.0,0.0,0.0,0.0,0.0,0.0,0.0,0.0,0.0,0.0,0.0,0.0,0.0,0.0,0.0,0.0,0.0,0.0,0.0,0.0,0.0,0.0,0.0,0.0,0.0,0.0,0.0,0.0,0.0,0.0,0.0,0.0,0.0,0.0,0.0,0.0,0.0,0.0,0.0,0.0,0.0,0.0,0.0,0.0,0.0,0.0,0.0,0.0,0.0,0.0,0.0,0.0,0.0,0.0,0.0,0.0,0.0,0.0,0.0,0.0,0.0,0.0,0.0,0.0,0.0,0.0,0.0,0.0,0.0,0.0,0.0,0.0,0.0,0.0,0.0,0.0,0.0,0.0,0.0,0.0,0.0,0.0,0.0,0.0,0.0,0.0,0.0,0.0,0.0,0.0,0.0,0.0,0.0,0.0,0.0,0.0,0.0,0.0,0.0,0.0,0.0,0.0,0.0,0.0,0.0,0.0,0.0,0.0,0.0,0.0,0.0,0.0,0.0,0.0,0.0,0.0,0.0,0.0,0.0,0.0,0.0,0.0,0.0,0.0,0.0,0.0,0.0,0.0,0.0,0.0,0.0,0.0,0.0,0.0,0.0,0.0,0.0,0.0,0.0,0.0,0.0,0.0,0.0,0.0,0.0,0.0,0.0,0.0,0.0,0.0,0.0,0.0,0.0,0.0,0.0,0.0,0.0,0.0,0.0,0.0,0.0,0.0,0.0,0.0,0.0,0.0,0.0,0.0,0.0,0.0,0.0,0.0,0.0,0.0,0.0,0.0,0.0,0.0,0.0,0.0,0.0,0.0,0.0,0.0,0.0,0.0,0.0,0.0,0.0,0.0,0.0,0.0,0.0,0.0,0.0,0.0,0.0,0.0,0.0,0.0,0.0,0.0,0.0,0.0,0.0,0.0,0.0,0.0,0.0,0.0,0.0,0.0,0.0,0.0,0.0,0.0,0.0,0.0,0.0,0.0,0.0,0.0,0.0,0.0,0.0,0.0,0.0,0.0,0.0,0.0,0.0,0.0,0.0,0.0,0.0,0.0,0.0,0.0,0.0,0.0,0.0,0.0,0.0,0.0,0.0,0.0,0.0,0.0,0.0,0.0,0.0,0.0,0.0,0.0,0.0,0.0,0.0,0.0,0.0,0.0,0.0,0.0,0.0,0.0,0.0,0.0,0.0,0.0,0.0,0.0,0.0,0.0,0.0,0.0,0.0,0.0,0.0,0.0,0.0,0.0,0.0,0.0,0.0,0.0,0.0,0.0,0.0,0.0,0.0,0.0,0.0,0.0,0.0,0.0,0.0,0.0,0.0,0.0,0.0,0.0,0.0,0.0,0.0,0.0,0.0,0.0,0.0,0.0,0.0,0.0,0.0,0.0,0.0,0.0,0.0,0.0,0.0,0.0,0.0,0.0,0.0,0.0,0.0,0.0,0.0,0.0,0.0,0.0,0.0,0.0,0.0,0.0,0.0,0.0,0.0,0.0,0.0,0.0,0.0,0.0,0.0,0.0,0.0,0.0,0.0,0.0,0.0,0.0,0.0,0.0,0.0,0.0,0.0,0.0,0.0,0.0,0.0,0.0,0.0,0.0,0.0,0.0,0.0,0.0,0.0,0.0,0.0,0.0,0.0,0.0,0.0,0.0,0.0,0.0,0.0,0.0,0.0,0.0,0.0,0.0,0.0,0.0,0.0,0.0,0.0,0.0,0.0,0.0,0.0,0.0,0.0,0.0,0.0,0.0,0.0,0.0,0.0,0.0,0.0,0.0,0.0,0.0,0.0,0.0,0.0,0.0,0.0,0.0,0.0,0.0,0.0,0.0,0.0,0.0,0.0,0.0,0.0,0.0,0.0,0.0,0.0,0.0,0.0,0.0,0.0,0.0,0.0,0.0,0.0,0.0,0.0,0.0,0.0,0.0,0.0,0.0,0.0,0.0,0.0,0.0,0.0,0.0,0.0,0.0,0.0,0.0,0.0,0.0,0.0,0.0,0.0,0.0,0.0,0.0,0.0,0.0,0.0,0.0,0.0,0.0,0.0,0.0,0.0,0.0,0.0,0.0,0.0,0.0,0.0,0.0,0.0,0.0,0.0,0.0,0.0,0.0,0.0,0.0,0.0,0.0,0.0,0.0,0.0,0.0,0.0,0.0,0.0,0.0,0.0,0.0,0.0,0.0,0.0,0.0,0.0,0.0,0.0,0.0,0.0,0.0,0.0,0.0,0.0,0.0,0.0,0.0,0.0,0.0,0.0,0.0,0.0,0.0,0.0,0.0,0.0,0.0,0.0,0.0,0.0,0.0,0.0,0.0,0.0,0.0,0.0,0.0,0.0,0.0,0.0,0.0,0.0,0.0,0.0,0.0,0.0,0.0,0.0,0.0,0.0,0.0,0.0,0.0,0.0,0.0,0.0,0.0,0.0,0.0,0.0,0.0,0.0,0.0,0.0,0.0,0.0,0.0,0.0,0.0,0.0,0.0,0.0,0.0,0.0,0.0,0.0,0.0,0.0,0.0,0.0,0.0,0.0,0.0,0.0,0.0,0.0,0.0,0.0,0.0,0.0,0.0,0.0,0.0,0.0,0.0,0.0,0.0,0.0,0.0,0.0,0.0,0.0,0.0,0.0,0.0,0.0,0.0,0.0,0.0,0.0,0.0,0.0,0.0,0.0,0.0,0.0,0.0,0.0,0.0,0.0,0.0,0.0,0.0,0.0,0.0,0.0,0.0,0.0,0.0,0.0,0.0,0.0,0.0,0.0,0.0,0.0,0.0,0.0,0.0,0.0,0.0,0.0,0.0,0.0,0.0,0.0,0.0,0.0,0.0,0.0,0.0,0.0,0.0,0.0,0.0,0.0,0.0,0.0,-2.747,0.0,0.0,0.0,0.0,0.0,0.0,0.0,0.0,0.0,0.0,0.0,0.0,0.0,0.0,0.0,0.0,0.0,0.0,0.0,0.0,0.0,0.0,0.0,0.0,0.0,0.0,0.0,0.0,0.0,0.0,0.0,0.0,0.0,0.0,0.0,0.0,0.0,0.0,0.0,0.0,0.0,0.0,0.0,0.0,0.0,0.0,0.0,0.0,0.0,0.0,0.0,0.0,0.0,0.0,0.0,0.0,0.0,0.0,0.0,0.0,0.0,0.0,0.0,0.0,0.0,0.0,0.0,0.0,0.0,0.0,0.0,0.0,0.0,0.0,0.0,0.0,0.0,0.0,0.0,0.0,0.0,0.0,0.0,0.0,0.0,0.0,0.0,0.0,0.0,0.0,0.0,0.0,0.0,0.0,0.0,0.0,0.0,0.0,0.0,0.0,0.0,0.0,0.0,0.0,0.0,0.0,0.0,0.0,0.0,0.0,-3.0073,-3.0073,-2.9475,-2.8657,-2.7551,0.0,0.0,0.0,0.0,0.0,0.0,0.0,0.0,0.0,0.0,0.0,0.0,0.0,0.0,0.0,0.0,0.0,0.0,0.0,0.0,0.0,0.0,0.0,0.0,0.0,0.0,0.0,0.0,0.0,0.0,0.0,0.0,0.0,0.0,0.0,0.0,0.0,0.0,0.0,0.0,0.0,0.0,0.0,0.0,0.0,0.0,0.0,0.0,0.0,0.0,0.0,0.0,0.0,0.0,0.0,0.0,0.0,0.0,0.0,0.0,0.0,0.0,0.0,0.0,0.0,0.0,0.0,0.0,0.0,0.0,0.0,0.0,0.0,0.0,0.0,0.0,0.0,0.0,0.0,0.0,0.0,0.0,0.0,0.0,0.0,0.0,0.0,0.0,0.0,0.0,0.0,0.0,0.0,0.0,0.0,0.0,0.0,0.0,0.0,0.0,0.0,0.0,0.0,0.0,0.0,0.0,0.0,0.0,0.0,0.0,0.0,0.0,-2.9909,-2.871,-2.688,0.0,0.0,0.0,0.0,0.0,0.0,0.0,0.0,0.0,0.0,0.0,0.0,0.0,0.0,0.0,0.0,0.0,0.0,0.0,0.0,0.0,0.0,0.0,0.0,0.0,0.0,0.0,0.0,0.0,0.0,0.0,0.0,0.0,0.0,0.0,0.0,0.0,0.0,0.0,0.0,0.0,0.0,0.0,0.0,0.0,0.0,0.0,0.0,0.0,0.0,0.0,0.0,0.0,0.0,0.0,0.0,0.0,0.0,0.0,0.0,0.0,0.0,0.0,0.0,0.0,0.0,0.0,0.0,0.0,0.0,0.0,0.0,0.0,0.0,0.0,0.0,0.0,0.0,0.0,0.0,0.0,0.0,0.0,0.0,0.0,0.0,0.0,0.0,0.0,0.0,0.0,0.0,0.0,0.0,0.0,0.0,0.0,0.0,0.0,0.0,0.0,0.0,0.0,0.0,0.0,0.0,0.0,0.0,0.0,0.0,-2.9939,-3.0477,-2.9894,0.0,-2.5045,0.0,0.0,0.0,0.0,0.0,0.0,0.0,0.0,0.0,0.0,0.0,0.0,0.0,0.0,0.0,0.0,0.0,0.0,0.0,0.0,0.0,0.0,0.0,0.0,0.0,0.0,0.0,0.0,0.0,0.0,0.0,0.0,0.0,0.0,0.0,0.0,0.0,0.0,0.0,0.0,0.0,0.0,0.0,0.0,0.0,0.0,0.0,0.0,0.0,0.0,0.0,0.0,0.0,0.0,0.0,0.0,0.0,0.0,0.0,0.0,0.0,0.0,0.0,0.0,0.0,0.0,0.0,0.0,0.0,0.0,0.0,0.0,0.0,0.0,0.0,0.0,0.0,0.0,0.0,0.0,0.0,0.0,0.0,0.0,0.0,0.0,0.0,0.0,0.0,0.0,0.0,0.0,0.0,0.0,0.0,0.0,0.0,0.0,0.0,0.0,0.0,0.0,0.0,0.0,0.0,0.0,0.0,0.0,0.0,0.0,-3.0073,-2.9996,-2.8136,-2.6392,0.0,0.0,0.0,0.0,0.0,0.0,0.0,0.0,0.0,0.0,0.0,0.0,0.0,0.0,0.0,0.0,0.0,0.0,0.0,0.0,0.0,0.0,0.0,0.0,0.0,0.0,0.0,0.0,0.0,0.0,0.0,0.0,0.0,0.0,0.0,0.0,0.0,0.0,0.0,0.0,0.0,0.0,0.0,0.0,0.0,0.0,0.0,0.0,0.0,0.0,0.0,0.0,0.0,0.0,0.0,0.0,0.0,0.0,0.0,0.0,0.0,0.0,0.0,0.0,0.0,0.0,0.0,0.0,0.0,0.0,0.0,0.0,0.0,0.0,0.0,0.0,0.0,0.0,0.0,0.0,0.0,0.0,0.0,0.0,0.0,0.0,0.0,0.0,0.0,0.0,0.0,0.0,0.0,0.0,0.0,0.0,0.0,0.0,0.0,0.0,0.0,0.0,0.0,0.0,0.0,0.0,0.0,0.0,0.0,0.0,-3.0447,-3.0028,-2.9507,-2.7306,-2.5562,-2.4437,0.0,0.0,0.0,0.0,0.0,0.0,0.0,0.0,0.0,0.0,0.0,0.0,0.0,0.0,0.0,0.0,0.0,0.0,0.0,0.0,0.0,0.0,0.0,0.0,0.0,0.0,0.0,0.0,0.0,0.0,0.0,0.0,0.0,0.0,0.0,0.0,0.0,0.0,0.0,0.0,0.0,0.0,0.0,0.0,0.0,0.0,0.0,0.0,0.0,0.0,0.0,0.0,0.0,0.0,0.0,0.0,0.0,0.0,0.0,0.0,0.0,0.0,0.0,0.0,0.0,0.0,0.0,0.0,0.0,0.0,0.0,0.0,0.0,0.0,0.0,0.0,0.0,0.0,0.0,0.0,0.0,0.0,0.0,0.0,0.0,0.0,0.0,0.0,0.0,0.0,0.0,0.0,0.0,0.0,0.0,0.0,0.0,0.0,0.0,0.0,0.0,0.0,0.0,0.0,0.0,0.0,0.0,0.0,-3.1331,-3.0238,-2.9621,-2.9535,-2.8196,-2.6301,0.0,0.0,0.0,0.0,0.0,0.0,0.0,0.0,0.0,0.0,0.0,0.0,0.0,0.0,0.0,0.0,0.0,0.0,0.0,0.0,0.0,0.0,0.0,0.0,0.0,0.0,0.0,0.0,0.0,0.0,0.0,0.0,0.0,0.0,0.0,0.0,0.0,0.0,0.0,0.0,0.0,0.0,0.0,0.0,0.0,0.0,0.0,0.0,0.0,0.0,0.0,0.0,0.0,0.0,0.0,0.0,0.0,0.0,0.0,0.0,0.0,0.0,0.0,0.0,0.0,0.0,0.0,0.0,0.0,0.0,0.0,0.0,0.0,0.0,0.0,0.0,0.0,0.0,0.0,0.0,0.0,0.0,0.0,0.0,0.0,0.0,0.0,0.0,0.0,0.0,0.0,0.0,0.0,0.0,0.0,0.0,0.0,0.0,0.0,0.0,0.0,0.0,0.0,0.0,0.0,0.0,0.0,0.0,0.0,-2.9639,-2.8798,-2.8304,-2.8215,-2.6202,-2.4444,0.0,0.0,0.0,0.0,0.0,0.0,0.0,0.0,0.0,0.0,0.0,0.0,0.0,0.0,0.0,0.0,0.0,0.0,0.0,0.0,0.0,0.0,0.0,0.0,0.0,0.0,0.0,0.0,0.0,0.0,0.0,0.0,0.0,0.0,0.0,0.0,0.0,0.0,0.0,0.0,0.0,0.0,0.0,0.0,0.0,0.0,0.0,0.0,0.0,0.0,0.0,0.0,0.0,0.0,0.0,0.0,0.0,0.0,0.0,0.0,0.0,0.0,0.0,0.0,0.0,0.0,0.0,0.0,0.0,0.0,0.0,0.0,0.0,0.0,0.0,0.0,0.0,0.0,0.0,0.0,0.0,0.0,0.0,0.0,0.0,0.0,0.0,0.0,0.0,0.0,0.0,0.0,0.0,0.0,0.0,0.0,0.0,0.0,0.0,0.0,0.0,0.0,0.0,0.0,0.0,0.0,0.0,0.0,0.0,-2.8637,0.0,-2.8114,-2.7769,-2.5543,-2.3884,0.0,0.0,0.0,0.0,0.0,0.0,0.0,0.0,0.0,0.0,0.0,0.0,0.0,0.0,0.0,0.0,0.0,0.0,0.0,0.0,0.0,0.0,0.0,0.0,0.0,0.0,0.0,0.0,0.0,0.0,0.0,0.0,0.0,0.0,0.0,0.0,0.0,0.0,0.0,0.0,0.0,0.0,0.0,0.0,0.0,0.0,0.0,0.0,0.0,0.0,0.0,0.0,0.0,0.0,0.0,0.0,0.0,0.0,0.0,0.0,0.0,0.0,0.0,0.0,0.0,0.0,0.0,0.0,0.0,0.0,0.0,0.0,0.0,0.0,0.0,0.0,0.0,0.0,0.0,0.0,0.0,0.0,0.0,0.0,0.0,0.0,0.0,0.0,0.0,0.0,0.0,0.0,0.0,0.0,0.0,0.0,0.0,0.0,0.0,0.0,0.0,0.0,0.0,0.0,0.0,0.0,0.0,0.0,-2.9197,-2.8611,-2.9122,-2.9068,-2.854,-2.6505,-2.4935,0.0,0.0,0.0,0.0,0.0,0.0,0.0,0.0,0.0,0.0,0.0,0.0,0.0,0.0,0.0,0.0,0.0,0.0,0.0,0.0,0.0,0.0,0.0,0.0,0.0,0.0,0.0,0.0,0.0,0.0,0.0,0.0,0.0,0.0,0.0,0.0,0.0,0.0,0.0,0.0,0.0,0.0,0.0,0.0,0.0,0.0,0.0,0.0,0.0,0.0,0.0,0.0,0.0,0.0,0.0,0.0,0.0,0.0,0.0,0.0,0.0,0.0,0.0,0.0,0.0,0.0,0.0,0.0,0.0,0.0,0.0,0.0,0.0,0.0,0.0,0.0,0.0,0.0,0.0,0.0,0.0,0.0,0.0,0.0,0.0,0.0,0.0,0.0,0.0,0.0,0.0,0.0,0.0,0.0,0.0,0.0,0.0,0.0,0.0,0.0,0.0,0.0,0.0,0.0,0.0,0.0,0.0,0.0,0.0,-2.6421,-2.6946,-2.7215,-2.7016,-2.5121,-2.4096,0.0,0.0,0.0,0.0,0.0,0.0,0.0,0.0,0.0,0.0,0.0,0.0,0.0,0.0,0.0,0.0,0.0,0.0,0.0,0.0,0.0,0.0,0.0,0.0,0.0,0.0,0.0,0.0,0.0,0.0,0.0,0.0,0.0,0.0,0.0,0.0,0.0,0.0,0.0,0.0,0.0,0.0,0.0,0.0,0.0,0.0,0.0,0.0,0.0,0.0,0.0,0.0,0.0,0.0,0.0,0.0,0.0,0.0,0.0,0.0,0.0,0.0,0.0,0.0,0.0,0.0,0.0,0.0,0.0,0.0,0.0,0.0,0.0,0.0,0.0,0.0,0.0,0.0,0.0,0.0,0.0,0.0,0.0,0.0,0.0,0.0,0.0,0.0,0.0,0.0,0.0,0.0,0.0,0.0,0.0,0.0,0.0,0.0,0.0,0.0,0.0,0.0,0.0,0.0,0.0,0.0,0.0,0.0,0.0,-2.5495,-2.6383,-2.6789,-2.6613,-2.4922,-2.403,-2.3982,0.0,0.0,0.0,0.0,0.0,0.0,0.0,0.0,0.0,0.0,0.0,0.0,0.0,0.0,0.0,0.0,0.0,0.0,0.0,0.0,0.0,0.0,0.0,0.0,0.0,0.0,0.0,0.0,0.0,0.0,0.0,0.0,0.0,0.0,0.0,0.0,0.0,0.0,0.0,0.0,0.0,0.0,0.0,0.0,0.0,0.0,0.0,0.0,0.0,0.0,0.0,0.0,0.0,0.0,0.0,0.0,0.0,0.0,0.0,0.0,0.0,0.0,0.0,0.0,0.0,0.0,0.0,0.0,0.0,0.0,0.0,0.0,0.0,0.0,0.0,0.0,0.0,0.0,0.0,0.0,0.0,0.0,0.0,0.0,0.0,0.0,0.0,0.0,0.0,0.0,0.0,0.0,0.0,0.0,0.0,0.0,0.0,0.0,0.0,0.0,0.0,0.0,0.0,0.0,0.0,0.0,0.0,0.0,-2.5774,-2.7261,-2.7718,-2.7092,-2.5778,-2.4613,0.0,0.0,0.0,0.0,0.0,0.0,0.0,0.0,0.0,0.0,0.0,0.0,0.0,0.0,0.0,0.0,0.0,0.0,0.0,0.0,0.0,0.0,0.0,0.0,0.0,0.0,0.0,0.0,0.0,0.0,0.0,0.0,0.0,0.0,0.0,0.0,0.0,0.0,0.0,0.0,0.0,0.0,0.0,0.0,0.0,0.0,0.0,0.0,0.0,0.0,0.0,0.0,0.0,0.0,0.0,0.0,0.0,0.0,0.0,0.0,0.0,0.0,0.0,0.0,0.0,0.0,0.0,0.0,0.0,0.0,0.0,0.0,0.0,0.0,0.0,0.0,0.0,0.0,0.0,0.0,0.0,0.0,0.0,0.0,0.0,0.0,0.0,0.0,0.0,0.0,0.0,0.0,0.0,0.0,0.0,0.0,0.0,0.0,0.0,0.0,0.0,0.0,0.0,0.0,0.0,0.0,0.0,0.0,0.0,-2.7971,-2.8433,-2.8512,-2.8139,-2.6039,-2.5222,0.0,0.0,0.0,0.0,0.0,0.0,0.0,0.0,0.0,0.0,0.0,0.0,0.0,0.0,0.0,0.0,0.0,0.0,0.0,0.0,0.0,0.0,0.0,0.0,0.0,0.0,0.0,0.0,0.0,0.0,0.0,0.0,0.0,0.0,0.0,0.0,0.0,0.0,0.0,0.0,0.0,0.0,0.0,0.0,0.0,0.0,0.0,0.0,0.0,0.0,0.0,0.0,0.0,0.0,0.0,0.0,0.0,0.0,0.0,0.0,0.0,0.0,0.0,0.0,0.0,0.0,0.0,0.0,0.0,0.0,0.0,0.0,0.0,0.0,0.0,0.0,0.0,0.0,0.0,0.0,0.0,0.0,0.0,0.0,0.0,0.0,0.0,0.0,0.0,0.0,0.0,0.0,0.0,0.0,0.0,0.0,0.0,0.0,0.0,0.0,0.0,0.0,0.0,0.0,0.0,0.0,0.0,0.0,-2.7394,-2.8863,-2.9352,-2.9543,-2.946,-2.7107,-2.5894,0.0,0.0,0.0,0.0,0.0,0.0,0.0,0.0,0.0,0.0,0.0,0.0,0.0,0.0,0.0,0.0,0.0,0.0,0.0,0.0,0.0,0.0,0.0,0.0,0.0,0.0,0.0,0.0,0.0,0.0,0.0,0.0,0.0,0.0,0.0,0.0,0.0,0.0,0.0,0.0,0.0,0.0,0.0,0.0,0.0,0.0,0.0,0.0,0.0,0.0,0.0,0.0,0.0,0.0,0.0,0.0,0.0,0.0,0.0,0.0,0.0,0.0,0.0,0.0,0.0,0.0,0.0,0.0,0.0,0.0,0.0,0.0,0.0,0.0,0.0,0.0,0.0,0.0,0.0,0.0,0.0,0.0,0.0,0.0,0.0,0.0,0.0,0.0,0.0,0.0,0.0,0.0,0.0,0.0,0.0,0.0,0.0,0.0,0.0,0.0,0.0,0.0,0.0,0.0,0.0,0.0,0.0,0.0,-2.8573,-2.9416,-3.0401,-3.0905,-3.0779,-2.8547,-2.6565,0.0,0.0,0.0,0.0,0.0,0.0,0.0,0.0,0.0,0.0,0.0,0.0,0.0,0.0,0.0,0.0,0.0,0.0,0.0,0.0,0.0,0.0,0.0,0.0,0.0,0.0,0.0,0.0,0.0,0.0,0.0,0.0,0.0,0.0,0.0,0.0,0.0,0.0,0.0,0.0,0.0,0.0,0.0,0.0,0.0,0.0,0.0,0.0,0.0,0.0,0.0,0.0,0.0,0.0,0.0,0.0,0.0,0.0,0.0,0.0,0.0,0.0,0.0,0.0,0.0,0.0,0.0,0.0,0.0,0.0,0.0,0.0,0.0,0.0,0.0,0.0,0.0,0.0,0.0,0.0,0.0,0.0,0.0,0.0,0.0,0.0,0.0,0.0,0.0,0.0,0.0,0.0,0.0,0.0,0.0,0.0,0.0,0.0,0.0,0.0,0.0,0.0,0.0,0.0,0.0,0.0,0.0,0.0,-3.0037,-3.2672,-3.3,-3.2934,-3.2489,-2.913,-2.6952,0.0,0.0,0.0,0.0,0.0,0.0,0.0,0.0,0.0,0.0,0.0,0.0,0.0,0.0,0.0,0.0,0.0,0.0,0.0,0.0,0.0,0.0,0.0,0.0,0.0,0.0,0.0,0.0,0.0,0.0,0.0,0.0,0.0,0.0,0.0,0.0,0.0,0.0,0.0,0.0,0.0,0.0,0.0,0.0,0.0,0.0,0.0,0.0,-3.0273,0.0,0.0,0.0,0.0,0.0,0.0,0.0,0.0,0.0,0.0,0.0,0.0,0.0,0.0,0.0,0.0,0.0,0.0,0.0,0.0,0.0,0.0,0.0,0.0,0.0,0.0,0.0,0.0,0.0,0.0,0.0,0.0,0.0,0.0,0.0,0.0,0.0,0.0,0.0,0.0,0.0,0.0,0.0,0.0,0.0,0.0,0.0,0.0,0.0,0.0,0.0,0.0,0.0,0.0,0.0,0.0,0.0,0.0,0.0,-3.1434,-3.3357,-3.4177,-3.4414,-3.4049,-3.09,-2.8321,0.0,0.0,0.0,0.0,0.0,0.0,0.0,0.0,0.0,0.0,0.0,0.0,0.0,0.0,0.0,0.0,0.0,0.0,0.0,0.0,0.0,0.0,0.0,0.0,0.0,0.0,0.0,0.0,0.0,0.0,0.0,0.0,0.0,0.0,0.0,0.0,0.0,0.0,0.0,0.0,0.0,0.0,0.0,0.0,0.0,0.0,0.0,0.0,0.0,0.0,0.0,0.0,0.0,0.0,0.0,0.0,0.0,0.0,0.0,0.0,0.0,0.0,0.0,0.0,0.0,0.0,0.0,0.0,0.0,0.0,0.0,0.0,0.0,0.0,0.0,0.0,0.0,0.0,0.0,0.0,0.0,0.0,0.0,0.0,0.0,0.0,0.0,0.0,0.0,0.0,0.0,0.0,0.0,0.0,0.0,0.0,0.0,0.0,0.0,0.0,0.0,0.0,0.0,0.0,0.0,0.0,0.0,-3.039,-3.2508,-3.3474,-3.5,-3.5722,-3.561,-3.3159,-3.0303,-2.7138,0.0,0.0,0.0,0.0,0.0,0.0,0.0,0.0,0.0,0.0,0.0,0.0,0.0,0.0,0.0,0.0,0.0,0.0,0.0,0.0,0.0,0.0,0.0,0.0,0.0,0.0,0.0,0.0,0.0,0.0,0.0,0.0,0.0,0.0,0.0,0.0,0.0,0.0,-3.0412,-3.1746,0.0,0.0,0.0,0.0,0.0,0.0,0.0,0.0,-3.0341,0.0,0.0,0.0,0.0,0.0,0.0,0.0,0.0,0.0,0.0,0.0,0.0,0.0,0.0,0.0,0.0,0.0,0.0,0.0,0.0,0.0,0.0,0.0,0.0,0.0,0.0,0.0,0.0,0.0,0.0,0.0,0.0,0.0,0.0,0.0,0.0,0.0,0.0,0.0,0.0,0.0,0.0,0.0,0.0,0.0,0.0,0.0,0.0,0.0,0.0,0.0,0.0,0.0,0.0,0.0,0.0,-2.9867,-3.0914,-3.2809,-3.5617,-3.6771,-3.7186,-3.6708,-3.498,-3.2536,-2.9354,0.0,0.0,0.0,0.0,0.0,0.0,0.0,0.0,0.0,0.0,0.0,0.0,0.0,0.0,0.0,0.0,0.0,0.0,0.0,0.0,0.0,0.0,0.0,0.0,0.0,0.0,0.0,0.0,0.0,0.0,0.0,0.0,0.0,0.0,0.0,0.0,0.0,0.0,0.0,-3.0901,-3.0686,0.0,0.0,0.0,0.0,0.0,0.0,0.0,0.0,-2.9538,0.0,0.0,0.0,0.0,0.0,0.0,0.0,0.0,0.0,0.0,0.0,0.0,0.0,0.0,0.0,0.0,0.0,0.0,0.0,0.0,0.0,0.0,0.0,0.0,0.0,0.0,0.0,0.0,0.0,0.0,0.0,0.0,0.0,0.0,0.0,0.0,0.0,0.0,0.0,0.0,0.0,0.0,0.0,0.0,0.0,0.0,0.0,0.0,0.0,0.0,0.0,0.0,0.0,0.0,0.0,-2.9693,-3.1874,-3.4039,-3.6168,-3.7776,-3.8524,-3.8223,-3.6006,-3.3724,0.0,0.0,0.0,0.0,0.0,0.0,0.0,0.0,0.0,0.0,0.0,0.0,0.0,0.0,0.0,0.0,0.0,0.0,0.0,0.0,0.0,0.0,0.0,0.0,0.0,0.0,0.0,0.0,0.0,0.0,0.0,0.0,0.0,0.0,0.0,0.0,0.0,0.0,0.0,0.0,-3.1199,-3.1156,-3.2196,0.0,0.0,0.0,0.0,0.0,0.0,-3.0033,-2.9272,0.0,0.0,0.0,0.0,0.0,0.0,0.0,0.0,0.0,0.0,0.0,0.0,0.0,0.0,0.0,0.0,0.0,0.0,0.0,0.0,0.0,0.0,0.0,0.0,0.0,0.0,0.0,0.0,0.0,0.0,0.0,0.0,0.0,0.0,0.0,0.0,0.0,0.0,0.0,0.0,0.0,0.0,0.0,0.0,0.0,0.0,0.0,0.0,0.0,0.0,0.0,0.0,0.0,0.0,0.0,-2.9139,-3.2388,-3.4785,-3.6207,-3.8078,-3.9177,-3.9343,-3.6509,-3.4243,0.0,0.0,0.0,0.0,0.0,0.0,0.0,0.0,0.0,0.0,0.0,0.0,0.0,0.0,0.0,0.0,0.0,0.0,0.0,0.0,0.0,0.0,0.0,0.0,0.0,0.0,0.0,0.0,0.0,0.0,0.0,0.0,0.0,0.0,0.0,0.0,0.0,0.0,0.0,0.0,0.0,-3.1371,-3.1513,-3.0316,0.0,0.0,0.0,0.0,-2.9944,-2.9639,0.0,0.0,0.0,0.0,0.0,0.0,0.0,0.0,0.0,0.0,0.0,0.0,0.0,0.0,0.0,0.0,0.0,0.0,0.0,0.0,0.0,0.0,0.0,0.0,0.0,0.0,0.0,0.0,0.0,0.0,0.0,0.0,0.0,0.0,0.0,0.0,0.0,0.0,0.0,0.0,0.0,0.0,0.0,0.0,0.0,0.0,0.0,0.0,0.0,0.0,0.0,0.0,0.0,0.0,0.0,0.0,-2.9654,-3.1522,-3.3686,-3.6101,-3.7367,-3.8435,-3.9322,-3.6313,-3.3874,0.0,0.0,0.0,0.0,0.0,0.0,0.0,0.0,0.0,0.0,0.0,0.0,0.0,0.0,0.0,0.0,0.0,0.0,0.0,0.0,0.0,0.0,0.0,0.0,0.0,0.0,0.0,0.0,0.0,0.0,0.0,0.0,0.0,0.0,0.0,0.0,0.0,0.0,0.0,0.0,0.0,-2.9155,-2.9208,-2.7778,-2.7318,0.0,0.0,-2.9707,-3.1355,-3.0448,0.0,0.0,0.0,0.0,0.0,0.0,0.0,0.0,0.0,0.0,0.0,0.0,0.0,0.0,0.0,0.0,0.0,0.0,0.0,0.0,0.0,0.0,0.0,0.0,0.0,0.0,0.0,0.0,0.0,0.0,0.0,0.0,0.0,0.0,0.0,0.0,0.0,0.0,0.0,0.0,0.0,0.0,0.0,0.0,0.0,0.0,0.0,0.0,0.0,0.0,0.0,0.0,0.0,0.0,0.0,-2.725,-2.9729,-3.1059,-3.2869,-3.5292,-3.6958,-3.7843,-3.7901,-3.559,-3.3493,0.0,0.0,0.0,0.0,0.0,0.0,0.0,0.0,0.0,0.0,0.0,0.0,0.0,0.0,0.0,0.0,0.0,0.0,0.0,0.0,0.0,0.0,0.0,0.0,0.0,0.0,0.0,0.0,0.0,0.0,0.0,0.0,0.0,0.0,0.0,0.0,0.0,0.0,0.0,0.0,0.0,0.0,-2.8264,-2.74,0.0,0.0,0.0,-2.7946,-2.8171,0.0,0.0,0.0,0.0,0.0,0.0,0.0,0.0,0.0,0.0,0.0,0.0,0.0,0.0,0.0,0.0,0.0,0.0,0.0,0.0,0.0,0.0,0.0,0.0,0.0,0.0,0.0,0.0,0.0,0.0,0.0,0.0,0.0,0.0,0.0,0.0,0.0,0.0,0.0,0.0,0.0,0.0,0.0,0.0,0.0,0.0,0.0,0.0,0.0,0.0,0.0,0.0,0.0,0.0,0.0,0.0,0.0,-2.8937,-3.035,-3.2095,-3.4199,-3.6067,-3.693,-3.6761,-3.4904,0.0,0.0,0.0,0.0,0.0,0.0,0.0,0.0,0.0,0.0,0.0,0.0,0.0,0.0,0.0,0.0,0.0,0.0,0.0,0.0,0.0,0.0,0.0,0.0,0.0,0.0,0.0,-1.9065,0.0,0.0,0.0,0.0,0.0,0.0,0.0,0.0,0.0,0.0,0.0,0.0,0.0,0.0,-2.705,-2.7238,-2.6857,-2.6693,0.0,0.0,-2.6742,-2.629,-2.7007,-2.7009,0.0,0.0,0.0,0.0,0.0,0.0,0.0,0.0,0.0,0.0,0.0,0.0,0.0,0.0,0.0,0.0,0.0,0.0,0.0,0.0,0.0,0.0,0.0,0.0,0.0,0.0,0.0,0.0,0.0,0.0,0.0,0.0,0.0,0.0,0.0,0.0,0.0,0.0,0.0,0.0,0.0,0.0,0.0,0.0,0.0,0.0,0.0,0.0,0.0,0.0,0.0,0.0,0.0,0.0,-2.5611,-2.6782,-2.9171,-3.1229,-3.289,-3.4212,-3.5515,-3.6702,-3.4399,-3.2226,0.0,0.0,0.0,0.0,0.0,0.0,0.0,0.0,0.0,0.0,0.0,0.0,0.0,0.0,0.0,0.0,0.0,0.0,0.0,0.0,0.0,0.0,0.0,0.0,0.0,0.0,0.0,0.0,0.0,0.0,0.0,0.0,0.0,0.0,0.0,0.0,0.0,0.0,0.0,0.0,0.0,-2.6015,-2.5528,-2.5336,-2.5608,0.0,-2.6504,-2.6827,-2.8133,-2.7936,-2.6992,-2.5264,0.0,0.0,0.0,0.0,0.0,0.0,0.0,0.0,0.0,0.0,0.0,0.0,0.0,0.0,0.0,0.0,0.0,0.0,0.0,0.0,0.0,0.0,0.0,0.0,0.0,0.0,0.0,0.0,0.0,0.0,0.0,0.0,0.0,0.0,0.0,0.0,0.0,0.0,0.0,0.0,0.0,0.0,0.0,0.0,0.0,0.0,0.0,0.0,0.0,0.0,0.0,0.0,0.0,-2.4473,-2.6472,-2.7655,-2.906,-3.0704,-3.2543,-3.3457,-3.3225,-3.2761,-3.1329,0.0,0.0,0.0,0.0,0.0,0.0,0.0,0.0,0.0,0.0,0.0,0.0,0.0,0.0,0.0,0.0,0.0,0.0,0.0,0.0,0.0,0.0,0.0,0.0,0.0,0.0,0.0,0.0,-1.9558,-1.9787,-2.0242,0.0,0.0,0.0,0.0,0.0,0.0,0.0,0.0,0.0,0.0,-2.2659,-2.2955,-2.3639,0.0,0.0,-2.5426,-2.5953,-2.6017,-2.6276,-2.5826,-2.4092,-2.343,0.0,0.0,0.0,0.0,0.0,0.0,0.0,0.0,0.0,0.0,0.0,0.0,0.0,0.0,0.0,0.0,0.0,0.0,0.0,0.0,0.0,0.0,0.0,0.0,0.0,0.0,0.0,0.0,0.0,0.0,0.0,0.0,0.0,0.0,0.0,0.0,0.0,0.0,0.0,0.0,0.0,0.0,0.0,0.0,0.0,0.0,0.0,0.0,0.0,0.0,0.0,0.0,-2.3388,-2.5484,-2.6544,-2.7661,-2.8855,-3.0761,-3.14,-3.0598,-3.1111,-3.0223,0.0,0.0,0.0,0.0,0.0,0.0,0.0,0.0,0.0,0.0,0.0,0.0,0.0,0.0,0.0,0.0,0.0,0.0,0.0,0.0,0.0,0.0,0.0,0.0,0.0,0.0,0.0,0.0,-1.9947,-1.9841,-1.9918,0.0,0.0,0.0,0.0,0.0,0.0,0.0,0.0,0.0,0.0,-2.0851,-2.1196,-2.2221,-2.2933,-2.2819,-2.3508,-2.3887,-2.3494,-2.3942,-2.3839,-2.2406,0.0,0.0,0.0,0.0,0.0,0.0,0.0,0.0,0.0,0.0,0.0,0.0,0.0,0.0,0.0,0.0,0.0,0.0,0.0,0.0,0.0,0.0,0.0,0.0,0.0,0.0,0.0,-2.9727,0.0,0.0,-2.8056,0.0,0.0,0.0,0.0,0.0,0.0,0.0,0.0,0.0,0.0,0.0,0.0,0.0,0.0,0.0,0.0,0.0,0.0,0.0,0.0,0.0,0.0,-2.2379,-2.3295,-2.6039,-2.7521,-2.7673,-2.8808,-2.9462,-2.942,-2.9582,-2.8839,-2.714,0.0,0.0,0.0,0.0,0.0,0.0,0.0,0.0,0.0,0.0,0.0,0.0,0.0,0.0,0.0,0.0,0.0,0.0,0.0,0.0,0.0,0.0,0.0,0.0,0.0,0.0,-1.9399,-1.8499,-1.8105,0.0,0.0,0.0,0.0,0.0,0.0,0.0,0.0,0.0,-1.9117,-2.0524,-2.122,-2.067,-2.1255,-2.1602,-2.1304,-2.0754,-2.0512,-2.1219,-2.1344,-2.1013,0.0,0.0,0.0,0.0,0.0,0.0,0.0,0.0,0.0,0.0,0.0,0.0,0.0,0.0,0.0,0.0,0.0,0.0,0.0,0.0,0.0,0.0,0.0,0.0,0.0,0.0,0.0,-2.8564,-2.8788,0.0,0.0,0.0,0.0,0.0,0.0,0.0,0.0,0.0,0.0,0.0,-2.1987,-2.1961,0.0,0.0,0.0,0.0,0.0,0.0,0.0,0.0,0.0,0.0,0.0,0.0,-2.1682,-2.3096,-2.4362,-2.546,-2.6332,-2.7589,-2.7891,-2.7217,-2.8036,-2.754,-2.5612,0.0,0.0,0.0,0.0,0.0,0.0,0.0,0.0,0.0,0.0,0.0,0.0,0.0,0.0,0.0,0.0,0.0,0.0,0.0,0.0,0.0,0.0,0.0,0.0,0.0,-1.9852,0.0,0.0,0.0,0.0,0.0,0.0,0.0,0.0,0.0,0.0,0.0,-1.7658,-1.7337,-1.8067,-1.865,-1.8592,-1.9776,-2.0661,0.0,0.0,0.0,0.0,0.0,0.0,0.0,0.0,0.0,0.0,0.0,0.0,0.0,0.0,-2.1391,-2.0324,-2.0368,-2.0283,-1.938,0.0,0.0,0.0,0.0,0.0,0.0,0.0,0.0,0.0,0.0,0.0,0.0,0.0,0.0,-2.7947,-2.8508,-2.7895,0.0,0.0,0.0,0.0,0.0,0.0,0.0,0.0,-2.1205,-2.0915,-2.0847,-2.0799,-2.0492,0.0,-1.9544,-2.0271,0.0,0.0,0.0,0.0,0.0,0.0,0.0,0.0,-2.0977,-2.1969,-2.2645,-2.3434,-2.4304,-2.5596,-2.5804,-2.489,-2.5964,-2.6017,-2.4853,-2.357,-2.2173,0.0,0.0,0.0,0.0,0.0,0.0,0.0,0.0,0.0,0.0,0.0,0.0,0.0,0.0,0.0,0.0,0.0,0.0,0.0,0.0,0.0,0.0,0.0,-1.896,0.0,0.0,0.0,0.0,0.0,0.0,0.0,0.0,0.0,-1.6387,-1.6943,-1.7099,-1.6773,-1.7286,-1.7628,-1.7448,0.0,0.0,0.0,0.0,0.0,0.0,0.0,-1.9745,-1.9207,-1.9296,-1.9506,-1.9776,-2.0155,-2.0421,-2.0421,0.0,0.0,-1.931,-1.9489,-1.9527,-1.9083,-1.9464,-1.9912,-1.998,-2.0175,-2.0308,0.0,0.0,0.0,0.0,-2.407,0.0,0.0,0.0,-2.6982,-2.7685,0.0,-2.7584,0.0,0.0,0.0,0.0,-2.0652,-2.2403,0.0,0.0,-2.2413,-2.2405,-2.1288,-2.157,-2.1412,-2.075,-2.0627,-2.0297,-1.9664,-1.7956,0.0,0.0,0.0,0.0,0.0,0.0,-2.0276,-2.005,-2.1048,-2.1651,-2.1794,-2.2976,-2.3255,-2.2519,-2.3436,-2.4225,-2.4703,-2.4232,-2.2927,-2.081,-2.1411,0.0,0.0,0.0,0.0,0.0,0.0,0.0,0.0,0.0,0.0,0.0,0.0,0.0,0.0,0.0,0.0,0.0,0.0,0.0,0.0,-1.8304,0.0,0.0,0.0,0.0,0.0,0.0,0.0,0.0,0.0,0.0,-1.5803,-1.6441,-1.6877,-1.7475,0.0,0.0,0.0,0.0,-1.7849,-1.736,-1.7012,-1.6938,-1.7264,-1.7526,-1.7648,-1.7635,0.0,0.0,-1.8123,-1.7836,-1.7788,-1.7702,-1.8279,-1.8947,-2.0208,-2.0047,-1.9452,-1.8353,-1.8826,-1.947,-1.9795,-1.9949,-2.0038,-2.4008,0.0,0.0,0.0,0.0,-2.3184,-2.3997,-2.5276,-2.4945,-2.4947,-2.5102,-2.4544,0.0,0.0,0.0,0.0,0.0,0.0,-2.0604,-2.0544,-2.0099,-1.9889,-1.9941,-1.9821,-1.9658,-1.946,-1.8847,-1.8832,-1.9358,-1.7512,-1.7273,-1.8631,0.0,0.0,0.0,0.0,-1.917,-2.019,-2.024,-2.0684,-2.1693,-2.2055,-2.2304,-2.2386,-2.2409,-2.3008,-2.4204,-2.3676,-2.2966,-2.2126,-2.1379,0.0,0.0,0.0,0.0,0.0,0.0,0.0,0.0,0.0,0.0,0.0,0.0,0.0,0.0,0.0,0.0,0.0,0.0,0.0,-1.7025,-1.7036,-1.6531,0.0,0.0,0.0,0.0,0.0,0.0,0.0,0.0,0.0,-1.3991,-1.4942,-1.5925,0.0,0.0,-1.7494,-1.7233,-1.7655,-1.8043,-1.8103,-1.8036,0.0,-1.809,-1.7996,-1.7862,-1.7916,-1.841,-1.8771,-1.8628,-1.8771,-1.8851,-1.8901,-1.9055,-1.9344,-1.9802,-1.9559,-1.9069,-1.8783,-1.9038,-1.9498,-1.9793,-1.9956,-2.0127,-2.3109,-2.2408,-2.1641,-2.1586,-2.195,-2.1976,-2.2828,-2.4141,-2.381,-2.388,-2.4155,-2.3812,-2.2852,-2.139,-2.1071,0.0,0.0,0.0,-2.0102,-2.0097,-1.9333,-1.9138,-1.9403,-1.9185,-1.9038,-1.8898,-1.8377,-1.8359,-1.884,-1.7459,-1.7072,-1.762,0.0,-1.7984,-1.8059,-1.8045,-1.8431,-1.909,-1.8913,-1.9213,-2.0076,-2.0456,-2.1031,-2.1777,-2.1306,-2.1481,-2.232,-2.2372,-2.2257,-2.1895,-2.1396,-2.0624,0.0,0.0,0.0,0.0,0.0,0.0,0.0,0.0,0.0,0.0,0.0,-1.8843,-1.745,0.0,0.0,0.0,-1.6725,-1.6645,-1.5907,-1.5589,0.0,0.0,0.0,0.0,0.0,0.0,0.0,-1.1174,-1.1108,-1.1411,-1.2365,-1.3133,-1.4445,-1.6624,-1.7468,-1.7816,-1.7749,0.0,-1.7437,-1.7507,-1.7576,-1.752,-1.7569,-1.8037,-1.8375,-1.8557,-1.8851,-1.9085,-1.9105,-1.9252,-1.9424,-1.9424,-1.9424,-1.9517,-1.9746,-1.9506,-1.9312,-1.9367,-1.9579,-1.98,-2.0094,-2.0294,-2.0434,-2.2271,-2.1897,-2.0842,-2.0548,-2.0802,-2.1089,-2.1942,-2.3205,-2.3212,-2.3802,-2.4739,-2.4521,-2.3293,-2.146,-2.0652,0.0,-1.9497,-2.0608,-2.064,-1.9826,-1.9813,-1.9653,-1.9406,-1.9379,-1.9225,-1.8958,-1.8931,-1.8595,-1.8123,-1.7802,-1.7355,-1.6824,-1.727,-1.7607,-1.7753,-1.8003,-1.7832,-1.7199,-1.746,-1.7608,-1.7635,-1.8437,-1.9502,-2.0761,-2.0126,-1.9807,-1.9882,-2.0704,-2.0997,-2.0639,-2.1334,-2.1207,-1.9984,0.0,0.0,0.0,0.0,0.0,0.0,0.0,0.0,0.0,0.0,0.0,0.0,0.0,0.0,0.0,-1.6222,0.0,-1.5305,-1.4046,0.0,0.0,0.0,-1.0756,-1.0776,-1.0252,-0.9942,-1.0092,0.0,0.0,-1.0988,-1.1387,-1.2657,-1.5758,-1.7628,-1.8615,-1.8357,-1.7265,-1.6378,-1.6049,-1.597,-1.5987,-1.609,-1.7453,-1.8713,-1.9239,-1.9424,-1.941,-1.941,-1.9417,-1.9424,-1.9424,-1.9424,-1.9531,-1.978,-1.9833,-1.9933,-2.0227,-2.0213,-2.0341,-2.0581,-2.0675,-2.0775,-2.2452,-2.1984,-2.1924,-2.1817,-2.1704,-2.1984,-2.2175,-2.2291,-2.2278,-2.224,-2.2019,-2.1779,-2.1252,-2.0532,-2.0335,-2.0125,-2.002,-2.0313,-2.0294,-2.012,-1.99,-1.9766,-1.9686,-1.9472,-1.939,-1.9252,-1.9032,-1.8844,-1.8648,-1.8417,-1.7969,-1.7388,-1.7531,-1.7264,-1.6738,-1.6949,-1.715,-1.7199,-1.7273,-1.7414,-1.7621,-1.7823,-1.8322,-1.9064,-1.8953,-1.905,-1.9553,-1.9812,-1.9909,-1.9799,-2.0198,-2.0296,-1.9994,-1.8874,0.0,0.0,0.0,0.0,0.0,0.0,0.0,0.0,0.0,-1.717,-1.5114,0.0,-1.5699,0.0,-1.4325,-1.4108,-1.41,-1.2918,0.0,0.0,-1.1009,-1.0274,-1.047,-0.9715,-0.9122,-0.909,-0.9185,-0.9401,-0.9831,-1.1061,-1.2164,-1.3177,-1.5264,-1.6724,-1.667,-1.6642,-1.604,-1.4955,-1.4782,-1.4971,-1.5072,-1.636,-1.79,-1.9171,-1.9366,-1.9424,-1.9424,-1.9424,-1.9424,-1.9424,-1.9424,-1.9559,-2.0027,-2.0134,-2.0321,-2.0755,-2.0728,-2.0588,-2.0668,-2.0848,-2.1022,-2.2478,-2.2178,-2.2218,-2.2138,-2.2011,-2.2298,-2.2405,-2.2358,-2.2098,-2.1804,-2.147,-2.1056,-2.0775,-2.0621,-2.0566,-2.0621,-2.0628,-2.0621,-2.0555,-2.0414,-2.0127,-1.9927,-1.9786,-1.9506,-1.9424,-1.9424,-1.9199,-1.9052,-1.8918,-1.8758,-1.845,-1.7989,-1.7983,-1.7609,-1.6881,-1.676,-1.6794,-1.6998,-1.7132,-1.7347,-1.7569,-1.7589,-1.7718,-1.7909,-1.7747,-1.7833,-1.8097,-1.8481,-1.8647,-1.848,-1.9169,-1.941,-1.903,-1.8276,-1.7661,0.0,0.0,0.0,0.0,0.0,0.0,0.0,0.0,0.0,0.0,0.0,-1.3348,-1.268,-1.2629,-1.2704,-1.2856,-1.183,-1.113,-1.1244,-1.0166,-0.9508,-0.9724,-0.9325,-0.9055,-0.9106,-0.933,-0.9507,-0.9571,-1.0409,-1.1327,-1.208,-1.3443,-1.463,-1.5223,-1.4977,-1.4231,-1.3471,-1.3447,-1.383,-1.4485,-1.5311,-1.6497,-1.7929,-1.8344,-1.8525,-1.9249,-1.9424,-1.9424,-1.9424,-1.9424,-1.9553,-2.01,-2.0173,-2.0421,-2.0902,-2.0982,-2.0882,-2.0875,-2.1002,-2.1102,-2.2358,-2.2231,-2.2017,-2.1931,-2.1944,-2.2198,-2.2478,-2.278,-2.2171,-2.1911,-2.1844,-2.1336,-2.1102,-2.1102,-2.1102,-2.1102,-2.1102,-2.1102,-2.0975,-2.0715,-2.0388,-2.0094,-1.9853,-1.9519,-1.9424,-1.9424,-1.9424,-1.9232,-1.8985,-1.8978,-1.8818,-1.851,-1.8497,-1.8163,-1.7535,-1.7021,-1.674,-1.6714,-1.7045,-1.732,-1.7515,-1.7488,-1.738,-1.7099,-1.6787,-1.6493,-1.6221,-1.7032,-1.7296,-1.7055,-1.8198,-1.857,-1.7845,-1.7715,-1.72,0.0,-1.5894,0.0,0.0,0.0,0.0,0.0,0.0,0.0,0.0,-1.2102,-1.0923,-1.092,-1.1298,-1.1618,-1.1736,-1.0793,-1.0176,-1.0205,-0.9361,-0.8818,-0.8954,-0.911,-0.9313,-0.9578,-0.9625,-0.9683,-0.9791,-0.9819,-1.0358,-1.1555,-1.184,-1.2414,-1.3517,-1.3035,-1.2316,-1.1976,-1.1856,-1.2397,-1.383,-1.4426,-1.5252,-1.6615,-1.7384,-1.7806,-1.9185,-1.9424,-1.9424,-1.943,-1.947,-1.9619,-2.014,-2.0267,-2.0481,-2.0995,-2.1089,-2.1082,-2.1082,-2.1089,-2.1102,-2.2004,-2.1383,-2.1621,-2.1702,-2.1708,-2.1755,-2.1949,-2.2124,-2.1849,-2.1503,-2.1269,-2.1162,-2.1102,-2.1102,-2.1102,-2.1102,-2.1102,-2.1102,-2.1082,-2.1009,-2.0474,-2.0201,-2.012,-1.9613,-1.9424,-1.9424,-1.9424,-1.9339,-1.9285,-1.9285,-1.9011,-1.8504,-1.8497,-1.8124,-1.732,0.0,0.0,0.0,-1.7052,-1.7226,-1.7266,-1.6994,-1.6734,-1.6446,-1.6386,0.0,-1.5605,-1.592,-1.6013,-1.5826,-1.7176,0.0,0.0,0.0,0.0,0.0,0.0,0.0,0.0,0.0,0.0,0.0,-1.0717,-1.0487,-1.141,-1.1579,-1.1698,-1.1693,-1.107,-1.072,-1.0918,-0.9754,-0.9086,-0.9163,-0.9147,-0.9135,-0.9176,-0.9354,-0.9551,-0.9602,-0.971,-0.9788,-0.9812,-0.9819,-0.994,-1.0301,-1.024,-1.0358,-1.0721,-1.1615,-1.1675,-1.0539,-1.0358,-1.0902,-1.2393,-1.371,-1.5015,-1.6674,-1.8163,-1.8946,-1.9307,-1.9424,-1.9424,-1.943,-1.9559,-1.982,-2.0174,-2.0428,-2.0681,-2.1042,-2.1102,-2.1102,-2.1102,-2.1102,-2.1102,-2.1864,-2.1336,-2.1329,-2.1329,0.0,-2.1336,-2.1416,-2.1557,-2.1621,-2.1454,-2.1102,-2.1102,-2.1102,-2.1102,-2.1102,-2.1102,-2.1102,-2.1102,-2.1102,-2.1076,-2.0508,-2.0173,-2.0221,-1.9646,-1.9424,-1.9424,-1.9424,-1.9424,-1.9424,-1.9424,-1.9269,-1.8981,-1.8925,-1.8551,-1.7883,-1.7515,-1.7215,-1.6927,-1.7125,-1.7266,-1.74,-1.7221,-1.6934,-1.6506,-1.6486,0.0,0.0,0.0,0.0,0.0,0.0,0.0,0.0,0.0,0.0,-1.3514,-1.2664,-1.1619,-1.05,-1.0421,-1.0307,-1.0041,-0.9411,-0.9156,-0.9539,-0.9996,-1.024,-1.0279,-0.9853,-0.9606,-0.9768,-0.92,-0.8882,-0.9028,-0.9166,-0.9262,-0.9364,-0.9513,-0.9635,-0.9707,-0.9774,-0.9819,-0.9819,-0.9819,-0.9819,-0.9819,-0.9819,-0.9819,-0.9819,-1.0479,-1.066,-0.994,-0.9819,-1.0361,-1.1852,-1.2813,-1.4356,-1.6438,-1.7683,-1.8467,-1.9301,-1.9424,-1.9424,-1.9444,-1.9606,-1.9893,-2.018,-2.0468,-2.0768,-2.1022,-2.1102,-2.1102,-2.1102,-2.1102,-2.1102,-2.179,-2.1456,-2.1209,-2.1102,-2.1102,-2.1102,-2.1102,-2.1129,-2.137,0.0,0.0,-2.1102,-2.1102,-2.1102,-2.1102,-2.1102,-2.1102,-2.1102,-2.1102,-2.1076,-2.0508,-2.0173,-2.014,-1.9639,-1.9424,-1.9424,-1.9424,-1.9424,-1.9424,-1.9424,-1.9424,-1.9417,-1.9319,-1.8998,-1.8417,-1.7856,-1.7462,-1.7286,-1.7226,-1.7313,-1.7495,-1.7455,-1.7194,-1.6714,-1.6653,-1.6275,-1.5512,-1.5486,-1.5214,-1.4697,-1.3725,-1.3155,-1.3148,-1.2189,-1.1706,-1.1888,-1.1872,-1.136,-1.0164,-1.0076,-0.9677,-0.8666,-0.8679,-0.8638,-0.8367,-0.8479,-0.8615,-0.874,-0.875,-0.8811,-0.896,-0.8974,-0.9032,-0.9234,-0.9275,-0.934,-0.9568,-0.9635,-0.9696,-0.9798,-0.9819,-0.9819,-0.9819,-0.9819,-0.9819,-0.9819,-0.9819,-0.9819,-0.9819,-0.9879,-1.0061,-1.0297,-1.0479,-1.0842,-1.2213,-1.3168,-1.4113,-1.655,-1.7267,-1.7923,-1.9004,-1.9424,-1.9424,-1.9424,-1.9639,-1.9947,-2.014,-2.0528,-2.0822,-2.1062,-2.1102,-2.1102,-2.1102,-2.1102,-2.1102,-2.167,-2.1169,-2.1129,-2.1102,-2.1102,-2.1102,-2.1102,-2.1116,-2.1156,-2.1149,-2.1102,-2.1102,-2.1102,-2.1102,-2.1102,-2.1102,-2.1102,-2.1102,-2.1102,-2.1076,-2.0501,-2.0173,-2.0147,-1.9639,-1.9424,-1.9424,-1.9424,-1.9424,-1.9424,-1.9424,-1.9424,-1.939,-1.9112,-1.8698,-1.8075,-1.7762,-1.7562,-1.7568,-1.7326,-1.7219,-1.7259,-1.6961,-1.6794,-1.6707,-1.6473,-1.5632,-1.4232,-1.4172,-1.3517,-1.2136,-1.2076,-1.2175,-1.2355,-1.2167,-1.1687,-1.0742,-1.0656,-1.0124,-0.9037,-0.894,-0.8895,-0.8859,-0.8838,-0.8777,-0.8672,-0.8788,-0.8828,-0.8848,-0.8899,-0.8967,-0.91,-0.9117,-0.9174,-0.9388,-0.9466,-0.9568,-0.9615,-0.9713,-0.9788,-0.9815,-0.9819,-0.9819,-0.9819,-0.9819,-0.9819,-0.9819,-0.9819,-0.9819,-0.994,-0.9819,-1.0422,-1.1499,-1.1856,-1.2513,-1.3944,-1.5483,-1.6315,-1.6844,-1.8163,-1.8946,-1.9301,-1.9424,-1.9424,-1.9424,-1.9793,-2.0134,-2.018,-2.0681,-2.0982,-2.1102,-2.1102,-2.1102,-2.1102,-2.1102,-2.1102,-2.1643,-2.1129,-2.1102,-2.1203,-2.1349,-2.1349,-2.1263,-2.1109,-2.1102,-2.1102,-2.1102,-2.1102,-2.1102,-2.1102,-2.1102,-2.1102,-2.1102,-2.1102,-2.1102,-2.1076,-2.0668,-2.0388,-2.0207,-1.98,-1.9519,-1.9437,-1.9424,-1.9424,-1.9424,-1.9424,-1.9424,-1.9397,-1.8918,-1.8551,-1.8277,-1.7816,-1.7589,-1.7635,-1.7455,-1.7434,-1.7382,-1.7248,-1.7108,-1.6947,-1.6087,-1.5175,-1.4257,-1.3496,-1.2752,-1.1999,-1.1394,-1.1139,-1.1221,-1.0566,-0.9987,-0.9534,-0.9497,-0.9308,-0.8825,-0.878,-0.8811,-0.8878,-0.8937,-0.8944,-0.8954,-0.894,-0.8937,-0.8937,-0.8937,-0.8998,-0.9193,-0.921,-0.9303,-0.9479,-0.9571,-0.9639,-0.9713,-0.9778,-0.9819,-0.9819,-0.9819,-0.9819,-0.9819,-0.9819,-0.9819,-0.9819,-0.9819,-1.0061,-1.0899,-1.1137,-1.1378,-1.2097,-1.2928,-1.4123,-1.5607,-1.6433,-1.7325,-1.8104,-1.8881,-1.9366,-1.9424,-1.9424,-1.9424,-1.9457,-1.984,-2.018,-2.018,-2.0708,-2.1022,-2.1102,-2.1102,-2.1102,-2.1102,-2.1102,-2.1102,-2.1683,-2.1209,-2.1136,-2.1243,-2.1514,-2.1521,-2.1316,-2.1116,-2.1102,-2.1102,-2.1102,-2.1102,-2.1102,-2.1102,-2.1102,-2.1102,-2.1102,-2.1102,-2.1102,-2.1076,-2.0808,-2.0521,-2.0167,-1.994,-1.9646,-1.945,-1.9424,-1.9424,-1.9424,-1.9424,-1.9332,-1.9225,-1.8811,-1.8524,-1.8384,-1.7923,-1.7655,-1.7589,-1.7589,-1.7589,-1.7589,-1.7305,-1.699,-1.6736,-1.5273,-1.4257,-1.3661,-1.2576,-1.1836,-1.1522,-1.0547,-0.9996,-0.9983,-0.9106,-0.8601,-0.874,-0.8764,-0.8811,-0.8871,-0.8937,-0.8937,-0.8937,-0.8937,-0.8984,-0.9079,-0.9005,-0.8957,-0.8929,-0.9028,-0.9096,-0.9198,-0.9306,-0.9364,-0.9622,-0.9656,-0.9703,-0.9798,-0.9819,-0.9819,-0.9819,-0.9819,-0.9819,-0.9819,-0.9819,-0.9819,-0.9819,-1.0061,-1.0899,-1.1976,-1.2693,-1.3283,-1.3522,-1.4356,-1.5725,-1.7208,-1.7566,-1.8104,-1.9301,-1.9366,-1.9424,-1.9424,-1.9424,-1.9424,-1.947,-1.9773,-2.0107,-2.0187,-2.0635,-2.0969,-2.1069,-2.1102,-2.1102,-2.1102,-2.1102,-2.1102,-2.179,-2.1554,-2.1216,-2.1122,-2.1162,-2.1162,-2.1149,-2.1109,-2.1102,-2.1102,-2.1102,-2.1102,-2.1102,-2.1102,-2.1102,-2.1102,-2.1102,-2.1102,-2.1102,-2.1076,-2.0815,-2.0521,-2.0241,-1.994,-1.9653,-1.9464,-1.943,-1.9424,-1.9424,-1.9424,-1.9232,-1.8991,-1.8905,-1.8562,-1.8102,-1.7975,-1.7802,-1.7589,-1.7589,-1.7589,-1.7529,-1.628,-1.5565,-1.5541,-1.3884,-1.2452,-1.1429,-1.0841,-1.0032,-0.8999,-0.88,-0.8758,-0.883,-0.874,-0.8757,-0.8844,-0.8858,-0.8871,-0.8937,-0.8937,-0.8937,-0.8937,-0.8937,-0.8895,-0.8971,-0.8898,-0.8994,-0.9106,-0.9252,-0.9303,-0.9364,-0.9462,-0.9588,-0.9734,-0.9781,-0.9808,-0.9819,-0.9819,-0.9819,-0.9819,-0.9819,-0.9819,-0.9819,-0.9819,-0.9879,-1.0301,-1.108,-1.1976,-1.2808,-1.4589,-1.6197,-1.6368,-1.6727,-1.739,-1.8642,-1.9185,-1.9127,-1.9366,-1.9424,-1.9424,-1.9424,-1.9424,-1.9424,-1.9464,-1.9633,-1.994,-2.0214,-2.0508,-2.0808,-2.1049,-2.1102,-2.1102,-2.1102,-2.1102,-2.1102,-2.1563,-2.1283,-2.1162,-2.1102,-2.1122,-2.1296,-2.1269,-2.1109,-2.1102,-2.1102,-2.1102,-2.1102,-2.1102,-2.1102,-2.1102,-2.1102,-2.1102,-2.1102,-2.1102,-2.1096,-2.0982,-2.0775,-2.0488,-2.0194,-1.99,-1.9619,-1.9452,-1.9424,-1.9424,-1.9424,-1.9305,-1.9178,-1.9011,-1.8718,-1.8268,-1.7287,-1.6619,-1.6293,-1.5476,-1.5043,-1.5097,-1.531,-1.4984,-1.4116,-1.2641,-1.1581,-1.0983,-1.0066,-0.9284,-0.8808,-0.875,-0.8781,-0.8842,-0.879,-0.8817,-0.8878,-0.8937,-0.8937,-0.8937,-0.8937,-0.8937,-0.8937,-0.8937,-0.8971,-0.9055,-0.9066,-0.9152,-0.9193,-0.9137,-0.915,-0.9249,-0.9442,-0.9534,-0.9673,-0.9768,-0.9819,-0.9819,-0.9819,-0.9819,-0.9819,-0.9819,-0.9819,-0.9819,-0.9819,-1.066,-1.1916,-1.2633,-1.2868,-1.4648,-1.6191,-1.7267,-1.8163,-1.8402,-1.8648,-1.9307,-1.9424,-1.9424,-1.9424,-1.9424,-1.9424,-1.9424,-1.9424,-1.9424,-1.9424,-1.9619,-1.9893,-2.018,-2.0474,-2.0762,-2.0995,-2.1102,-2.1102,-2.1102,-2.1102,-2.1102,-2.1494,-2.1249,-2.1236,-2.1182,-2.1129,-2.1343,-2.1309,-2.1122,-2.1102,-2.1102,-2.1102,-2.1102,-2.1102,-2.1102,-2.1102,-2.1102,-2.1102,-2.1102,-2.1102,-2.1096,-2.1029,-2.0835,-2.0548,-2.0247,-1.9967,-1.9686,-1.9524,-1.9424,-1.9424,-1.9424,-1.9424,-1.939,-1.9152,-1.8665,-1.7858,-1.6606,-1.5617,-1.484,-1.3792,-1.3102,-1.2945,-1.3691,-1.375,-1.267,-1.1269,-1.0511,-1.0457,-0.9482,-0.8937,-0.8937,-0.8937,-0.8937,-0.8937,-0.8937,-0.8937,-0.8937,-0.8937,-0.8937,-0.8937,-0.8937,-0.8937,-0.8937,-0.8937,-0.8981,-0.9076,-0.9187,-0.921,-0.9207,-0.9096,-0.9127,-0.9262,-0.9354,-0.9503,-0.9649,-0.9768,-0.9819,-0.9819,-0.9819,-0.9819,-0.9819,-0.9819,-1.0001,-1.0361,-1.06,-1.1499,-1.371,-1.3999,-1.4113,-1.6492,-1.7325,-1.8163,-1.9185,-1.9366,-1.9366,-1.9424,-1.9424,-1.9424,-1.9424,-1.9424,-1.9424,-1.9424,-1.9424,-1.9424,-1.945,-1.9639,-1.9893,-2.018,-2.0474,-2.0775,-2.0995,-2.1102,-2.1102,-2.1102,-2.1102,-2.1102,-2.1608,-2.1588,-2.1588,-2.1349,-2.1116,-2.1136,-2.1129,-2.1102,-2.1102,-2.1102,-2.1102,-2.1102,-2.1102,-2.1102,-2.1102,-2.1102,-2.1102,-2.1102,-2.1102,-2.1082,-2.0835,-2.0541,-2.018,-1.9953,-1.9679,-1.9531,-1.9406,-1.9424,-1.9424,-1.9424,-1.9424,-1.9417,-1.939,-1.8474,-1.7008,-1.6387,-1.5367,-1.3844,-1.3202,-1.2512,-1.1378,-1.1269,-1.1324,-1.1051,-0.9809,-0.9099,-0.9047,-0.8937,-0.8937,-0.8937,-0.8937,-0.8937,-0.8937,-0.8937,-0.8937,-0.8937,-0.8937,-0.8937,-0.8937,-0.8937,-0.8937,-0.8885,-0.895,-0.8892,-0.8915,-0.9086,-0.92,-0.92,-0.9228,-0.9306,-0.9347,-0.9473,-0.9622,-0.9741,-0.9798,-0.9808,-0.9812,-0.9798,-0.9819,-0.9822,-0.994,-1.066,-1.1856,-1.2097,-1.2993,-1.4599,-1.5902,-1.6791,-1.7144,-1.8344,-1.9127,-1.9307,-1.9424,-1.9424,-1.9424,-1.9424,-1.9424,-1.9424,-1.9424,-1.9424,-1.9424,-1.9424,-1.9424,-1.9484,-1.9639,-1.9893,-2.0187,-2.0481,-2.0788,-2.0989,-2.1082,-2.1102,-2.1102,-2.1102,-2.1102,-2.1269,-2.1269,-2.1269,-2.1203,-2.1116,-2.1102,-2.1102,-2.1102,-2.1102,-2.1102,-2.1102,-2.1102,-2.1102,-2.1102,-2.1102,-2.1102,-2.1102,-2.1102,-2.1102,-2.1076,-2.0808,-2.0615,-2.0481,-2.0034,-1.976,-1.9639,-1.9517,-1.9424,-1.9424,-1.9424,-1.9424,-1.9424,-1.9424,-1.8917,-1.7869,-1.592,-1.4433,-1.3487,-1.1634,-1.0186,-0.9809,-0.9699,-0.9699,-0.9644,-0.921,-0.8937,-0.8937,-0.8937,-0.8937,-0.8937,-0.8937,-0.8937,-0.8937,-0.8937,-0.8937,-0.8937,-0.8937,-0.8937,-0.8937,-0.8937,-0.8937,-0.8944,-0.9025,-0.9025,-0.8984,-0.9066,-0.9176,-0.9055,-0.9062,-0.9127,-0.932,-0.9459,-0.9588,-0.9557,-0.9629,-0.969,-0.9686,-0.9686,-0.9717,-0.9916,-1.06,-1.1976,-1.3172,-1.377,-1.4777,-1.7038,-1.7325,-1.7507,-1.8344,-1.9127,-1.9424,-1.9424,-1.9424,-1.9424,-1.9424,-1.9424,-1.9424,-1.9424,-1.9424,-1.9424,-1.9424,-1.9424,-1.9424,-1.9464,-1.9606,-1.992,-2.0227,-2.0655,-2.0922,-2.1015,-2.1102,-2.1102,-2.1102,-2.1102,-2.1102,-2.1102,-2.1102,-2.1102,-2.1102,-2.1102,-2.1102,-2.1102,-2.1102,-2.1102,-2.1102,-2.1102,-2.1102,-2.1102,-2.1102,-2.1102,-2.1102,-2.1102,-2.1102,-2.1102,-2.1069,-2.0715,-2.0535,-2.0434,-1.9933,-1.9659,-1.9626,-1.9466,-1.9424,-1.9424,-1.9424,-1.9424,-1.9424,-1.9424,-1.9028,-1.797,-1.5903,-1.4342,-1.2898,-1.0742,-0.9423,-0.8992,-0.8937,-0.8937,-0.8937,-0.8937,-0.8937,-0.8937,-0.8937,-0.8937,-0.8937,-0.8937,-0.8937,-0.8937,-0.8937,-0.8937,-0.8937,-0.8937,-0.8937,-0.8937,-0.8937,-0.8937,-0.8885,-0.9018,-0.9035,-0.8902,-0.9069,-0.9086,-0.9035,-0.9062,-0.913,-0.9232,-0.9415,-0.949,-0.9412,-0.9476,-0.9561,-0.9602,-0.9612,-0.9683,-0.9966,-1.1137,-1.2753,-1.4302,-1.5015,-1.6562,-1.9068,-1.8402,-1.8344,-1.9127,-1.9424,-1.9424,-1.9424,-1.9424,-1.9424,-1.9424,-1.9424,-1.9424,-1.9424,-1.9424,-1.9424,-1.9424,-1.9424,-1.9437,-1.9477,-1.9626,-1.9947,-2.0334,-2.0782,-2.0989,-2.1082,-2.1102,-2.1102,-2.1102,-2.1102,-2.1102,-2.1102,-2.1102,-2.1102,-2.1102,-2.1102,-2.1102,-2.1102,-2.1102,-2.1102,-2.1102,-2.1102,-2.1102,-2.1102,-2.1102,-2.1102,-2.1102,-2.1102,-2.1102,-2.1082,-2.1015,-2.0514,-2.0193,-2.0194,-1.9673,-1.947,-1.947,-1.9437,-1.9424,-1.9424,-1.9424,-1.9424,-1.9424,-1.9424,-1.8745,-1.7126,-1.6451,-1.477,-1.2583,-1.1347,-1.03,-0.9099,-0.8937,-0.8937,-0.8937,-0.8937,-0.8937,-0.8937,-0.8937,-0.8937,-0.8937,-0.8937,-0.8937,-0.8937,-0.8937,-0.8937,-0.8937,-0.8937,-0.8937,-0.8937,-0.8937,-0.8937,-0.8888,-0.8898,-0.8974,-0.8967,-0.9069,-0.9197,-0.9123,-0.9215,-0.933,-0.9317,-0.9344,-0.9361,-0.9374,-0.9374,-0.9435,-0.9554,-0.9612,-0.9726,-1.0148,-1.1495,-1.2928,-1.448,-1.6085,-1.7689,-1.8887,-1.9243,-1.9127,-1.9366,-1.9424,-1.9424,-1.9424,-1.9424,-1.9424,-1.9424,-1.9424,-1.9424,-1.9424,-1.9424,-1.9424,-1.9424,-1.9424,-1.9424,-1.9477,-1.9726,-2.0054,-2.0454,-2.0862,-2.1015,-2.1102,-2.1102,-2.1102,-2.1102,-2.1102,-2.1102,-2.1102,-2.1102,-2.1102,-2.1102,-2.1102,-2.1102,-2.1102,-2.1102,-2.1102,-2.1102,-2.1102,-2.1102,-2.1102,-2.1102,-2.1102,-2.1102,-2.1102,-2.1096,-2.1002,-2.0768,-2.0408,-2.0134,-1.9913,-1.9553,-1.9424,-1.9424,-1.9424,-1.9424,-1.9424,-1.9424,-1.9424,-1.9424,-1.9424,-1.9185,-1.8558,-1.71,-1.5226,-1.348,-1.1842,-1.0406,-0.9044,-0.894,-0.8937,-0.8937,-0.8937,-0.8937,-0.8937,-0.8937,-0.8937,-0.8937,-0.8937,-0.8937,-0.8937,-0.8937,-0.8937,-0.8937,-0.8937,-0.8937,-0.8937,-0.8937,-0.8937,-0.8957,-0.9025,-0.9025,-0.8971,-0.9066,-0.9159,-0.9032,-0.9052,-0.9076,-0.9076,-0.9076,-0.914,-0.9272,-0.9282,-0.9354,-0.9641,-0.9695,-1.0293,-1.1418,-1.2868,-1.4475,-1.602,-1.7566,-1.8706,-1.9185,-1.9424,-1.9424,-1.9424,-1.9424,-1.9424,-1.9424,-1.9424,-1.9424,-1.9424,-1.9424,-1.9424,-1.9424,-1.9424,-1.9424,-1.9424,-1.9424,-1.9424,-1.9551,-1.9806,-2.0154,-2.0561,-2.0862,-2.1036,-2.1102,-2.1102,-2.1102,-2.1102,-2.1102,-2.1102,-2.1102,-2.1102,-2.1102,-2.1102,-2.1102,-2.1102,-2.1102,-2.1102,-2.1102,-2.1102,-2.1102,-2.1102,-2.1102,-2.1102,-2.1102,-2.1102,-2.1102,-2.1102,-2.0895,-2.0541,-2.0334,-2.0174,-2.0054,-1.9706,-1.9459,-1.9437,-1.9424,-1.9424,-1.9424,-1.9424,-1.9424,-1.9424,-1.9424,-1.9366,-1.9325,-1.802,-1.6503,-1.501,-1.3146,-1.1389,-1.0072,-0.9293,-0.8994,-0.8892,-0.8937,-0.8937,-0.8937,-0.8937,-0.8937,-0.8937,-0.8937,-0.8937,-0.8937,-0.8937,-0.8937,-0.8937,-0.8937,-0.8937,-0.8937,-0.8937,-0.8937,-0.8957,-0.9022,-0.9035,-0.8915,-0.9039,-0.9035,-0.9028,-0.9028,-0.9042,-0.9096,-0.9106,-0.915,-0.9225,-0.9248,-0.9592,-1.0128,-1.0554,-1.1415,-1.2928,-1.448,-1.5843,-1.6973,-1.8344,-1.9307,-1.9424,-1.9424,-1.9424,-1.9424,-1.9424,-1.9424,-1.9424,-1.9424,-1.9424,-1.9424,-1.9424,-1.9424,-1.9424,-1.9424,-1.9424,-1.9424,-1.9424,-1.943,-1.9526,-1.978,-2.0087,-2.0474,-2.0862,-2.1102,-2.1102,-2.1102,-2.1102,-2.1102,-2.1102,-2.1109,-2.1102,-2.1102,-2.1102,-2.1102,-2.1102,-2.1102,-2.1102,-2.1102,-2.1102,-2.1102,-2.1102,-2.1102,-2.1102,-2.1102,-2.1102,-2.1089,-2.1082,-2.1102,-2.0802,-2.0401,-2.0241,-2.0281,-2.0281,-1.9873,-1.9566,-1.9457,-1.9424,-1.9424,-1.9424,-1.9424,-1.9424,-1.9424,-1.9424,-1.9424,-1.9305,-1.9001,-1.7944,-1.6372,-1.4799,-1.3223,-1.1651,-1.0201,-0.9353,-0.9165,-0.921,-0.9099,-0.8937,-0.8937,-0.8937,-0.8937,-0.8937,-0.8937,-0.8937,-0.8937,-0.8937,-0.8937,-0.8937,-0.8937,-0.8937,-0.8937,-0.895,-0.8971,-0.896,-0.8898,-0.8946,-0.9018,-0.9055,-0.9154,-0.9224,-0.9272,-0.932,-0.9344,-0.9415,-0.9541,-0.9752,-1.0375,-1.1712,-1.2099,-1.309,-1.4535,-1.602,-1.7085,-1.7267,-1.8648,-1.9185,-1.9424,-1.9424,-1.9424,-1.9424,-1.9424,-1.9424,-1.9424,-1.9424,-1.9424,-1.9424,-1.9424,-1.9424,-1.9424,-1.9424,-1.943,-1.943,-1.943,-1.9504,-1.9599,-1.9826,-2.0107,-2.036,-2.0835,-2.1076,-2.1102,-2.1102,-2.1102,-2.1102,-2.1102,-2.1606,-2.1102,-2.1102,-2.1102,-2.1102,-2.1102,-2.1102,-2.1102,-2.1102,-2.1102,-2.1089,-2.1102,-2.1102,-2.1096,-2.1102,-2.1102,-2.1002,-2.0895,-2.1022,-2.0788,-2.0307,-2.0173,-1.9993,-1.9766,-1.9586,-1.9452,-1.9437,-1.9424,-1.9424,-1.9424,-1.9424,-1.9424,-1.9424,-1.9424,-1.9424,-1.9383,-1.9078,-1.8166,-1.6882,-1.6095,-1.4841,-1.3199,-1.1664,-1.0795,-1.0531,-1.0511,-1.0025,-0.9103,-0.8937,-0.8937,-0.8937,-0.8937,-0.8937,-0.8937,-0.8937,-0.8937,-0.8937,-0.8937,-0.8937,-0.8937,-0.8937,-0.8929,-0.9072,-0.9001,-0.8976,-0.9245,-0.9157,-0.9184,-0.9283,-0.9323,-0.9398,-0.9378,-0.9449,-0.9949,-1.1082,-1.1396,-1.1641,-1.2231,-1.3218,-1.4599,-1.6079,-1.6786,-1.7566,-1.8467,-1.9004,-1.9424,-1.9424,-1.9424,-1.9424,-1.9424,-1.9424,-1.9424,-1.9424,-1.9424,-1.9424,-1.9424,-1.9424,-1.9424,-1.9424,-1.943,-1.9379,-1.9444,-1.945,-1.9519,-1.9686,-2.0007,-2.0307,-2.0568,-2.0895,-2.0989,-2.1102,-2.1102,-2.1102,-2.1102,-2.1172,-2.2181,-2.1102,-2.1102,-2.1102,-2.1102,-2.1102,-2.1102,-2.1102,-2.1082,-2.0975,-2.1009,-2.1062,-2.0975,-2.0995,-2.1102,-2.1102,-2.0949,-2.0742,-2.0975,-2.0702,-2.01,-1.9907,-1.9679,-1.9459,-1.9466,-1.9492,-1.943,-1.9424,-1.9424,-1.9424,-1.9424,-1.9424,-1.9424,-1.9424,-1.9424,-1.9417,-1.9212,-1.8748,-1.7835,-1.7095,-1.5943,-1.4765,-1.3287,-1.2441,-1.2096,-1.2023,-1.1542,-1.0899,-1.0976,-1.0504,-0.9355,-0.8937,-0.8937,-0.8937,-0.8937,-0.8937,-0.8937,-0.8937,-0.8937,-0.8937,-0.894,-0.9005,-0.9106,-0.9066,-0.9157,-0.9303,-0.9296,-0.9313,-0.9449,-0.9473,-0.9507,-0.9672,-1.0152,-1.1362,-1.2795,-1.3692,-1.404,-1.4099,-1.5049,-1.6309,-1.7449,-1.8046,-1.8286,-1.9307,-1.9366,-1.9424,-1.9424,-1.9424,-1.9424,-1.9424,-1.9424,-1.9424,-1.9424,-1.9424,-1.9424,-1.9424,-1.9424,-1.9464,-1.9464,-1.9558,-1.9486,-1.9499,-1.9564,-1.9646,-1.9867,-2.0194,-2.0481,-2.0708,-2.0909,-2.1029,-2.1102,-2.1102,-2.1166,-2.1166,-2.1852,-2.2869,-2.1102,-2.1102,-2.1102,-2.1102,-2.1102,-2.1102,-2.1102,-2.1056,-2.0875,-2.0902,-2.1022,-2.0842,-2.0922,-2.1102,-2.1096,-2.0949,-2.0757,-2.0909,-2.0501,-1.9967,-1.9593,-1.945,-1.9412,-1.9559,-1.9579,-1.9511,-1.9457,-1.9464,-1.9484,-1.947,-1.9424,-1.9424,-1.9424,-1.9424,-1.9417,-1.9339,-1.9417,-1.9029,-1.8029,-1.7195,-1.6313,-1.5046,-1.409,-1.3619,-1.3177,-1.3371,-1.3457,-1.3517,-1.2562,-0.9573,-0.9289,-0.9179,-0.9116,-0.8937,-0.8937,-0.8937,-0.8937,-0.8937,-0.8947,-0.8905,-0.9032,-0.9214,-0.9245,-0.9316,-0.9405,-0.9435,-0.9466,-0.9615,-0.9744,-1.0267,-1.088,-1.1831,-1.3301,-1.479,-1.6175,-1.7079,-1.7267,-1.7267,-1.7806,-1.9127,-1.9366,-1.9366,-1.9424,-1.9424,-1.9424,-1.9424,-1.9424,-1.9424,-1.9424,-1.9424,-1.9424,-1.9424,-1.9424,-1.9424,-1.9424,-1.9424,-1.9484,-1.9472,-1.9633,-1.9693,-1.9713,-1.9746,-1.9846,-2.0054,-2.0374,-2.0608,-2.0782,-2.0942,-2.1125,-2.1411,-2.1601,-2.1475,-2.1495,-2.2601,-2.3677,-2.1102,-2.1102,-2.1102,-2.1102,-2.1102,-2.1102,-2.1102,-2.1089,-2.1029,-2.0969,-2.1069,-2.1015,-2.1015,-2.1089,-2.1056,-2.0955,-2.0661,-2.0681,-2.0401,-1.984,-1.9499,-1.9437,-1.9437,-1.9479,-1.9559,-1.9573,-1.9452,-1.9479,-1.9593,-1.9517,-1.9424,-1.9424,-1.9424,-1.9424,-1.9424,-1.9424,-1.9424,-1.9366,-1.8946,-1.8479,-1.781,-1.6782,-1.5896,-1.5338,-1.4412,-1.4503,-1.511,-1.4428,-1.3452,-1.2608,-1.1599,-1.0628,-0.9404,-0.9054,-0.9006,-0.8895,-0.8888,-0.8885,-0.896,-0.9052,-0.9174,-0.9306,-0.9344,-0.9445,-0.969,-0.9615,-0.9635,-0.9978,-1.085,-1.1927,-1.3333,-1.4945,-1.5838,-1.6615,-1.7806,-1.8765,-1.8823,-1.8823,-1.9004,-1.9243,-1.9424,-1.9424,-1.9424,-1.9424,-1.9424,-1.9424,-1.9424,-1.9424,-1.9424,-1.9424,-1.9424,-1.9424,-1.9424,-1.943,-1.9444,-1.9484,-1.9533,-1.9659,-1.9833,-1.998,-2.0,-2.0094,-2.0227,-2.0374,-2.0561,-2.0755,-2.0909,-2.1352,-2.1601,-2.1846,-2.216,-2.2439,-2.2803,-2.3735,-2.4984,-2.1102,-2.1102,-2.1102,-2.1102,-2.1082,-2.0969,-2.0902,-2.0848,-2.0595,-2.0575,-2.0641,-2.0568,-2.0648,-2.0875,-2.0762,-2.0595,-2.0428,-2.0167,-1.9987,-1.9733,-1.9512,-1.943,-1.9419,-1.9486,-1.9613,-1.9606,-1.9452,-1.9479,-1.9512,-1.9524,-1.9424,-1.9424,-1.9424,-1.9424,-1.9424,-1.9424,-1.9424,-1.9424,-1.9417,-1.9138,-1.8629,-1.812,-1.7635,-1.7246,-1.6488,-1.6608,-1.7129,-1.6853,-1.5873,-1.5015,-1.4224,-1.2632,-1.0485,-1.0046,-0.9809,-0.9143,-0.8908,-0.9032,-0.9117,-0.9157,-0.9249,-0.9469,-0.9486,-0.9612,-0.9751,-0.9744,-1.0222,-1.0812,-1.1852,-1.3048,-1.5365,-1.6256,-1.7149,-1.8163,-1.8881,-1.9366,-1.9424,-1.9424,-1.9424,-1.9424,-1.9424,-1.9424,-1.9424,-1.9424,-1.9424,-1.9424,-1.9424,-1.9424,-1.9424,-1.9424,-1.9424,-1.9424,-1.9424,-1.9437,-1.9406,-1.9492,-1.9659,-1.9853,-2.01,-2.0274,-2.0381,-2.0508,-2.0655,-2.0722,-2.0755,-2.0902,-2.1099,-2.1587,-2.2215,-2.2709,-2.3161,-2.3531,-2.426,-2.5172,-2.6714,-2.1102,-2.1102,-2.1102,-2.1102,-2.1062,-2.0815,-2.0695,-2.0608,-2.01,-2.0127,-2.0167,-1.996,-2.0267,-2.0481,-2.032,-2.0173,-2.0054,-1.9786,-1.9653,-1.9639,-1.9472,-1.9437,-1.947,-1.9533,-1.9613,-1.9439,-1.9539,-1.9566,-1.9499,-1.9426,-1.9439,-1.9444,-1.9424,-1.9424,-1.9424,-1.9424,-1.9424,-1.9424,-1.9424,-1.9219,-1.8971,-1.8844,-1.8701,-1.8533,-1.8443,-1.8403,-1.8546,-1.8527,-1.83,-1.6873,-1.6954,-1.5186,-1.2933,-1.1702,-1.1422,-1.0077,-0.9895,-0.9722,-0.9824,-0.9559,-0.932,-0.9588,-0.9635,-0.969,-0.9785,-1.0229,-1.0944,-1.1904,-1.2928,-1.4475,-1.6909,-1.7566,-1.8163,-1.8946,-1.9366,-1.9424,-1.9424,-1.9424,-1.9424,-1.9424,-1.9424,-1.9424,-1.9424,-1.9424,-1.9424,-1.9424,-1.9424,-1.9424,-1.9424,-1.9437,-1.9437,-1.943,-1.9424,-1.9551,-1.9539,-1.9626,-1.978,-2.01,-2.0368,-2.0528,-2.0695,-2.0802,-2.0875,-2.0862,-2.0922,-2.1036,-2.1524,-2.2271,-2.2897,-2.3512,-2.3914,-2.4216,-2.5201,-2.6554,-2.8131,-2.1102,-2.1102,-2.1102,-2.1102,-2.1056,-2.0802,-2.0648,-2.0621,-2.0247,-2.018,-2.0187,-2.0107,-2.0154,-2.0274,-2.0207,-2.01,-1.986,-1.9679,-1.9579,-1.9499,-1.9444,-1.9424,-1.945,-1.9492,-1.9566,-1.9773,-1.992,-1.994,-1.9746,-1.9726,-1.9533,-1.9464,-1.9424,-1.9424,-1.9424,-1.9424,-1.9424,-1.9424,-1.9424,-1.9219,-1.9078,-1.9132,-1.9232,-1.9169,-1.9038,-1.9032,-1.9112,-1.9052,-1.8824,-1.8538,-1.8781,-1.7552,-1.571,-1.4373,-1.3655,-1.2753,-1.172,-1.1178,-1.1327,-1.0181,-0.961,-0.9588,-0.9707,-0.9771,-1.0051,-1.0959,-1.1856,-1.2988,-1.4826,-1.6909,-1.8706,-1.8765,-1.9004,-1.9366,-1.9424,-1.9424,-1.9424,-1.9424,-1.9424,-1.9424,-1.9424,-1.9424,-1.9424,-1.9424,-1.9424,-1.9424,-1.9424,-1.9424,-1.9424,-1.945,-1.9477,-1.945,-1.9424,-1.9539,-1.9706,-1.9806,-1.996,-2.0347,-2.0608,-2.0742,-2.0895,-2.1009,-2.1062,-2.1002,-2.1002,-2.1069,-2.172,-2.2709,-2.3869,-2.4717,-2.4833,-2.4773,-2.664,-2.8288,-2.8583,-2.1102,-2.1102,-2.1102,-2.1022,-2.0848,-2.0568,-2.0361,-2.0187,-1.992,-1.9786,-1.9786,-1.98,-1.9967,-2.008,-1.9873,-1.97,-1.9626,-1.9573,-1.9486,-1.943,-1.9424,-1.9424,-1.9457,-1.9499,-1.9653,-1.9893,-2.0194,-2.0194,-1.9813,-1.9626,-1.9533,-1.947,-1.9424,-1.9424,-1.9424,-1.9424,-1.9424,-1.9424,-1.9417,-1.9363,-1.9158,-1.9312,-1.941,-1.9377,-1.9245,-1.9245,-1.9285,-1.9259,-1.9158,-1.9178,-1.9292,-1.8833,-1.7957,-1.7146,-1.6,-1.4547,-1.3387,-1.2965,-1.2901,-1.1766,-1.0906,-1.0823,-1.0382,-0.9812,-1.0179,-1.1197,-1.2928,-1.4772,-1.6497,-1.8525,-1.9249,-1.9424,-1.9424,-1.9424,-1.9424,-1.9424,-1.9424,-1.9424,-1.9424,-1.9424,-1.9424,-1.9424,-1.9424,-1.9424,-1.9424,-1.9424,-1.9437,-1.9457,-1.9477,-1.9564,-1.9586,-1.9613,-1.9639,-1.9813,-1.9993,-2.01,-2.0201,-2.0555,-2.0802,-2.0935,-2.1009,-2.1082,-2.1102,-2.1076,-2.1096,-2.1411,-2.2083,-2.3131,-2.4525,-2.5802,-2.5713,-2.6158,-2.8377,-2.9881,-2.9807,-2.1076,-2.1022,-2.1029,-2.0889,-2.0641,-2.0287,-2.0067,-1.984,-1.9539,-1.9457,-1.9424,-1.9457,-1.9646,-1.9846,-1.9646,-1.9399,-1.9497,-1.9479,-1.9486,-1.9486,-1.9537,-1.9511,-1.9504,-1.9573,-1.9726,-1.9853,-2.0134,-2.0254,-1.988,-1.9713,-1.9533,-1.9457,-1.9424,-1.9424,-1.9424,-1.9424,-1.9424,-1.9424,-1.9424,-1.9424,-1.9424,-1.9424,-1.9424,-1.9424,-1.9424,-1.9417,-1.9417,-1.9397,-1.939,-1.939,-1.9417,-1.9352,-1.9417,-1.9424,-1.812,-1.5905,-1.4979,-1.4829,-1.4578,-1.3487,-1.2515,-1.2581,-1.1547,-1.102,-1.1318,-1.2868,-1.4535,-1.7032,-1.846,-1.9243,-1.9366,-1.9424,-1.9424,-1.9424,-1.9424,-1.9424,-1.9424,-1.9424,-1.9424,-1.9424,-1.9424,-1.9437,-1.9444,-1.945,-1.9457,-1.9546,-1.9566,-1.9679,-1.9713,-1.982,-1.9893,-1.9933,-2.0007,-2.0154,-2.0307,-2.0441,-2.0561,-2.0768,-2.0929,-2.1036,-2.1069,-2.1102,-2.1285,-2.1657,-2.1908,-2.2278,-2.2882,-2.3792,-2.5436,-2.647,-2.6401,-2.7271,-2.9063,-2.9927,-3.0013,-2.0962,-2.0728,-2.0728,-2.0702,-2.0575,-2.0087,-1.9987,-2.0067,-1.9579,-1.943,-1.9424,-1.9424,-1.9477,-1.9479,-1.9479,-1.9526,-1.9646,-1.9666,-1.9646,-1.9633,-1.9646,-1.9598,-1.945,-1.9444,-1.9653,-1.9826,-1.994,-1.9873,-1.988,-2.0013,-1.9793,-1.9524,-1.9424,-1.9424,-1.9424,-1.9424,-1.9424,-1.9424,-1.9424,-1.9424,-1.9424,-1.9424,-1.9424,-1.9424,-1.9424,-1.9424,-1.9424,-1.9424,-1.9424,-1.9424,-1.9424,-1.9424,-1.9424,-1.9424,-1.9301,-1.8461,-1.7496,-1.6477,-1.64,-1.512,-1.4196,-1.4262,-1.383,-1.3944,-1.4118,-1.5009,-1.6674,-1.8771,-1.9366,-1.9366,-1.9424,-1.9424,-1.9424,-1.9424,-1.9424,-1.9424,-1.9424,-1.9424,-1.9424,-1.947,-1.9484,-1.9477,-1.9477,-1.9484,-1.9511,-1.9619,-1.978,-1.9893,-2.0007,-2.01,-2.0261,-2.0327,-2.0476,-2.0611,-2.0937,-2.1018,-2.1169,-2.1213,-2.1092,-2.1229,-2.1601,-2.1908,-2.2334,-2.2709,-2.3076,-2.3621,-2.4409,-2.5444,-2.6712,-2.7168,-2.7272,-2.8149,-2.9366,-2.9894,-3.0201,-2.0942,-2.0668,-2.0494,-2.0327,-2.0154,-1.99,-1.9773,-1.9693,-1.9544,-1.9424,-1.9424,-1.9424,-1.9424,-1.9444,-1.9519,-1.9579,-1.9579,-1.9579,-1.9559,-1.9586,-1.9573,-1.9551,-1.9457,-1.9457,-1.9573,-1.992,-2.0067,-2.0234,-2.0201,-2.002,-1.9753,-1.9524,-1.9437,-1.9424,-1.9484,-1.9437,-1.9424,-1.9424,-1.9424,-1.9424,-1.9424,-1.9424,-1.9424,-1.9424,-1.9424,-1.9424,-1.9424,-1.9424,-1.9424,-1.9424,-1.9424,-1.9424,-1.9424,-1.9424,-1.9366,-1.9294,-1.8719,-1.8281,-1.8125,-1.6733,-1.6113,-1.5617,-1.5375,-1.4842,-1.5784,-1.6615,-1.7747,-1.9191,-1.9366,-1.9424,-1.9424,-1.9424,-1.9424,-1.943,-1.947,-1.9484,-1.9477,-1.943,-1.9437,-1.9491,-1.9506,-1.9566,-1.9626,-1.9686,-1.9726,-1.982,-1.998,-2.012,-2.0241,-2.0361,-2.0555,-2.0762,-2.0968,-2.1189,-2.1548,-2.1881,-2.1991,-2.1971,-2.1357,-2.1664,-2.2466,-2.2959,-2.3504,-2.4655,-2.568,-2.6106,-2.6296,-2.691,-2.788,-2.808,-2.8168,-2.9207,-3.0128,-3.029,-3.0816,-2.0788,-2.0441,-2.0294,-2.0067,-1.9793,-1.9733,-1.9626,-1.9492,-1.9464,-1.9424,-1.9424,-1.9424,-1.9424,-1.9457,-1.9559,-1.9586,-1.9564,-1.9472,-1.9479,-1.9472,-1.9459,-1.9452,-1.945,-1.9464,-1.9619,-2.0067,-2.01,-2.0274,-2.0327,-2.0241,-1.996,-1.9593,-1.9673,-1.9633,-1.9606,-1.9626,-1.9626,-1.9571,-1.947,-1.943,-1.9424,-1.9424,-1.9424,-1.9424,-1.9424,-1.9424,-1.9424,-1.9424,-1.9424,-1.9424,-1.9424,-1.9424,-1.9424,-1.9424,-1.9424,-1.9366,-1.9138,-1.9152,-1.8939,-1.8196,-1.7741,-1.7208,-1.6856,-1.6685,-1.7331,-1.7624,-1.7923,-1.9372,-1.9366,-1.9424,-1.9424,-1.9424,-1.9491,-1.9531,-1.9571,-1.9584,-1.9559,-1.9613,-1.9679,-1.9773,-1.9846,-1.988,-1.994,-2.0007,-2.0047,-2.006,-2.018,-2.0341,-2.0488,-2.0635,-2.0768,-2.0969,-2.1038,-2.1289,-2.1637,-2.2062,-2.2459,-2.2827,-2.2278,-2.2577,-2.3683,-2.4409,-2.4955,-2.6288,-2.7778,-2.8239,-2.8256,-2.8623,-2.8957,-2.8901,-2.9059,-3.0059,-3.0794,-3.0928,-3.1379,-2.0374,-1.988,-2.0127,-2.0054,-1.9766,-1.9506,-1.9546,-1.9659,-1.9466,-1.943,-1.9424,-1.9424,-1.9424,-1.9444,-1.9484,-1.9553,-1.9733,-1.9766,-1.9693,-1.97,-1.9746,-1.9553,-1.9497,-1.947,-1.9591,-1.986,-2.0054,-2.0133,-2.0314,-2.0441,-2.0301,-2.0207,-2.0054,-2.0127,-2.0107,-2.0013,-1.9893,-1.9726,-1.9539,-1.9457,-1.9437,-1.9424,-1.9424,-1.9424,-1.9424,-1.9424,-1.9424,-1.9424,-1.9424,-1.9424,-1.9424,-1.9424,-1.9424,-1.9424,-1.9424,-1.9424,-1.9424,-1.9424,-1.9185,-1.9185,-1.9185,-1.9127,-1.8887,-1.8473,-1.8765,-1.9062,-1.9366,-1.9366,-1.9424,-1.9424,-1.9424,-1.945,-1.9526,-1.9633,-1.9726,-1.9846,-1.9913,-2.0007,-2.0067,-2.0087,-2.0187,-2.0207,-2.0301,-2.0374,-2.0361,-2.0374,-2.0501,-2.0668,-2.0802,-2.0929,-2.0969,-2.1069,-2.1076,-2.1202,-2.1454,-2.1971,-2.2889,-2.3807,-2.3923,-2.4525,-2.5497,-2.6037,-2.6349,-2.7677,-2.9076,-2.9674,-3.0165,-3.0237,-3.0209,-2.9744,-3.0055,-3.1115,-3.1698,-3.1973,-3.239,-2.0167,-1.982,-1.992,-1.98,-1.9584,-1.9419,-1.9491,-1.9506,-1.947,-1.9424,-1.9424,-1.9424,-1.9424,-1.9424,-1.9424,-1.9477,-1.9526,-1.9533,-1.9539,-1.9533,-1.9506,-1.9459,-1.943,-1.947,-1.9578,-1.9773,-1.9947,-2.0094,-2.0193,-2.0414,-2.0494,-2.0421,-2.0334,-2.0247,-2.0167,-2.0261,-2.0087,-1.988,-1.9693,-1.9566,-1.9437,-1.9424,-1.9424,-1.9424,-1.9424,-1.9424,-1.9424,-1.9424,-1.9424,-1.9424,-1.9424,-1.9424,-1.9424,-1.9424,-1.9424,-1.9424,-1.9424,-1.9424,-1.9424,-1.9424,-1.9424,-1.9424,-1.9366,-1.943,-1.945,-1.9437,-1.943,-1.9424,-1.9464,-1.9504,-1.945,-1.9533,-1.9706,-1.9813,-1.996,-2.012,-2.0254,-2.0341,-2.0354,-2.0388,-2.0454,-2.0508,-2.0628,-2.0755,-2.0715,-2.0695,-2.0842,-2.1032,-2.1294,-2.1411,-2.1475,-2.172,-2.1839,-2.275,-2.3124,-2.3435,-2.3683,-2.4594,-2.5566,-2.639,-2.7134,-2.7443,-2.7966,-2.9273,-3.0181,-3.0763,-3.1177,-3.1561,-3.1399,-3.0857,-3.127,-3.2198,-3.2637,-3.2884,-3.3087,-2.006,-1.9826,-1.9893,-1.976,-1.9506,-1.9464,-1.9484,-1.9472,-1.9464,-1.9424,-1.9424,-1.9424,-1.9424,-1.9424,-1.9424,-1.9424,-1.945,-1.945,-1.9437,-1.9444,-1.945,-1.9424,-1.9424,-1.947,-1.9571,-1.974,-1.984,-1.9967,-2.0388,-2.0368,-2.0488,-2.0548,-2.0488,-2.0441,-2.0508,-2.0388,-2.0254,-2.01,-1.984,-1.9733,-1.9512,-1.9464,-1.9424,-1.9424,-1.9424,-1.9424,-1.9424,-1.9424,-1.9424,-1.9424,-1.9424,-1.9424,-1.9424,-1.9424,-1.9424,-1.9424,-1.9424,-1.9424,-1.9424,-1.9424,-1.9424,-1.9424,-1.9424,-1.9412,-1.9472,-1.9499,-1.9566,-1.9679,-1.9659,-1.9619,-1.9613,-1.9833,-2.0027,-2.0174,-2.0274,-2.0428,-2.0561,-2.0655,-2.0621,-2.0608,-2.0695,-2.0795,-2.0835,-2.0998,-2.1589,-2.1437,-2.1137,-2.1588,-2.2298,-2.2341,-2.2285,-2.2522,-2.2882,-2.4093,-2.5367,-2.513,-2.5016,-2.6296,-2.7228,-2.7953,-2.863,-2.892,-2.9471,-3.0607,-3.1397,-3.1824,-3.1992,-3.208,-3.2051,-3.1941,-3.2419,-3.2873,-3.299,-3.317,-3.3253,-2.004,-1.9846,-2.008,-2.0034,-1.9766,-1.9492,-1.9584,-1.9693,-1.9537,-1.9424,-1.9424,-1.9424,-1.9424,-1.9424,-1.9424,-1.9424,-1.9424,-1.9424,-1.9424,-1.9424,-1.9424,-1.9424,-1.9424,-1.9464,-1.9537,-1.9726,-1.9833,-2.0067,-2.0541,-2.0501,-2.0581,-2.0635,-2.0595,-2.0695,-2.1002,-2.0802,-2.0668,-2.0568,-2.008,-1.9913,-1.9753,-1.9566,-1.9517,-1.9497,-1.9437,-1.943,-1.9424,-1.9424,-1.9424,-1.9424,-1.9424,-1.9424,-1.9424,-1.9424,-1.9424,-1.9424,-1.9424,-1.9424,-1.9424,-1.943,-1.947,-1.9491,-1.9531,-1.9546,-1.9726,-1.9813,-1.9867,-1.998,-2.0074,-2.012,-2.0113,-2.016,-2.0368,-2.0474,-2.0568,-2.0695,-2.0828,-2.0889,-2.0842,-2.0815,-2.0955,-2.1082,-2.1076,-2.1335,-2.2243,-2.2298,-2.1706,-2.209,-2.3014,-2.3566,-2.3497,-2.3683,-2.4093,-2.5192,-2.6219,-2.6167,-2.647,-2.7811,-2.8783,-2.9513,-3.0178,-3.06,-3.1279,-3.206,-3.2197,-3.2275,-3.2393,-3.251,-3.2529,-3.2607,-3.2939,-3.3257,-3.3398,-3.3418,-3.3418,-1.9599,-1.9539,-1.9826,-2.0,-2.0034,-1.9773,-1.9713,-1.974,-1.9512,-1.9424,-1.9424,-1.9424,-1.9424,-1.9424,-1.9424,-1.9424,-1.9424,-1.9424,-1.9424,-1.9424,-1.9424,-1.9424,-1.9424,-1.9437,-1.9484,-1.9546,-1.9686,-1.9846,-2.0067,-2.0274,-2.0374,-2.0401,-2.0555,-2.0722,-2.0835,-2.0828,-2.0895,-2.0695,-2.0461,-2.0301,-2.008,-1.982,-1.9653,-1.9646,-1.9499,-1.9477,-1.9457,-1.9464,-1.9457,-1.943,-1.9424,-1.9424,-1.9424,-1.9424,-1.9424,-1.943,-1.943,-1.9424,-1.9491,-1.9506,-1.9653,-1.9666,-1.9673,-1.9786,-2.0034,-2.008,-2.016,-2.0227,-2.0247,-2.024,-2.016,-2.0428,-2.0581,-2.0655,-2.0762,-2.0922,-2.1042,-2.1049,-2.1029,-2.1015,-2.1096,-2.1102,-2.1102,-2.1657,-2.2584,-2.3683,-2.3373,-2.3193,-2.3869,-2.477,-2.5192,-2.5192,-2.5558,-2.647,-2.7091,-2.7539,-2.8327,-2.9624,-3.0395,-3.0907,-3.1519,-3.1904,-3.2178,-3.249,-3.2578,-3.2656,-3.2803,-3.2959,-3.3115,-3.3291,-3.3379,-3.3418,-3.3418,-3.3418,-3.3418,-1.9579,-1.97,-1.998,-2.0207,-2.0321,-2.0074,-1.99,-1.978,-1.9593,-1.9466,-1.9406,-1.9524,-1.9517,-1.9457,-1.9424,-1.9424,-1.9424,-1.9424,-1.9424,-1.9424,-1.9424,-1.9424,-1.9424,-1.943,-1.9437,-1.9432,-1.9533,-1.9693,-1.986,-2.0,-2.0067,-2.0154,-2.0381,-2.0474,-2.0621,-2.0795,-2.1022,-2.0842,-2.0695,-2.0548,-2.0341,-2.014,-1.9953,-1.9907,-1.9793,-1.9653,-1.9559,-1.9499,-1.9466,-1.9464,-1.9424,-1.9424,-1.9424,-1.943,-1.9424,-1.943,-1.9537,-1.9558,-1.9593,-1.98,-1.9973,-2.012,-2.002,-2.01,-2.0314,-2.0381,-2.0474,-2.0521,-2.0433,-2.0514,-2.0561,-2.0775,-2.0795,-2.0869,-2.0922,-2.1082,-2.1102,-2.1102,-2.1102,-2.1102,-2.1102,-2.1102,-2.1348,-2.209,-2.2889,-2.4108,-2.52,-2.5101,-2.5117,-2.6095,-2.6944,-2.6952,-2.7427,-2.8451,-2.9122,-2.9444,-3.0345,-3.151,-3.1816,-3.1904,-3.2168,-3.2393,-3.2656,-3.2881,-3.2959,-3.3066,-3.3252,-3.3389,-3.3359,-3.3359,-3.3398,-3.3418,-3.3418,-3.3418,-3.3418,-1.9947,-2.0241,-2.0521,-2.0595,-2.0575,-2.0261,-2.002,-1.9786,-1.978,-1.9626,-1.945,-1.9633,-1.9579,-1.945,-1.9424,-1.9424,-1.9424,-1.9424,-1.9464,-1.945,-1.945,-1.945,-1.9457,-1.945,-1.943,-1.943,-1.9531,-1.9666,-1.9793,-1.9947,-1.994,-1.9993,-2.0287,-2.0421,-2.0615,-2.0842,-2.1062,-2.0982,-2.0869,-2.0762,-2.0635,-2.0408,-2.0274,-2.0207,-2.0127,-1.9947,-1.9826,-1.9733,-1.9586,-1.9472,-1.9424,-1.9424,-1.943,-1.9437,-1.9437,-1.9544,-1.9706,-1.978,-1.986,-2.008,-2.0307,-2.0454,-2.0408,-2.0474,-2.0581,-2.0695,-2.0762,-2.0869,-2.0909,-2.0975,-2.1056,-2.1049,-2.1036,-2.1056,-2.1056,-2.1102,-2.1102,-2.1102,-2.1102,-2.1102,-2.1102,-2.1229,-2.1853,-2.2529,-2.3636,-2.5309,-2.6684,-2.7695,-2.7773,-2.8048,-2.8727,-2.8855,-2.9476,-3.0629,-3.1032,-3.0938,-3.1267,-3.2109,-3.2197,-3.2305,-3.2588,-3.2812,-3.2978,-3.3154,-3.331,-3.3418,-3.3418,-3.3418,-3.3408,-3.3418,-3.3418,-3.3418,-3.3418,-3.3418,-3.3418,-1.9539,-1.9646,-1.9933,-2.0047,-2.004,-1.9967,-1.976,-1.9533,-1.9693,-1.9639,-1.943,-1.9517,-1.9472,-1.9424,-1.9424,-1.9424,-1.9424,-1.9457,-1.9526,-1.9519,-1.9491,-1.9584,-1.9591,-1.9524,-1.9457,-1.9491,-1.9546,-1.9659,-1.9813,-1.994,-2.0207,-2.0441,-2.0434,-2.0595,-2.0788,-2.1015,-2.1069,-2.1082,-2.0989,-2.0955,-2.0889,-2.0681,-2.0588,-2.0521,-2.0381,-2.0174,-1.996,-1.9873,-1.9706,-1.9472,-1.9457,-1.9437,-1.9424,-1.9559,-1.9726,-1.9973,-2.002,-2.0114,-2.0154,-2.0381,-2.0595,-2.0728,-2.0748,-2.0882,-2.0962,-2.0975,-2.1009,-2.1069,-2.1102,-2.1102,-2.1102,-2.1102,-2.1102,-2.1102,-2.1102,-2.1102,-2.1102,-2.1102,-2.1102,-2.1102,-2.1102,-2.172,-2.2285,-2.3201,-2.4432,-2.638,-2.8057,-2.9241,-2.997,-3.015,-3.0219,-3.0357,-3.067,-3.1581,-3.1807,-3.1781,-3.2114,-3.249,-3.2588,-3.2725,-3.2978,-3.3184,-3.3291,-3.335,-3.3398,-3.3418,-3.3418,-3.3418,-3.3418,-3.3418,-3.3418,-3.3418,-3.3418,-3.3418,-3.3418,-1.9539,-1.9579,-1.9853,-1.9913,-1.9813,-1.9806,-1.9633,-1.9452,-1.9673,-1.9639,-1.9406,-1.9499,-1.9472,-1.943,-1.9424,-1.9424,-1.9424,-1.943,-1.9446,-1.9472,-1.9511,-1.9486,-1.9499,-1.9537,-1.945,-1.9504,-1.9512,-1.9566,-1.972,-1.9913,-2.016,-2.0261,-2.0488,-2.0762,-2.0902,-2.1002,-2.1089,-2.1102,-2.1096,-2.1102,-2.1029,-2.0935,-2.0882,-2.0795,-2.0615,-2.0408,-2.016,-2.012,-1.9973,-1.9753,-1.9713,-1.9713,-1.9726,-1.9907,-2.0,-2.0147,-2.0354,-2.0388,-2.0454,-2.0681,-2.0802,-2.0882,-2.0995,-2.1049,-2.1076,-2.1069,-2.1082,-2.1102,-2.1102,-2.1102,-2.1102,-2.1102,-2.1102,-2.1102,-2.1102,-2.1102,-2.1102,-2.1102,-2.1102,-2.1102,-2.1475,-2.209,-2.2889,-2.3869,-2.5357,-2.7531,-2.924,-3.0398,-3.105,-3.1337,-3.1337,-3.1407,-3.1692,-3.2119,-3.2275,-3.2432,-3.2646,-3.2861,-3.3008,-3.3164,-3.3398,-3.3408,-3.3379,-3.3389,-3.3408,-3.3418,-3.3418,-3.3418,-3.3418,-3.3418,-3.3418,-3.3418,-3.3418,-3.3418,-3.3418,-1.9753,-1.9766,-2.0054,-1.996,-1.978,-1.9746,-1.9599,-1.9412,-1.9633,-1.9613,-1.9446,-1.9626,-1.9579,-1.945,-1.9424,-1.9424,-1.9424,-1.943,-1.9484,-1.945,-1.945,-1.9439,-1.9486,-1.9386,-1.943,-1.9424,-1.945,-1.9517,-1.9479,-1.97,-1.9907,-1.986,-2.0401,-2.0742,-2.0862,-2.1022,-2.1102,-2.1102,-2.1102,-2.1102,-2.1102,-2.1089,-2.1102,-2.1082,-2.1015,-2.0929,-2.0715,-2.0601,-2.0541,-2.0327,-2.014,-2.0174,-2.0241,-2.0247,-2.0281,-2.0408,-2.0615,-2.0681,-2.0748,-2.0915,-2.1009,-2.1062,-2.1102,-2.1102,-2.1102,-2.1102,-2.1102,-2.1102,-2.1102,-2.1102,-2.1102,-2.1102,-2.1102,-2.1102,-2.1102,-2.1102,-2.1102,-2.1292,-2.1664,-2.1846,-2.2514,-2.3193,-2.4139,-2.5256,-2.7105,-2.9095,-3.0484,-3.1622,-3.1949,-3.2236,-3.2236,-3.2246,-3.2461,-3.2627,-3.2734,-3.2891,-3.3027,-3.3213,-3.331,-3.3359,-3.3408,-3.3418,-3.3418,-3.3418,-3.3418,-3.3418,-3.3418,-3.3418,-3.3418,-3.3418,-3.3418,-3.3418,-3.3418,-3.3418,-3.3418,-1.9472,-1.9472,-1.9546,-1.9526,-1.9472,-1.9531,-1.9439,-1.943,-1.9491,-1.9439,-1.945,-1.9432,-1.9452,-1.9444,-1.9424,-1.9424,-1.9424,-1.9437,-1.9564,-1.9506,-1.9466,-1.9517,-1.9579,-1.9432,-1.9444,-1.9424,-1.9424,-1.943,-1.9491,-1.9646,-1.9933,-2.014,-2.0528,-2.0742,-2.0949,-2.1102,-2.1102,-2.1102,-2.1102,-2.1102,-2.1102,-2.1102,-2.1102,-2.1102,-2.1076,-2.0975,-2.0795,-2.0688,-2.0508,-2.0287,-2.0241,-2.0341,-2.0548,-2.0568,-2.0688,-2.0855,-2.0915,-2.0942,-2.0982,-2.1042,-2.1089,-2.1102,-2.1102,-2.1102,-2.1102,-2.1102,-2.1102,-2.1102,-2.1102,-2.1102,-2.1102,-2.1102,-2.1102,-2.1102,-2.1102,-2.1102,-2.1102,-2.1664,-2.216,-2.2952,-2.3675,-2.451,-2.5464,-2.701,-2.8929,-3.0433,-3.1644,-3.2516,-3.2614,-3.2793,-3.2744,-3.2783,-3.3018,-3.3174,-3.3213,-3.3193,-3.3262,-3.3301,-3.3369,-3.3398,-3.3418,-3.3418,-3.3418,-3.3418,-3.3418,-3.3418,-3.3418,-3.3418,-3.3418,-3.3418,-3.3418,-3.3418,-3.3418,-3.3418,-3.3418,-1.9424,-1.9424,-1.9424,-1.9424,-1.9424,-1.9424,-1.9424,-1.9424,-1.9424,-1.9424,-1.9424,-1.9424,-1.9424,-1.9424,-1.9424,-1.9424,-1.9424,-1.9424,-1.9484,-1.9479,-1.9499,-1.9531,-1.9524,-1.9511,-1.9457,-1.9424,-1.9424,-1.9437,-1.9477,-1.9659,-1.9947,-2.0241,-2.0528,-2.0808,-2.1062,-2.1102,-2.1102,-2.1102,-2.1102,-2.1102,-2.1102,-2.1102,-2.1102,-2.1102,-2.1069,-2.0982,-2.0962,-2.0869,-2.0782,-2.0668,-2.0661,-2.0702,-2.0842,-2.0869,-2.0942,-2.1029,-2.1076,-2.1102,-2.1102,-2.1102,-2.1102,-2.1102,-2.1102,-2.1102,-2.1102,-2.1102,-2.1102,-2.1102,-2.1102,-2.1102,-2.1102,-2.1102,-2.1102,-2.1102,-2.1229,-2.1355,-2.1538,-2.1915,-2.3076,-2.4525,-2.505,-2.538,-2.6512,-2.8079,-2.9932,-3.1426,-3.2653,-3.2939,-3.3086,-3.3164,-3.3154,-3.3184,-3.333,-3.3398,-3.334,-3.333,-3.3369,-3.3408,-3.3418,-3.3418,-3.3418,-3.3418,-3.3418,-3.3418,-3.3418,-3.3418,-3.3418,-3.3418,-3.3418,-3.3418,-3.3418,-3.3418,-3.3418,-3.3418,-3.3418,-1.9424,-1.9424,-1.9424,-1.9424,-1.9424,-1.9424,-1.9424,-1.9424,-1.9424,-1.9424,-1.9424,-1.9424,-1.9424,-1.9424,-1.9424,-1.9424,-1.9424,-1.9424,-1.945,-1.945,-1.9444,-1.9464,-1.9464,-1.943,-1.9424,-1.9424,-1.9424,-1.943,-1.9444,-1.9666,-1.9953,-2.0241,-2.0528,-2.0822,-2.1022,-2.1102,-2.1102,-2.1102,-2.1102,-2.1102,-2.1102,-2.1102,-2.1102,-2.1102,-2.1102,-2.1102,-2.1102,-2.1102,-2.1096,-2.1069,-2.1002,-2.1015,-2.1022,-2.1042,-2.1056,-2.1102,-2.1102,-2.1102,-2.1102,-2.1102,-2.1102,-2.1102,-2.1102,-2.1102,-2.1102,-2.1102,-2.1102,-2.1102,-2.1102,-2.1102,-2.1102,-2.1102,-2.1102,-2.1285,-2.1538,-2.1734,-2.1985,-2.2487,-2.4131,-2.5782,-2.6212,-2.6513,-2.7794,-2.9393,-3.0773,-3.2295,-3.293,-3.3125,-3.3271,-3.3291,-3.3301,-3.3301,-3.3369,-3.3408,-3.3418,-3.3418,-3.3418,-3.3418,-3.3418,-3.3418,-3.3418,-3.3418,-3.3418,-3.3418,-3.3418,-3.3418,-3.3418,-3.3418,-3.3418,-3.3418,-3.3418,-3.3418,-3.3418,-3.3418,-3.3418,-1.9424,-1.9424,-1.9424,-1.9424,-1.9424,-1.9424,-1.9424,-1.9424,-1.9424,-1.9424,-1.9424,-1.9424,-1.9424,-1.9424,-1.9424,-1.9424,-1.9424,-1.9424,-1.9424,-1.943,-1.9424,-1.9424,-1.9424,-1.9424,-1.9424,-1.9424,-1.9424,-1.9424,-1.947,-1.9659,-1.9947,-2.0234,-2.0528,-2.0808,-2.1049,-2.1102,-2.1102,-2.1102,-2.1102,-2.1102,-2.1102,-2.1102,-2.1102,-2.1102,-2.1102,-2.1102,-2.1102,-2.1102,-2.1102,-2.1102,-2.1102,-2.1102,-2.1102,-2.1102,-2.1102,-2.1102,-2.1102,-2.1102,-2.1102,-2.1102,-2.1102,-2.1102,-2.1102,-2.1102,-2.1102,-2.1102,-2.1102,-2.1102,-2.1102,-2.1102,-2.1102,-2.1102,-2.1102,-2.172,-2.2097,-2.2306,-2.2509,-2.3835,-2.5467,-2.6614,-2.735,-2.8085,-2.927,-3.0668,-3.1865,-3.2949,-3.3135,-3.331,-3.335,-3.3389,-3.3418,-3.3418,-3.3418,-3.3418,-3.3418,-3.3418,-3.3418,-3.3418,-3.3418,-3.3418,-3.3418,-3.3418,-3.3418,-3.3418,-3.3418,-3.3418,-3.3418,-3.3418,-3.3418,-3.3418,-3.3418,-3.3418,-3.3418,-3.3418,-3.3418]},{"header":{"parameterUnit":"m.s-1","parameterCategory":1,"la1":31.0,"la2":29.5877,"lo1":-88.7671,"lo2":-86.6584,"dy":0.0162,"dx":0.0185,"nx":115,"ny":88,"refTime":"2026-04-03T00:00:00:Z","depth":0,"parameterNumber":3,"parameterNumberName":"V-component_of_WINDS"},"data":[0.0,0.0,0.0,0.0,0.0,0.0,0.0,0.0,0.0,0.0,0.0,0.0,0.0,0.0,0.0,0.0,0.0,0.0,0.0,0.0,0.0,0.0,0.0,0.0,0.0,0.0,0.0,0.0,0.0,0.0,0.0,0.0,0.0,0.0,0.0,0.0,0.0,0.0,0.0,0.0,0.0,0.0,0.0,0.0,0.0,0.0,0.0,0.0,0.0,0.0,0.0,0.0,0.0,0.0,0.0,0.0,0.0,0.0,0.0,0.0,0.0,0.0,0.0,0.0,0.0,0.0,0.0,0.0,0.0,0.0,0.0,0.0,0.0,0.0,0.0,0.0,0.0,0.0,0.0,0.0,0.0,0.0,0.0,0.0,0.0,0.0,0.0,0.0,0.0,0.0,0.0,0.0,0.0,0.0,0.0,0.0,0.0,0.0,0.0,0.0,0.0,0.0,0.0,0.0,0.0,0.0,0.0,0.0,0.0,0.0,0.0,0.0,0.0,0.0,0.0,0.0,0.0,0.0,0.0,0.0,0.0,0.0,0.0,0.0,0.0,0.0,0.0,0.0,0.0,0.0,0.0,0.0,0.0,0.0,0.0,0.0,0.0,0.0,0.0,0.0,0.0,0.0,0.0,0.0,0.0,0.0,0.0,0.0,0.0,0.0,0.0,0.0,0.0,0.0,0.0,0.0,0.0,0.0,0.0,0.0,0.0,0.0,0.0,0.0,0.0,0.0,0.0,0.0,0.0,0.0,0.0,0.0,0.0,0.0,0.0,0.0,0.0,0.0,0.0,0.0,0.0,0.0,0.0,0.0,0.0,0.0,0.0,0.0,0.0,0.0,0.0,0.0,0.0,0.0,0.0,0.0,0.0,0.0,0.0,0.0,0.0,0.0,0.0,0.0,0.0,0.0,0.0,0.0,0.0,0.0,0.0,0.0,0.0,0.0,0.0,0.0,0.0,0.0,0.0,0.0,0.0,0.0,0.0,0.0,0.0,0.0,0.0,0.0,0.0,0.0,0.0,0.0,0.0,0.0,0.0,0.0,0.0,0.0,0.0,0.0,0.0,0.0,0.0,0.0,0.0,0.0,0.0,0.0,0.0,0.0,0.0,0.0,0.0,0.0,0.0,0.0,0.0,0.0,0.0,0.0,0.0,0.0,0.0,0.0,0.0,0.0,0.0,0.0,0.0,0.0,0.0,0.0,0.0,0.0,0.0,0.0,0.0,0.0,0.0,0.0,0.0,0.0,0.0,0.0,0.0,0.0,0.0,0.0,0.0,0.0,0.0,0.0,0.0,0.0,0.0,0.0,0.0,0.0,0.0,0.0,0.0,0.0,0.0,0.0,0.0,0.0,0.0,0.0,0.0,0.0,0.0,0.0,0.0,0.0,0.0,0.0,0.0,0.0,0.0,0.0,0.0,0.0,0.0,0.0,0.0,0.0,0.0,0.0,0.0,0.0,0.0,0.0,0.0,0.0,0.0,0.0,0.0,0.0,0.0,0.0,0.0,0.0,0.0,0.0,0.0,0.0,0.0,0.0,0.0,0.0,0.0,0.0,0.0,0.0,0.0,0.0,0.0,0.0,0.0,0.0,0.0,0.0,0.0,0.0,0.0,0.0,0.0,0.0,0.0,0.0,0.0,0.0,0.0,0.0,0.0,0.0,0.0,0.0,0.0,0.0,0.0,0.0,0.0,0.0,0.0,0.0,0.0,0.0,0.0,0.0,0.0,0.0,0.0,0.0,0.0,0.0,0.0,0.0,0.0,0.0,0.0,0.0,0.0,0.0,0.0,0.0,0.0,0.0,0.0,0.0,0.0,0.0,0.0,0.0,0.0,0.0,0.0,0.0,0.0,0.0,0.0,0.0,0.0,0.0,0.0,0.0,0.0,0.0,0.0,0.0,0.0,0.0,0.0,0.0,0.0,0.0,0.0,0.0,0.0,0.0,0.0,0.0,0.0,0.0,0.0,0.0,0.0,0.0,0.0,0.0,0.0,0.0,0.0,0.0,0.0,0.0,0.0,0.0,0.0,0.0,0.0,0.0,0.0,0.0,0.0,0.0,0.0,0.0,0.0,0.0,0.0,0.0,0.0,0.0,0.0,0.0,0.0,0.0,0.0,0.0,0.0,0.0,0.0,0.0,0.0,0.0,0.0,0.0,0.0,0.0,0.0,0.0,0.0,0.0,0.0,0.0,0.0,0.0,0.0,0.0,0.0,0.0,0.0,0.0,0.0,0.0,0.0,0.0,0.0,0.0,0.0,0.0,0.0,0.0,0.0,0.0,0.0,0.0,0.0,0.0,0.0,0.0,0.0,0.0,0.0,0.0,0.0,0.0,0.0,0.0,0.0,0.0,0.0,0.0,0.0,0.0,0.0,0.0,0.0,0.0,0.0,0.0,0.0,0.0,0.0,0.0,0.0,0.0,0.0,0.0,0.0,0.0,0.0,0.0,0.0,0.0,0.0,0.0,0.0,0.0,0.0,0.0,0.0,0.0,0.0,0.0,0.0,0.0,0.0,0.0,0.0,0.0,0.0,0.0,0.0,0.0,0.0,0.0,0.0,0.0,0.0,0.0,0.0,0.0,0.0,0.0,0.0,0.0,0.0,0.0,0.0,0.0,0.0,0.0,0.0,0.0,0.0,0.0,0.0,0.0,0.0,0.0,0.0,0.0,0.0,0.0,0.0,0.0,0.0,0.0,0.0,0.0,0.0,0.0,0.0,0.0,0.0,0.0,0.0,0.0,0.0,0.0,0.0,0.0,0.0,0.0,0.0,0.0,0.0,0.0,0.0,0.0,0.0,0.0,0.0,0.0,0.0,0.0,0.0,0.0,0.0,0.0,0.0,0.0,0.0,0.0,0.0,0.0,0.0,0.0,0.0,0.0,0.0,0.0,0.0,0.0,0.0,0.0,0.0,0.0,0.0,0.0,0.0,0.0,0.0,0.0,0.0,0.0,0.0,0.0,0.0,0.0,0.0,0.0,0.0,0.0,0.0,0.0,0.0,0.0,0.0,0.0,0.0,0.0,0.0,0.0,0.0,0.0,0.0,0.0,0.0,0.0,0.0,0.0,0.0,0.0,0.0,0.0,0.0,0.0,0.0,0.0,0.0,0.0,0.0,0.0,0.0,0.0,0.0,0.0,0.0,0.0,0.0,0.0,0.0,0.0,0.0,0.0,0.0,0.0,0.0,0.0,0.0,0.0,0.0,0.0,0.0,0.0,0.0,0.0,0.0,0.0,0.0,0.0,0.0,0.0,0.0,0.0,0.0,0.0,0.0,0.0,0.0,0.0,0.0,0.0,0.0,0.0,0.0,0.0,0.0,0.0,0.0,0.0,0.0,0.0,0.0,0.0,0.0,0.0,0.0,0.0,0.0,0.0,0.0,0.0,0.0,0.0,0.0,0.0,0.0,0.0,0.0,0.0,0.0,0.0,0.0,0.0,0.0,0.0,0.0,0.0,0.0,0.0,0.0,0.0,0.0,0.0,0.0,0.0,0.0,0.0,0.0,0.0,0.0,0.0,0.0,0.0,0.0,0.0,0.0,0.0,0.0,0.0,0.0,0.0,0.0,0.0,0.0,0.0,0.0,0.0,0.0,0.0,0.0,0.0,0.0,0.0,0.0,0.0,0.0,0.0,0.0,0.0,0.0,0.0,0.0,0.0,0.0,0.0,0.0,0.0,0.0,0.0,0.0,0.0,0.0,0.0,0.0,0.0,0.0,0.0,0.0,0.0,0.0,0.0,0.0,0.0,0.0,0.0,0.0,0.0,0.0,0.0,0.0,0.0,0.0,0.0,0.0,0.0,0.0,0.0,0.0,0.0,0.0,0.0,0.0,0.0,0.0,0.0,0.0,0.0,0.0,0.0,0.0,0.0,0.0,0.0,0.0,0.0,0.0,0.0,0.0,0.0,0.0,0.0,0.0,0.0,0.0,0.0,0.0,0.0,0.0,0.0,0.0,0.0,0.0,0.0,0.0,0.0,0.0,0.0,0.0,0.0,0.0,0.0,0.0,0.0,0.0,0.0,0.0,0.0,0.0,0.0,0.0,0.0,0.0,0.0,0.0,0.0,0.0,0.0,0.0,0.0,0.0,0.0,0.0,0.0,0.0,0.0,0.0,0.0,0.0,0.0,0.0,0.0,0.0,0.0,0.0,0.0,0.0,0.0,0.0,0.0,0.0,0.0,0.0,0.0,0.0,0.0,0.0,0.0,0.0,0.0,0.0,0.0,0.0,0.0,0.0,0.0,0.0,0.0,0.0,0.0,0.0,0.0,2.305,0.0,0.0,0.0,0.0,0.0,0.0,0.0,0.0,0.0,0.0,0.0,0.0,0.0,0.0,0.0,0.0,0.0,0.0,0.0,0.0,0.0,0.0,0.0,0.0,0.0,0.0,0.0,0.0,0.0,0.0,0.0,0.0,0.0,0.0,0.0,0.0,0.0,0.0,0.0,0.0,0.0,0.0,0.0,0.0,0.0,0.0,0.0,0.0,0.0,0.0,0.0,0.0,0.0,0.0,0.0,0.0,0.0,0.0,0.0,0.0,0.0,0.0,0.0,0.0,0.0,0.0,0.0,0.0,0.0,0.0,0.0,0.0,0.0,0.0,0.0,0.0,0.0,0.0,0.0,0.0,0.0,0.0,0.0,0.0,0.0,0.0,0.0,0.0,0.0,0.0,0.0,0.0,0.0,0.0,0.0,0.0,0.0,0.0,0.0,0.0,0.0,0.0,0.0,0.0,0.0,0.0,0.0,0.0,0.0,0.0,2.5234,2.5234,2.4732,2.4368,2.4215,0.0,0.0,0.0,0.0,0.0,0.0,0.0,0.0,0.0,0.0,0.0,0.0,0.0,0.0,0.0,0.0,0.0,0.0,0.0,0.0,0.0,0.0,0.0,0.0,0.0,0.0,0.0,0.0,0.0,0.0,0.0,0.0,0.0,0.0,0.0,0.0,0.0,0.0,0.0,0.0,0.0,0.0,0.0,0.0,0.0,0.0,0.0,0.0,0.0,0.0,0.0,0.0,0.0,0.0,0.0,0.0,0.0,0.0,0.0,0.0,0.0,0.0,0.0,0.0,0.0,0.0,0.0,0.0,0.0,0.0,0.0,0.0,0.0,0.0,0.0,0.0,0.0,0.0,0.0,0.0,0.0,0.0,0.0,0.0,0.0,0.0,0.0,0.0,0.0,0.0,0.0,0.0,0.0,0.0,0.0,0.0,0.0,0.0,0.0,0.0,0.0,0.0,0.0,0.0,0.0,0.0,0.0,0.0,0.0,0.0,0.0,0.0,2.5096,2.4847,2.4957,0.0,0.0,0.0,0.0,0.0,0.0,0.0,0.0,0.0,0.0,0.0,0.0,0.0,0.0,0.0,0.0,0.0,0.0,0.0,0.0,0.0,0.0,0.0,0.0,0.0,0.0,0.0,0.0,0.0,0.0,0.0,0.0,0.0,0.0,0.0,0.0,0.0,0.0,0.0,0.0,0.0,0.0,0.0,0.0,0.0,0.0,0.0,0.0,0.0,0.0,0.0,0.0,0.0,0.0,0.0,0.0,0.0,0.0,0.0,0.0,0.0,0.0,0.0,0.0,0.0,0.0,0.0,0.0,0.0,0.0,0.0,0.0,0.0,0.0,0.0,0.0,0.0,0.0,0.0,0.0,0.0,0.0,0.0,0.0,0.0,0.0,0.0,0.0,0.0,0.0,0.0,0.0,0.0,0.0,0.0,0.0,0.0,0.0,0.0,0.0,0.0,0.0,0.0,0.0,0.0,0.0,0.0,0.0,0.0,0.0,2.5121,2.5573,2.5084,0.0,2.4505,0.0,0.0,0.0,0.0,0.0,0.0,0.0,0.0,0.0,0.0,0.0,0.0,0.0,0.0,0.0,0.0,0.0,0.0,0.0,0.0,0.0,0.0,0.0,0.0,0.0,0.0,0.0,0.0,0.0,0.0,0.0,0.0,0.0,0.0,0.0,0.0,0.0,0.0,0.0,0.0,0.0,0.0,0.0,0.0,0.0,0.0,0.0,0.0,0.0,0.0,0.0,0.0,0.0,0.0,0.0,0.0,0.0,0.0,0.0,0.0,0.0,0.0,0.0,0.0,0.0,0.0,0.0,0.0,0.0,0.0,0.0,0.0,0.0,0.0,0.0,0.0,0.0,0.0,0.0,0.0,0.0,0.0,0.0,0.0,0.0,0.0,0.0,0.0,0.0,0.0,0.0,0.0,0.0,0.0,0.0,0.0,0.0,0.0,0.0,0.0,0.0,0.0,0.0,0.0,0.0,0.0,0.0,0.0,0.0,0.0,2.5234,2.5114,2.5057,2.445,0.0,0.0,0.0,0.0,0.0,0.0,0.0,0.0,0.0,0.0,0.0,0.0,0.0,0.0,0.0,0.0,0.0,0.0,0.0,0.0,0.0,0.0,0.0,0.0,0.0,0.0,0.0,0.0,0.0,0.0,0.0,0.0,0.0,0.0,0.0,0.0,0.0,0.0,0.0,0.0,0.0,0.0,0.0,0.0,0.0,0.0,0.0,0.0,0.0,0.0,0.0,0.0,0.0,0.0,0.0,0.0,0.0,0.0,0.0,0.0,0.0,0.0,0.0,0.0,0.0,0.0,0.0,0.0,0.0,0.0,0.0,0.0,0.0,0.0,0.0,0.0,0.0,0.0,0.0,0.0,0.0,0.0,0.0,0.0,0.0,0.0,0.0,0.0,0.0,0.0,0.0,0.0,0.0,0.0,0.0,0.0,0.0,0.0,0.0,0.0,0.0,0.0,0.0,0.0,0.0,0.0,0.0,0.0,0.0,0.0,2.5548,2.5197,2.4815,2.4695,2.3994,2.2738,0.0,0.0,0.0,0.0,0.0,0.0,0.0,0.0,0.0,0.0,0.0,0.0,0.0,0.0,0.0,0.0,0.0,0.0,0.0,0.0,0.0,0.0,0.0,0.0,0.0,0.0,0.0,0.0,0.0,0.0,0.0,0.0,0.0,0.0,0.0,0.0,0.0,0.0,0.0,0.0,0.0,0.0,0.0,0.0,0.0,0.0,0.0,0.0,0.0,0.0,0.0,0.0,0.0,0.0,0.0,0.0,0.0,0.0,0.0,0.0,0.0,0.0,0.0,0.0,0.0,0.0,0.0,0.0,0.0,0.0,0.0,0.0,0.0,0.0,0.0,0.0,0.0,0.0,0.0,0.0,0.0,0.0,0.0,0.0,0.0,0.0,0.0,0.0,0.0,0.0,0.0,0.0,0.0,0.0,0.0,0.0,0.0,0.0,0.0,0.0,0.0,0.0,0.0,0.0,0.0,0.0,0.0,0.0,2.6348,2.5372,2.48,2.4782,2.3764,2.3269,0.0,0.0,0.0,0.0,0.0,0.0,0.0,0.0,0.0,0.0,0.0,0.0,0.0,0.0,0.0,0.0,0.0,0.0,0.0,0.0,0.0,0.0,0.0,0.0,0.0,0.0,0.0,0.0,0.0,0.0,0.0,0.0,0.0,0.0,0.0,0.0,0.0,0.0,0.0,0.0,0.0,0.0,0.0,0.0,0.0,0.0,0.0,0.0,0.0,0.0,0.0,0.0,0.0,0.0,0.0,0.0,0.0,0.0,0.0,0.0,0.0,0.0,0.0,0.0,0.0,0.0,0.0,0.0,0.0,0.0,0.0,0.0,0.0,0.0,0.0,0.0,0.0,0.0,0.0,0.0,0.0,0.0,0.0,0.0,0.0,0.0,0.0,0.0,0.0,0.0,0.0,0.0,0.0,0.0,0.0,0.0,0.0,0.0,0.0,0.0,0.0,0.0,0.0,0.0,0.0,0.0,0.0,0.0,0.0,2.487,2.4111,2.412,2.4908,2.3905,2.3554,0.0,0.0,0.0,0.0,0.0,0.0,0.0,0.0,0.0,0.0,0.0,0.0,0.0,0.0,0.0,0.0,0.0,0.0,0.0,0.0,0.0,0.0,0.0,0.0,0.0,0.0,0.0,0.0,0.0,0.0,0.0,0.0,0.0,0.0,0.0,0.0,0.0,0.0,0.0,0.0,0.0,0.0,0.0,0.0,0.0,0.0,0.0,0.0,0.0,0.0,0.0,0.0,0.0,0.0,0.0,0.0,0.0,0.0,0.0,0.0,0.0,0.0,0.0,0.0,0.0,0.0,0.0,0.0,0.0,0.0,0.0,0.0,0.0,0.0,0.0,0.0,0.0,0.0,0.0,0.0,0.0,0.0,0.0,0.0,0.0,0.0,0.0,0.0,0.0,0.0,0.0,0.0,0.0,0.0,0.0,0.0,0.0,0.0,0.0,0.0,0.0,0.0,0.0,0.0,0.0,0.0,0.0,0.0,0.0,2.4029,0.0,2.4012,2.4676,2.3871,2.3624,0.0,0.0,0.0,0.0,0.0,0.0,0.0,0.0,0.0,0.0,0.0,0.0,0.0,0.0,0.0,0.0,0.0,0.0,0.0,0.0,0.0,0.0,0.0,0.0,0.0,0.0,0.0,0.0,0.0,0.0,0.0,0.0,0.0,0.0,0.0,0.0,0.0,0.0,0.0,0.0,0.0,0.0,0.0,0.0,0.0,0.0,0.0,0.0,0.0,0.0,0.0,0.0,0.0,0.0,0.0,0.0,0.0,0.0,0.0,0.0,0.0,0.0,0.0,0.0,0.0,0.0,0.0,0.0,0.0,0.0,0.0,0.0,0.0,0.0,0.0,0.0,0.0,0.0,0.0,0.0,0.0,0.0,0.0,0.0,0.0,0.0,0.0,0.0,0.0,0.0,0.0,0.0,0.0,0.0,0.0,0.0,0.0,0.0,0.0,0.0,0.0,0.0,0.0,0.0,0.0,0.0,0.0,0.0,2.4608,2.406,2.4545,2.4608,2.4054,2.3657,2.3405,0.0,0.0,0.0,0.0,0.0,0.0,0.0,0.0,0.0,0.0,0.0,0.0,0.0,0.0,0.0,0.0,0.0,0.0,0.0,0.0,0.0,0.0,0.0,0.0,0.0,0.0,0.0,0.0,0.0,0.0,0.0,0.0,0.0,0.0,0.0,0.0,0.0,0.0,0.0,0.0,0.0,0.0,0.0,0.0,0.0,0.0,0.0,0.0,0.0,0.0,0.0,0.0,0.0,0.0,0.0,0.0,0.0,0.0,0.0,0.0,0.0,0.0,0.0,0.0,0.0,0.0,0.0,0.0,0.0,0.0,0.0,0.0,0.0,0.0,0.0,0.0,0.0,0.0,0.0,0.0,0.0,0.0,0.0,0.0,0.0,0.0,0.0,0.0,0.0,0.0,0.0,0.0,0.0,0.0,0.0,0.0,0.0,0.0,0.0,0.0,0.0,0.0,0.0,0.0,0.0,0.0,0.0,0.0,0.0,2.5018,2.5571,2.577,2.5526,2.5067,2.5006,0.0,0.0,0.0,0.0,0.0,0.0,0.0,0.0,0.0,0.0,0.0,0.0,0.0,0.0,0.0,0.0,0.0,0.0,0.0,0.0,0.0,0.0,0.0,0.0,0.0,0.0,0.0,0.0,0.0,0.0,0.0,0.0,0.0,0.0,0.0,0.0,0.0,0.0,0.0,0.0,0.0,0.0,0.0,0.0,0.0,0.0,0.0,0.0,0.0,0.0,0.0,0.0,0.0,0.0,0.0,0.0,0.0,0.0,0.0,0.0,0.0,0.0,0.0,0.0,0.0,0.0,0.0,0.0,0.0,0.0,0.0,0.0,0.0,0.0,0.0,0.0,0.0,0.0,0.0,0.0,0.0,0.0,0.0,0.0,0.0,0.0,0.0,0.0,0.0,0.0,0.0,0.0,0.0,0.0,0.0,0.0,0.0,0.0,0.0,0.0,0.0,0.0,0.0,0.0,0.0,0.0,0.0,0.0,0.0,2.734,2.7142,2.6906,2.6613,2.6378,2.6167,2.6,0.0,0.0,0.0,0.0,0.0,0.0,0.0,0.0,0.0,0.0,0.0,0.0,0.0,0.0,0.0,0.0,0.0,0.0,0.0,0.0,0.0,0.0,0.0,0.0,0.0,0.0,0.0,0.0,0.0,0.0,0.0,0.0,0.0,0.0,0.0,0.0,0.0,0.0,0.0,0.0,0.0,0.0,0.0,0.0,0.0,0.0,0.0,0.0,0.0,0.0,0.0,0.0,0.0,0.0,0.0,0.0,0.0,0.0,0.0,0.0,0.0,0.0,0.0,0.0,0.0,0.0,0.0,0.0,0.0,0.0,0.0,0.0,0.0,0.0,0.0,0.0,0.0,0.0,0.0,0.0,0.0,0.0,0.0,0.0,0.0,0.0,0.0,0.0,0.0,0.0,0.0,0.0,0.0,0.0,0.0,0.0,0.0,0.0,0.0,0.0,0.0,0.0,0.0,0.0,0.0,0.0,0.0,0.0,3.0717,2.9298,2.8268,2.7569,2.7583,2.7037,0.0,0.0,0.0,0.0,0.0,0.0,0.0,0.0,0.0,0.0,0.0,0.0,0.0,0.0,0.0,0.0,0.0,0.0,0.0,0.0,0.0,0.0,0.0,0.0,0.0,0.0,0.0,0.0,0.0,0.0,0.0,0.0,0.0,0.0,0.0,0.0,0.0,0.0,0.0,0.0,0.0,0.0,0.0,0.0,0.0,0.0,0.0,0.0,0.0,0.0,0.0,0.0,0.0,0.0,0.0,0.0,0.0,0.0,0.0,0.0,0.0,0.0,0.0,0.0,0.0,0.0,0.0,0.0,0.0,0.0,0.0,0.0,0.0,0.0,0.0,0.0,0.0,0.0,0.0,0.0,0.0,0.0,0.0,0.0,0.0,0.0,0.0,0.0,0.0,0.0,0.0,0.0,0.0,0.0,0.0,0.0,0.0,0.0,0.0,0.0,0.0,0.0,0.0,0.0,0.0,0.0,0.0,0.0,0.0,3.3335,3.3071,3.2015,3.0242,2.9432,2.8824,0.0,0.0,0.0,0.0,0.0,0.0,0.0,0.0,0.0,0.0,0.0,0.0,0.0,0.0,0.0,0.0,0.0,0.0,0.0,0.0,0.0,0.0,0.0,0.0,0.0,0.0,0.0,0.0,0.0,0.0,0.0,0.0,0.0,0.0,0.0,0.0,0.0,0.0,0.0,0.0,0.0,0.0,0.0,0.0,0.0,0.0,0.0,0.0,0.0,0.0,0.0,0.0,0.0,0.0,0.0,0.0,0.0,0.0,0.0,0.0,0.0,0.0,0.0,0.0,0.0,0.0,0.0,0.0,0.0,0.0,0.0,0.0,0.0,0.0,0.0,0.0,0.0,0.0,0.0,0.0,0.0,0.0,0.0,0.0,0.0,0.0,0.0,0.0,0.0,0.0,0.0,0.0,0.0,0.0,0.0,0.0,0.0,0.0,0.0,0.0,0.0,0.0,0.0,0.0,0.0,0.0,0.0,0.0,3.2647,3.4474,3.5058,3.4743,3.3445,3.1738,3.0385,0.0,0.0,0.0,0.0,0.0,0.0,0.0,0.0,0.0,0.0,0.0,0.0,0.0,0.0,0.0,0.0,0.0,0.0,0.0,0.0,0.0,0.0,0.0,0.0,0.0,0.0,0.0,0.0,0.0,0.0,0.0,0.0,0.0,0.0,0.0,0.0,0.0,0.0,0.0,0.0,0.0,0.0,0.0,0.0,0.0,0.0,0.0,0.0,0.0,0.0,0.0,0.0,0.0,0.0,0.0,0.0,0.0,0.0,0.0,0.0,0.0,0.0,0.0,0.0,0.0,0.0,0.0,0.0,0.0,0.0,0.0,0.0,0.0,0.0,0.0,0.0,0.0,0.0,0.0,0.0,0.0,0.0,0.0,0.0,0.0,0.0,0.0,0.0,0.0,0.0,0.0,0.0,0.0,0.0,0.0,0.0,0.0,0.0,0.0,0.0,0.0,0.0,0.0,0.0,0.0,0.0,0.0,0.0,3.3977,3.4748,3.5911,3.6507,3.6358,3.3871,3.1659,0.0,0.0,0.0,0.0,0.0,0.0,0.0,0.0,0.0,0.0,0.0,0.0,0.0,0.0,0.0,0.0,0.0,0.0,0.0,0.0,0.0,0.0,0.0,0.0,0.0,0.0,0.0,0.0,0.0,0.0,0.0,0.0,0.0,0.0,0.0,0.0,0.0,0.0,0.0,0.0,0.0,0.0,0.0,0.0,0.0,0.0,0.0,0.0,0.0,0.0,0.0,0.0,0.0,0.0,0.0,0.0,0.0,0.0,0.0,0.0,0.0,0.0,0.0,0.0,0.0,0.0,0.0,0.0,0.0,0.0,0.0,0.0,0.0,0.0,0.0,0.0,0.0,0.0,0.0,0.0,0.0,0.0,0.0,0.0,0.0,0.0,0.0,0.0,0.0,0.0,0.0,0.0,0.0,0.0,0.0,0.0,0.0,0.0,0.0,0.0,0.0,0.0,0.0,0.0,0.0,0.0,0.0,0.0,3.4937,3.6286,3.657,3.6497,3.6004,3.3733,3.2049,0.0,0.0,0.0,0.0,0.0,0.0,0.0,0.0,0.0,0.0,0.0,0.0,0.0,0.0,0.0,0.0,0.0,0.0,0.0,0.0,0.0,0.0,0.0,0.0,0.0,0.0,0.0,0.0,0.0,0.0,0.0,0.0,0.0,0.0,0.0,0.0,0.0,0.0,0.0,0.0,0.0,0.0,0.0,0.0,0.0,0.0,0.0,0.0,3.0273,0.0,0.0,0.0,0.0,0.0,0.0,0.0,0.0,0.0,0.0,0.0,0.0,0.0,0.0,0.0,0.0,0.0,0.0,0.0,0.0,0.0,0.0,0.0,0.0,0.0,0.0,0.0,0.0,0.0,0.0,0.0,0.0,0.0,0.0,0.0,0.0,0.0,0.0,0.0,0.0,0.0,0.0,0.0,0.0,0.0,0.0,0.0,0.0,0.0,0.0,0.0,0.0,0.0,0.0,0.0,0.0,0.0,0.0,0.0,3.5219,3.6323,3.6173,3.5949,3.5568,3.4018,3.2651,0.0,0.0,0.0,0.0,0.0,0.0,0.0,0.0,0.0,0.0,0.0,0.0,0.0,0.0,0.0,0.0,0.0,0.0,0.0,0.0,0.0,0.0,0.0,0.0,0.0,0.0,0.0,0.0,0.0,0.0,0.0,0.0,0.0,0.0,0.0,0.0,0.0,0.0,0.0,0.0,0.0,0.0,0.0,0.0,0.0,0.0,0.0,0.0,0.0,0.0,0.0,0.0,0.0,0.0,0.0,0.0,0.0,0.0,0.0,0.0,0.0,0.0,0.0,0.0,0.0,0.0,0.0,0.0,0.0,0.0,0.0,0.0,0.0,0.0,0.0,0.0,0.0,0.0,0.0,0.0,0.0,0.0,0.0,0.0,0.0,0.0,0.0,0.0,0.0,0.0,0.0,0.0,0.0,0.0,0.0,0.0,0.0,0.0,0.0,0.0,0.0,0.0,0.0,0.0,0.0,0.0,0.0,3.39,3.5167,3.5896,3.5461,3.518,3.5071,3.4337,3.3215,3.1634,0.0,0.0,0.0,0.0,0.0,0.0,0.0,0.0,0.0,0.0,0.0,0.0,0.0,0.0,0.0,0.0,0.0,0.0,0.0,0.0,0.0,0.0,0.0,0.0,0.0,0.0,0.0,0.0,0.0,0.0,0.0,0.0,0.0,0.0,0.0,0.0,0.0,0.0,2.8672,2.9734,0.0,0.0,0.0,0.0,0.0,0.0,0.0,0.0,3.0674,0.0,0.0,0.0,0.0,0.0,0.0,0.0,0.0,0.0,0.0,0.0,0.0,0.0,0.0,0.0,0.0,0.0,0.0,0.0,0.0,0.0,0.0,0.0,0.0,0.0,0.0,0.0,0.0,0.0,0.0,0.0,0.0,0.0,0.0,0.0,0.0,0.0,0.0,0.0,0.0,0.0,0.0,0.0,0.0,0.0,0.0,0.0,0.0,0.0,0.0,0.0,0.0,0.0,0.0,0.0,0.0,3.5594,3.4636,3.4725,3.6086,3.5278,3.4525,3.4007,3.4151,3.3472,3.1965,0.0,0.0,0.0,0.0,0.0,0.0,0.0,0.0,0.0,0.0,0.0,0.0,0.0,0.0,0.0,0.0,0.0,0.0,0.0,0.0,0.0,0.0,0.0,0.0,0.0,0.0,0.0,0.0,0.0,0.0,0.0,0.0,0.0,0.0,0.0,0.0,0.0,0.0,0.0,3.1929,3.2055,0.0,0.0,0.0,0.0,0.0,0.0,0.0,0.0,3.259,0.0,0.0,0.0,0.0,0.0,0.0,0.0,0.0,0.0,0.0,0.0,0.0,0.0,0.0,0.0,0.0,0.0,0.0,0.0,0.0,0.0,0.0,0.0,0.0,0.0,0.0,0.0,0.0,0.0,0.0,0.0,0.0,0.0,0.0,0.0,0.0,0.0,0.0,0.0,0.0,0.0,0.0,0.0,0.0,0.0,0.0,0.0,0.0,0.0,0.0,0.0,0.0,0.0,0.0,0.0,3.523,3.4556,3.479,3.6089,3.4692,3.3711,3.3373,3.3211,3.2781,0.0,0.0,0.0,0.0,0.0,0.0,0.0,0.0,0.0,0.0,0.0,0.0,0.0,0.0,0.0,0.0,0.0,0.0,0.0,0.0,0.0,0.0,0.0,0.0,0.0,0.0,0.0,0.0,0.0,0.0,0.0,0.0,0.0,0.0,0.0,0.0,0.0,0.0,0.0,0.0,3.3531,3.3704,3.3853,0.0,0.0,0.0,0.0,0.0,0.0,3.2348,3.2725,0.0,0.0,0.0,0.0,0.0,0.0,0.0,0.0,0.0,0.0,0.0,0.0,0.0,0.0,0.0,0.0,0.0,0.0,0.0,0.0,0.0,0.0,0.0,0.0,0.0,0.0,0.0,0.0,0.0,0.0,0.0,0.0,0.0,0.0,0.0,0.0,0.0,0.0,0.0,0.0,0.0,0.0,0.0,0.0,0.0,0.0,0.0,0.0,0.0,0.0,0.0,0.0,0.0,0.0,0.0,3.465,3.4505,3.5014,3.605,3.4361,3.3313,3.3086,3.2658,3.2353,0.0,0.0,0.0,0.0,0.0,0.0,0.0,0.0,0.0,0.0,0.0,0.0,0.0,0.0,0.0,0.0,0.0,0.0,0.0,0.0,0.0,0.0,0.0,0.0,0.0,0.0,0.0,0.0,0.0,0.0,0.0,0.0,0.0,0.0,0.0,0.0,0.0,0.0,0.0,0.0,0.0,3.5536,3.5463,3.4721,0.0,0.0,0.0,0.0,3.2749,3.3208,0.0,0.0,0.0,0.0,0.0,0.0,0.0,0.0,0.0,0.0,0.0,0.0,0.0,0.0,0.0,0.0,0.0,0.0,0.0,0.0,0.0,0.0,0.0,0.0,0.0,0.0,0.0,0.0,0.0,0.0,0.0,0.0,0.0,0.0,0.0,0.0,0.0,0.0,0.0,0.0,0.0,0.0,0.0,0.0,0.0,0.0,0.0,0.0,0.0,0.0,0.0,0.0,0.0,0.0,0.0,0.0,3.5262,3.5009,3.5266,3.6101,3.5075,3.4079,3.3142,3.3714,3.3215,0.0,0.0,0.0,0.0,0.0,0.0,0.0,0.0,0.0,0.0,0.0,0.0,0.0,0.0,0.0,0.0,0.0,0.0,0.0,0.0,0.0,0.0,0.0,0.0,0.0,0.0,0.0,0.0,0.0,0.0,0.0,0.0,0.0,0.0,0.0,0.0,0.0,0.0,0.0,0.0,0.0,3.7401,3.7384,3.7369,3.6835,0.0,0.0,3.636,3.5054,3.661,0.0,0.0,0.0,0.0,0.0,0.0,0.0,0.0,0.0,0.0,0.0,0.0,0.0,0.0,0.0,0.0,0.0,0.0,0.0,0.0,0.0,0.0,0.0,0.0,0.0,0.0,0.0,0.0,0.0,0.0,0.0,0.0,0.0,0.0,0.0,0.0,0.0,0.0,0.0,0.0,0.0,0.0,0.0,0.0,0.0,0.0,0.0,0.0,0.0,0.0,0.0,0.0,0.0,0.0,0.0,3.3651,3.5429,3.5887,3.6425,3.7028,3.5534,3.4299,3.3532,3.2827,3.1923,0.0,0.0,0.0,0.0,0.0,0.0,0.0,0.0,0.0,0.0,0.0,0.0,0.0,0.0,0.0,0.0,0.0,0.0,0.0,0.0,0.0,0.0,0.0,0.0,0.0,0.0,0.0,0.0,0.0,0.0,0.0,0.0,0.0,0.0,0.0,0.0,0.0,0.0,0.0,0.0,0.0,0.0,3.8902,3.8681,0.0,0.0,0.0,3.7853,3.6384,0.0,0.0,0.0,0.0,0.0,0.0,0.0,0.0,0.0,0.0,0.0,0.0,0.0,0.0,0.0,0.0,0.0,0.0,0.0,0.0,0.0,0.0,0.0,0.0,0.0,0.0,0.0,0.0,0.0,0.0,0.0,0.0,0.0,0.0,0.0,0.0,0.0,0.0,0.0,0.0,0.0,0.0,0.0,0.0,0.0,0.0,0.0,0.0,0.0,0.0,0.0,0.0,0.0,0.0,0.0,0.0,0.0,3.6054,3.7147,3.7828,3.8065,3.6383,3.4969,3.3833,3.2762,0.0,0.0,0.0,0.0,0.0,0.0,0.0,0.0,0.0,0.0,0.0,0.0,0.0,0.0,0.0,0.0,0.0,0.0,0.0,0.0,0.0,0.0,0.0,0.0,0.0,0.0,0.0,2.8533,0.0,0.0,0.0,0.0,0.0,0.0,0.0,0.0,0.0,0.0,0.0,0.0,0.0,0.0,3.9543,3.9911,4.0005,3.9949,0.0,0.0,3.9092,3.8075,3.9573,3.9855,0.0,0.0,0.0,0.0,0.0,0.0,0.0,0.0,0.0,0.0,0.0,0.0,0.0,0.0,0.0,0.0,0.0,0.0,0.0,0.0,0.0,0.0,0.0,0.0,0.0,0.0,0.0,0.0,0.0,0.0,0.0,0.0,0.0,0.0,0.0,0.0,0.0,0.0,0.0,0.0,0.0,0.0,0.0,0.0,0.0,0.0,0.0,0.0,0.0,0.0,0.0,0.0,0.0,0.0,3.6238,3.7634,3.8888,3.9348,3.9023,3.808,3.6378,3.3927,3.4928,3.3663,0.0,0.0,0.0,0.0,0.0,0.0,0.0,0.0,0.0,0.0,0.0,0.0,0.0,0.0,0.0,0.0,0.0,0.0,0.0,0.0,0.0,0.0,0.0,0.0,0.0,0.0,0.0,0.0,0.0,0.0,0.0,0.0,0.0,0.0,0.0,0.0,0.0,0.0,0.0,0.0,0.0,4.0835,4.0265,4.1855,4.2831,0.0,4.1403,4.0821,4.0743,4.2008,4.2065,3.9089,0.0,0.0,0.0,0.0,0.0,0.0,0.0,0.0,0.0,0.0,0.0,0.0,0.0,0.0,0.0,0.0,0.0,0.0,0.0,0.0,0.0,0.0,0.0,0.0,0.0,0.0,0.0,0.0,0.0,0.0,0.0,0.0,0.0,0.0,0.0,0.0,0.0,0.0,0.0,0.0,0.0,0.0,0.0,0.0,0.0,0.0,0.0,0.0,0.0,0.0,0.0,0.0,0.0,3.6453,3.7806,4.0051,4.1119,4.0839,3.939,3.7733,3.6021,3.5518,3.3596,0.0,0.0,0.0,0.0,0.0,0.0,0.0,0.0,0.0,0.0,0.0,0.0,0.0,0.0,0.0,0.0,0.0,0.0,0.0,0.0,0.0,0.0,0.0,0.0,0.0,0.0,0.0,0.0,3.3452,3.3929,3.4024,0.0,0.0,0.0,0.0,0.0,0.0,0.0,0.0,0.0,0.0,4.3296,4.3979,4.4458,0.0,0.0,4.3709,4.2874,4.1941,4.3089,4.3087,4.0096,3.9876,0.0,0.0,0.0,0.0,0.0,0.0,0.0,0.0,0.0,0.0,0.0,0.0,0.0,0.0,0.0,0.0,0.0,0.0,0.0,0.0,0.0,0.0,0.0,0.0,0.0,0.0,0.0,0.0,0.0,0.0,0.0,0.0,0.0,0.0,0.0,0.0,0.0,0.0,0.0,0.0,0.0,0.0,0.0,0.0,0.0,0.0,0.0,0.0,0.0,0.0,0.0,0.0,3.7158,3.8502,4.1169,4.2493,4.2379,4.0821,3.9211,3.7701,3.6588,3.4387,0.0,0.0,0.0,0.0,0.0,0.0,0.0,0.0,0.0,0.0,0.0,0.0,0.0,0.0,0.0,0.0,0.0,0.0,0.0,0.0,0.0,0.0,0.0,0.0,0.0,0.0,0.0,0.0,3.5077,3.5248,3.5474,0.0,0.0,0.0,0.0,0.0,0.0,0.0,0.0,0.0,0.0,4.5101,4.5716,4.5813,4.5745,4.5518,4.4681,4.388,4.3271,4.4095,4.3906,4.1373,0.0,0.0,0.0,0.0,0.0,0.0,0.0,0.0,0.0,0.0,0.0,0.0,0.0,0.0,0.0,0.0,0.0,0.0,0.0,0.0,0.0,0.0,0.0,0.0,0.0,0.0,0.0,3.5584,0.0,0.0,3.6646,0.0,0.0,0.0,0.0,0.0,0.0,0.0,0.0,0.0,0.0,0.0,0.0,0.0,0.0,0.0,0.0,0.0,0.0,0.0,0.0,0.0,0.0,3.8567,4.0045,4.2181,4.3303,4.3229,4.241,4.0832,3.8602,3.8552,3.6582,3.2273,0.0,0.0,0.0,0.0,0.0,0.0,0.0,0.0,0.0,0.0,0.0,0.0,0.0,0.0,0.0,0.0,0.0,0.0,0.0,0.0,0.0,0.0,0.0,0.0,0.0,0.0,3.377,3.3894,3.4503,0.0,0.0,0.0,0.0,0.0,0.0,0.0,0.0,0.0,4.1706,4.452,4.5898,4.4453,4.5451,4.6195,4.5428,4.4004,4.3491,4.4864,4.5129,4.468,0.0,0.0,0.0,0.0,0.0,0.0,0.0,0.0,0.0,0.0,0.0,0.0,0.0,0.0,0.0,0.0,0.0,0.0,0.0,0.0,0.0,0.0,0.0,0.0,0.0,0.0,0.0,3.8779,3.9172,0.0,0.0,0.0,0.0,0.0,0.0,0.0,0.0,0.0,0.0,0.0,4.2237,4.1964,0.0,0.0,0.0,0.0,0.0,0.0,0.0,0.0,0.0,0.0,0.0,0.0,3.9521,4.0206,4.317,4.4546,4.415,4.3306,4.2038,4.0351,3.9762,3.7303,3.2708,0.0,0.0,0.0,0.0,0.0,0.0,0.0,0.0,0.0,0.0,0.0,0.0,0.0,0.0,0.0,0.0,0.0,0.0,0.0,0.0,0.0,0.0,0.0,0.0,0.0,3.7335,0.0,0.0,0.0,0.0,0.0,0.0,0.0,0.0,0.0,0.0,0.0,4.2239,4.3593,4.5573,4.6896,4.6898,4.745,4.7945,0.0,0.0,0.0,0.0,0.0,0.0,0.0,0.0,0.0,0.0,0.0,0.0,0.0,0.0,4.4847,4.0652,4.052,4.113,4.1326,0.0,0.0,0.0,0.0,0.0,0.0,0.0,0.0,0.0,0.0,0.0,0.0,0.0,0.0,4.1531,4.148,4.1259,0.0,0.0,0.0,0.0,0.0,0.0,0.0,0.0,4.5216,4.563,4.5876,4.564,4.4965,0.0,4.2885,4.0547,0.0,0.0,0.0,0.0,0.0,0.0,0.0,0.0,4.0297,4.1209,4.4205,4.5622,4.5232,4.4445,4.3373,4.194,4.0172,3.7504,3.3896,3.2293,3.1158,0.0,0.0,0.0,0.0,0.0,0.0,0.0,0.0,0.0,0.0,0.0,0.0,0.0,0.0,0.0,0.0,0.0,0.0,0.0,0.0,0.0,0.0,0.0,3.8342,0.0,0.0,0.0,0.0,0.0,0.0,0.0,0.0,0.0,4.1868,4.3014,4.4399,4.5773,4.7333,4.8268,4.7939,0.0,0.0,0.0,0.0,0.0,0.0,0.0,4.5957,4.4977,4.5321,4.5953,4.673,4.7481,4.7963,4.7963,0.0,0.0,4.4677,4.4557,4.5179,4.5369,4.544,4.5523,4.5813,4.6261,4.6565,0.0,0.0,0.0,0.0,4.3423,0.0,0.0,0.0,4.4465,4.3985,0.0,4.3402,0.0,0.0,0.0,0.0,4.4289,4.518,0.0,0.0,4.8897,4.8879,4.6984,4.7607,4.7121,4.5663,4.5525,4.4667,4.3024,3.9402,0.0,0.0,0.0,0.0,0.0,0.0,4.1003,4.2996,4.5267,4.643,4.6342,4.5833,4.4792,4.3259,3.9986,3.7482,3.5943,3.5176,3.4151,3.2665,3.1969,0.0,0.0,0.0,0.0,0.0,0.0,0.0,0.0,0.0,0.0,0.0,0.0,0.0,0.0,0.0,0.0,0.0,0.0,0.0,0.0,3.8161,0.0,0.0,0.0,0.0,0.0,0.0,0.0,0.0,0.0,0.0,4.4939,4.5479,4.6526,4.8012,0.0,0.0,0.0,0.0,4.904,4.7535,4.6581,4.6379,4.7112,4.7827,4.8323,4.8287,0.0,0.0,4.9793,4.9003,4.8543,4.847,4.9881,5.0675,5.0017,4.9155,4.8911,4.9417,4.8569,4.804,4.8688,4.9068,4.9285,5.2377,0.0,0.0,0.0,0.0,4.8471,4.9337,5.0557,5.0307,4.9629,4.8608,4.8301,0.0,0.0,0.0,0.0,0.0,0.0,4.7671,4.8992,5.0061,5.0817,5.1279,5.0969,5.055,5.0041,4.8309,4.7055,4.6164,4.3755,4.1066,3.8199,0.0,0.0,0.0,0.0,4.3182,4.3921,4.5998,4.6869,4.6389,4.624,4.5229,4.335,4.1815,3.9851,3.7449,3.672,3.5876,3.4814,3.3158,0.0,0.0,0.0,0.0,0.0,0.0,0.0,0.0,0.0,0.0,0.0,0.0,0.0,0.0,0.0,0.0,0.0,0.0,0.0,3.8578,3.9298,3.9302,0.0,0.0,0.0,0.0,0.0,0.0,0.0,0.0,0.0,4.8002,4.7572,4.7252,0.0,0.0,4.7901,4.7186,4.8508,4.9572,4.9738,4.9554,0.0,4.9701,4.9444,4.9243,4.9224,5.0582,5.1573,5.1355,5.1573,5.1793,5.1754,5.2176,5.2611,5.2962,5.1968,5.1172,5.1257,5.1433,5.1804,5.259,5.3196,5.3654,5.7376,5.4097,5.2407,5.2112,5.2828,5.3219,5.3943,5.4865,5.4434,5.3635,5.2546,5.1801,5.0435,4.8756,4.8171,0.0,0.0,0.0,5.0228,5.1679,5.2053,5.2582,5.313,5.2711,5.2307,5.1922,5.049,4.9268,4.8291,4.6853,4.4765,4.2149,0.0,4.0994,4.1409,4.3431,4.4773,4.5387,4.6959,4.7554,4.7154,4.6628,4.562,4.416,4.3086,4.1707,4.0061,3.9044,3.8164,3.7357,3.5609,3.441,0.0,0.0,0.0,0.0,0.0,0.0,0.0,0.0,0.0,0.0,0.0,3.4796,3.3611,0.0,0.0,0.0,3.7237,3.8977,4.0252,4.0878,0.0,0.0,0.0,0.0,0.0,0.0,0.0,4.5664,4.7407,4.8941,5.0058,4.9882,4.9559,4.9325,4.9157,4.8948,4.8599,0.0,5.0822,5.1025,5.1043,5.1062,5.1025,5.0758,5.0657,5.0986,5.1793,5.2435,5.2491,5.2894,5.3185,5.3185,5.3185,5.3442,5.4252,5.3592,5.3059,5.3393,5.3794,5.4399,5.5207,5.5757,5.6143,6.119,6.0162,5.7262,5.6455,5.7152,5.7941,5.7916,5.7254,5.7272,5.6415,5.4919,5.4118,5.3253,5.2291,5.0954,0.0,5.3387,5.2822,5.3249,5.4473,5.4436,5.3995,5.3316,5.3243,5.2821,5.2087,5.2013,5.1263,4.9793,4.8912,4.7682,4.6067,4.4123,4.3442,4.4079,4.4841,4.5854,4.7094,4.781,4.8213,4.8287,4.7106,4.6082,4.5293,4.3908,4.3087,4.2881,4.164,4.066,3.9966,3.8687,3.7011,3.4965,0.0,0.0,0.0,0.0,0.0,0.0,0.0,0.0,0.0,0.0,0.0,0.0,0.0,0.0,0.0,3.8923,0.0,4.2338,4.2752,0.0,0.0,0.0,4.2548,4.2624,4.5079,4.7027,4.7734,0.0,0.0,5.1417,5.217,5.2721,5.2776,5.2305,5.1671,5.0954,5.1788,5.2341,5.1687,5.1629,5.1685,5.1817,5.1972,5.23,5.2858,5.3185,5.3148,5.3148,5.3167,5.3185,5.3185,5.3185,5.3479,5.4344,5.4491,5.4766,5.5574,5.5724,5.5886,5.6547,5.6804,5.7079,6.1686,6.0401,6.0236,5.9942,5.963,6.0401,6.031,5.9621,5.9585,5.8702,5.7176,5.6368,5.5546,5.4733,5.4389,5.4551,5.5005,5.4877,5.5009,5.528,5.4675,5.4308,5.4087,5.35,5.3093,5.2894,5.2289,5.1775,5.141,5.06,4.937,4.7774,4.7201,4.6175,4.462,4.5333,4.6176,4.7094,4.7296,4.7681,4.825,4.7988,4.6963,4.5186,4.4787,4.3811,4.2172,4.177,4.1507,4.1278,3.9534,3.8272,3.7702,3.5311,0.0,0.0,0.0,0.0,0.0,0.0,0.0,0.0,0.0,3.6926,3.4554,0.0,3.7554,0.0,4.0593,4.2628,4.3556,4.3962,0.0,0.0,4.5202,4.5635,4.6272,4.829,4.9518,4.9047,5.1115,5.2644,5.2724,5.3178,5.3758,5.4363,5.2799,5.1472,5.1305,5.1991,5.267,5.2806,5.3301,5.3755,5.3666,5.3512,5.3305,5.3214,5.3206,5.3185,5.3185,5.3185,5.3185,5.3185,5.3185,5.3739,5.5023,5.5317,5.5831,5.7024,5.695,5.6565,5.6785,5.7281,5.7758,6.1759,6.0933,6.1043,6.0823,6.0474,6.1263,6.1557,6.1429,6.0713,5.9905,5.8988,5.785,5.7079,5.6657,5.6698,5.6657,5.6675,5.6657,5.6473,5.6088,5.5299,5.4748,5.4363,5.3592,5.3185,5.3185,5.2747,5.2344,5.1977,5.1536,5.0692,4.9426,4.9407,4.8379,4.6379,4.6049,4.614,4.6544,4.6911,4.7498,4.8269,4.8324,4.7548,4.6054,4.5636,4.4699,4.3156,4.2503,4.2004,4.1629,4.0302,3.9252,3.859,3.6958,3.5715,0.0,0.0,0.0,0.0,0.0,0.0,0.0,0.0,0.0,0.0,0.0,3.9464,4.0216,4.2295,4.3942,4.4834,4.5539,4.6137,4.6612,4.7319,4.8073,4.8886,5.0315,5.1356,5.1645,5.2914,5.3914,5.428,5.4503,5.4758,5.5057,5.3916,5.2978,5.2871,5.3327,5.3814,5.4029,5.4438,5.4705,5.4535,5.4288,5.396,5.3584,5.3464,5.3422,5.3248,5.3185,5.3185,5.3185,5.3185,5.372,5.5225,5.5614,5.6106,5.7428,5.7648,5.7373,5.7354,5.7703,5.7978,6.1429,6.108,6.0493,6.0254,6.0291,6.0988,6.1759,6.2377,6.0915,6.0199,6.0015,5.8621,5.7978,5.7978,5.7978,5.7978,5.7978,5.7978,5.7629,5.6914,5.6014,5.5207,5.4546,5.3628,5.3185,5.3185,5.3185,5.2839,5.216,5.2142,5.1701,5.0857,5.082,4.9903,4.8177,4.6764,4.5993,4.592,4.6672,4.7424,4.8122,4.8049,4.759,4.6819,4.6122,4.5314,4.4416,4.3377,4.2409,4.1558,4.1114,4.0281,3.9045,3.8761,3.8072,0.0,3.6664,0.0,0.0,0.0,0.0,0.0,0.0,0.0,0.0,4.1351,4.186,4.2607,4.4083,4.5332,4.6209,4.722,4.7876,4.8009,4.9016,5.001,5.0779,5.1664,5.2818,5.4318,5.4587,5.4914,5.553,5.5684,5.5546,5.525,5.511,5.4863,5.4722,5.4819,5.4985,5.516,5.5186,5.5067,5.4705,5.455,5.4305,5.3924,5.3702,5.3604,5.3251,5.3185,5.3185,5.3203,5.3314,5.3904,5.5335,5.5684,5.6271,5.7685,5.7941,5.7923,5.7923,5.7941,5.7978,6.0456,5.8749,5.9203,5.9423,5.9441,5.957,6.0102,6.0786,5.9826,5.9079,5.8437,5.8143,5.7978,5.7978,5.7978,5.7978,5.7978,5.7978,5.7923,5.7721,5.6253,5.55,5.528,5.3885,5.3185,5.3185,5.3185,5.3133,5.2986,5.2986,5.2234,5.0839,5.082,4.9626,4.7424,0.0,0.0,0.0,4.6691,4.7168,4.7278,4.6691,4.5975,4.5186,4.5021,0.0,4.2873,4.3153,4.2973,4.2188,4.2247,0.0,0.0,0.0,0.0,0.0,0.0,0.0,0.0,0.0,0.0,0.0,4.3182,4.2454,4.2033,4.3788,4.5029,4.5212,4.6333,4.7376,4.8253,4.876,4.9326,5.0047,5.0903,5.1481,5.1712,5.3049,5.4164,5.4453,5.5068,5.5511,5.5645,5.5684,5.5662,5.5577,5.5588,5.5546,5.5477,5.5237,5.5224,5.5512,5.5546,5.5442,5.5048,5.4735,5.4371,5.3906,5.3505,5.3316,5.3227,5.3185,5.3185,5.3203,5.3739,5.4454,5.5427,5.6124,5.6822,5.7813,5.7978,5.7978,5.7978,5.7978,5.7978,6.007,5.8621,5.8602,5.8602,0.0,5.8621,5.8841,5.9226,5.9203,5.8744,5.7978,5.7978,5.7978,5.7978,5.7978,5.7978,5.7978,5.7978,5.7978,5.7905,5.6345,5.5614,5.5556,5.3977,5.3185,5.3185,5.3185,5.3185,5.3185,5.3185,5.2763,5.1974,5.1995,5.0967,4.8966,4.8122,4.7297,4.6507,4.6892,4.7278,4.7645,4.7315,4.6526,4.5351,4.5296,0.0,0.0,0.0,0.0,0.0,0.0,0.0,0.0,0.0,0.0,4.3189,4.2754,4.2989,4.4159,4.4258,4.4866,4.6247,4.6518,4.6032,4.4637,4.6037,4.7163,4.7594,4.8162,4.885,4.9674,4.9941,5.0375,5.1202,5.1654,5.2192,5.3106,5.3953,5.4645,5.5049,5.5434,5.5684,5.5684,5.5684,5.5684,5.5684,5.5684,5.5684,5.5684,5.5524,5.5489,5.5662,5.5684,5.5566,5.5167,5.4952,5.4528,5.3978,5.3624,5.3442,5.3209,5.3185,5.3185,5.324,5.3867,5.4656,5.5445,5.6235,5.706,5.7758,5.7978,5.7978,5.7978,5.7978,5.7978,5.9869,5.8951,5.8272,5.7978,5.7978,5.7978,5.7978,5.8052,5.8712,0.0,0.0,5.7978,5.7978,5.7978,5.7978,5.7978,5.7978,5.7978,5.7978,5.7905,5.6345,5.5614,5.5522,5.3959,5.3185,5.3185,5.3185,5.3185,5.3185,5.3185,5.3185,5.3167,5.3078,5.2197,5.06,4.9058,4.7976,4.7333,4.7168,4.7406,4.8067,4.7957,4.7241,4.592,4.5755,4.502,4.3654,4.358,4.3262,4.2532,4.2876,4.3197,4.3343,4.3581,4.4461,4.5968,4.6113,4.6644,4.7818,4.7917,4.8099,4.8529,4.9221,4.899,4.7451,4.8086,4.8856,4.9567,4.9625,4.9971,5.0818,5.0894,5.1221,5.2038,5.2269,5.2972,5.426,5.4645,5.4991,5.5568,5.5684,5.5684,5.5684,5.5684,5.5684,5.5684,5.5684,5.5684,5.5684,5.5673,5.564,5.5558,5.5524,5.5454,5.5088,5.4848,5.4572,5.3923,5.3739,5.3565,5.3295,5.3185,5.3185,5.3185,5.3959,5.4803,5.5522,5.64,5.7207,5.7868,5.7978,5.7978,5.7978,5.7978,5.7978,5.9538,5.8162,5.8052,5.7978,5.7978,5.7978,5.7978,5.8015,5.8125,5.8107,5.7978,5.7978,5.7978,5.7978,5.7978,5.7978,5.7978,5.7978,5.7978,5.7905,5.6326,5.5614,5.5541,5.3959,5.3185,5.3185,5.3185,5.3185,5.3185,5.3185,5.3185,5.3093,5.2509,5.1371,4.9831,4.8802,4.8251,4.8103,4.7443,4.7149,4.7259,4.6599,4.614,4.5902,4.5259,4.4606,4.3965,4.3943,4.3699,4.3211,4.3917,4.4659,4.5319,4.541,4.6019,4.7231,4.7331,4.7887,4.9057,4.9135,4.95,5.024,5.0442,5.0096,4.9183,4.9837,5.0385,5.05,5.0471,5.0856,5.1606,5.1702,5.2029,5.2904,5.3683,5.426,5.453,5.5088,5.5511,5.5665,5.5684,5.5684,5.5684,5.5684,5.5684,5.5684,5.5684,5.5684,5.5662,5.5684,5.5554,5.5282,5.5186,5.5021,5.4655,5.4219,5.3995,5.3832,5.3505,5.3316,5.3209,5.3185,5.3185,5.3185,5.4381,5.5317,5.5633,5.6822,5.7648,5.7978,5.7978,5.7978,5.7978,5.7978,5.7978,5.9465,5.8052,5.7978,5.8253,5.8657,5.8657,5.8419,5.7997,5.7978,5.7978,5.7978,5.7978,5.7978,5.7978,5.7978,5.7978,5.7978,5.7978,5.7978,5.7905,5.6785,5.6014,5.5519,5.4399,5.3628,5.3222,5.3185,5.3185,5.3185,5.3185,5.3185,5.3112,5.1977,5.0967,5.0215,4.8948,4.8324,4.8287,4.7957,4.7736,4.7755,4.7388,4.7003,4.6562,4.6391,4.6019,4.5392,4.5563,4.5594,4.5374,4.5912,4.6396,4.6738,4.6931,4.7496,4.8485,4.8572,4.9026,5.0048,5.0115,5.0289,5.0673,5.0683,5.0721,5.0779,5.0702,5.0683,5.0683,5.0683,5.1029,5.1808,5.1904,5.2423,5.376,5.428,5.4664,5.5088,5.5453,5.5684,5.5684,5.5684,5.5684,5.5684,5.5684,5.5684,5.5684,5.5684,5.564,5.5423,5.5356,5.5306,5.5134,5.4905,5.4609,5.4204,5.3959,5.372,5.3525,5.3318,5.3206,5.3185,5.3185,5.3185,5.3277,5.4509,5.5445,5.5633,5.6895,5.7758,5.7978,5.7978,5.7978,5.7978,5.7978,5.7978,5.9575,5.8272,5.807,5.8364,5.8909,5.8927,5.8565,5.8015,5.7978,5.7978,5.7978,5.7978,5.7978,5.7978,5.7978,5.7978,5.7978,5.7978,5.7978,5.7905,5.7171,5.6381,5.5596,5.4785,5.3977,5.3259,5.3185,5.3185,5.3185,5.3185,5.3115,5.2821,5.1683,5.0894,5.0508,4.9242,4.8508,4.8324,4.8324,4.8324,4.8324,4.8364,4.8145,4.7592,4.7713,4.7557,4.7061,4.714,4.7251,4.7308,4.7575,4.7794,4.7996,4.825,4.8779,4.9567,4.9702,4.9971,5.0635,5.0683,5.0683,5.0683,5.0683,5.0952,5.1491,5.1068,5.0798,5.0962,5.1202,5.1587,5.2164,5.2442,5.3106,5.4568,5.4761,5.503,5.5568,5.5684,5.5684,5.5684,5.5684,5.5684,5.5684,5.5684,5.5684,5.5684,5.564,5.5423,5.516,5.4979,5.48,5.4741,5.4528,5.417,5.3758,5.3663,5.3525,5.3209,5.3206,5.3185,5.3185,5.3185,5.3185,5.3314,5.4326,5.5244,5.5651,5.6693,5.7611,5.7886,5.7978,5.7978,5.7978,5.7978,5.7978,5.9869,5.9019,5.829,5.8033,5.8143,5.8143,5.8107,5.7997,5.7978,5.7978,5.7978,5.7978,5.7978,5.7978,5.7978,5.7978,5.7978,5.7978,5.7978,5.7905,5.7189,5.6381,5.5611,5.4785,5.3995,5.3295,5.3203,5.3185,5.3185,5.3185,5.2839,5.2179,5.194,5.1171,4.9904,4.9555,4.9078,4.8324,4.8324,4.8324,4.8325,4.8657,4.8809,4.8734,4.842,4.8364,4.8536,4.791,4.7707,4.7972,4.8068,4.8433,4.9135,4.925,4.9663,5.0481,5.0558,5.0635,5.0683,5.0683,5.0683,5.0683,5.0683,5.077,5.0875,5.0789,5.101,5.1645,5.2472,5.276,5.3106,5.3664,5.4376,5.5203,5.5472,5.5626,5.5684,5.5684,5.5684,5.5684,5.5684,5.5684,5.5684,5.5684,5.5673,5.5577,5.5387,5.516,5.4933,5.4446,5.4031,5.3959,5.3869,5.372,5.3381,5.3251,5.3272,5.3206,5.3185,5.3185,5.3185,5.3185,5.3185,5.3295,5.394,5.4785,5.5537,5.6345,5.7171,5.7831,5.7978,5.7978,5.7978,5.7978,5.7978,5.9245,5.8474,5.8143,5.7978,5.8033,5.851,5.8437,5.7997,5.7978,5.7978,5.7978,5.7978,5.7978,5.7978,5.7978,5.7978,5.7978,5.7978,5.7978,5.796,5.7648,5.7079,5.629,5.5482,5.4675,5.3904,5.3445,5.3185,5.3185,5.3185,5.3041,5.2692,5.2234,5.1426,5.0363,5.0027,4.9491,4.8694,4.8898,4.9013,4.8996,4.893,4.9011,4.9227,4.9324,4.9423,4.9539,4.9475,4.9488,4.9635,4.9625,4.9798,5.0144,5.0173,5.0327,5.0673,5.0683,5.0683,5.0683,5.0683,5.0683,5.0683,5.0683,5.0875,5.1356,5.1414,5.1577,5.1808,5.1818,5.1895,5.2452,5.3212,5.4068,5.4857,5.5395,5.5684,5.5684,5.5684,5.5684,5.5684,5.5684,5.5684,5.5684,5.5684,5.5489,5.5173,5.4993,5.4919,5.443,5.4012,5.3739,5.3505,5.3444,5.34,5.3227,5.3185,5.3185,5.3185,5.3185,5.3185,5.3185,5.3185,5.3185,5.3185,5.3904,5.4656,5.5445,5.6253,5.7042,5.7685,5.7978,5.7978,5.7978,5.7978,5.7978,5.8854,5.8382,5.8345,5.8198,5.8052,5.8639,5.8547,5.8033,5.7978,5.7978,5.7978,5.7978,5.7978,5.7978,5.7978,5.7978,5.7978,5.7978,5.7978,5.796,5.7776,5.7244,5.6455,5.5629,5.4858,5.4087,5.346,5.3185,5.3185,5.3185,5.3185,5.3093,5.2619,5.1985,5.1317,5.073,5.0103,4.9503,4.9521,4.9547,4.9608,4.9367,4.9371,4.9659,5.0056,5.026,5.0272,5.0544,5.0683,5.0683,5.0683,5.0683,5.0683,5.0683,5.0683,5.0683,5.0683,5.0683,5.0683,5.0683,5.0683,5.0683,5.0683,5.0933,5.1471,5.1769,5.1904,5.1885,5.1587,5.176,5.2192,5.3049,5.3895,5.4722,5.5395,5.5684,5.5684,5.5684,5.5684,5.5684,5.5684,5.5651,5.5566,5.5501,5.5282,5.4735,5.4621,5.4572,5.3941,5.372,5.3505,5.3251,5.3206,5.3206,5.3185,5.3185,5.3185,5.3185,5.3185,5.3185,5.3185,5.3185,5.3185,5.3259,5.3959,5.4656,5.5445,5.6253,5.7079,5.7685,5.7978,5.7978,5.7978,5.7978,5.7978,5.9166,5.9111,5.9111,5.8657,5.8015,5.807,5.8052,5.7978,5.7978,5.7978,5.7978,5.7978,5.7978,5.7978,5.7978,5.7978,5.7978,5.7978,5.7978,5.7923,5.7244,5.6436,5.5633,5.4821,5.4069,5.3479,5.3316,5.3185,5.3185,5.3185,5.3185,5.3167,5.3093,5.2902,5.2345,5.158,5.1058,5.0561,4.9924,4.9719,5.0031,5.0056,5.0043,5.0104,5.0462,5.0634,5.0663,5.0683,5.0683,5.0683,5.0683,5.0683,5.0683,5.0683,5.0683,5.0683,5.0683,5.0683,5.0683,5.0683,5.0683,5.0712,5.076,5.075,5.0885,5.1529,5.1846,5.1846,5.2337,5.2779,5.301,5.3722,5.4568,5.5241,5.5568,5.5626,5.5645,5.5568,5.5684,5.5703,5.5662,5.5489,5.5186,5.5134,5.4909,5.4484,5.4118,5.3869,5.3758,5.3464,5.3272,5.3227,5.3185,5.3185,5.3185,5.3185,5.3185,5.3185,5.3185,5.3185,5.3185,5.3185,5.3185,5.335,5.3959,5.4656,5.5464,5.6271,5.7116,5.7666,5.7923,5.7978,5.7978,5.7978,5.7978,5.8437,5.8437,5.8437,5.8253,5.8015,5.7978,5.7978,5.7978,5.7978,5.7978,5.7978,5.7978,5.7978,5.7978,5.7978,5.7978,5.7978,5.7978,5.7978,5.7905,5.7171,5.6638,5.6271,5.5042,5.4289,5.3959,5.3442,5.3185,5.3185,5.3185,5.3185,5.3185,5.3185,5.287,5.2264,5.187,5.139,5.0778,5.0393,5.0347,5.0462,5.0483,5.0483,5.0493,5.0614,5.0683,5.0683,5.0683,5.0683,5.0683,5.0683,5.0683,5.0683,5.0683,5.0683,5.0683,5.0683,5.0683,5.0683,5.0683,5.0683,5.0721,5.1183,5.1183,5.0952,5.1414,5.1712,5.1356,5.1395,5.176,5.2519,5.3645,5.4376,5.4203,5.4607,5.4953,5.4934,5.4934,5.5107,5.5528,5.5501,5.516,5.4867,5.472,5.4436,5.3833,5.372,5.3682,5.3464,5.3272,5.3185,5.3185,5.3185,5.3185,5.3185,5.3185,5.3185,5.3185,5.3185,5.3185,5.3185,5.3185,5.3185,5.3295,5.3867,5.473,5.5574,5.6748,5.7483,5.774,5.7978,5.7978,5.7978,5.7978,5.7978,5.7978,5.7978,5.7978,5.7978,5.7978,5.7978,5.7978,5.7978,5.7978,5.7978,5.7978,5.7978,5.7978,5.7978,5.7978,5.7978,5.7978,5.7978,5.7978,5.7886,5.6914,5.6418,5.6143,5.4766,5.4014,5.3922,5.3482,5.3185,5.3185,5.3185,5.3185,5.3185,5.3185,5.2996,5.256,5.2018,5.1497,5.1254,5.081,5.0535,5.0673,5.0683,5.0683,5.0683,5.0683,5.0683,5.0683,5.0683,5.0683,5.0683,5.0683,5.0683,5.0683,5.0683,5.0683,5.0683,5.0683,5.0683,5.0683,5.0683,5.0683,5.0712,5.1144,5.1241,5.0808,5.1433,5.1529,5.1241,5.1395,5.1779,5.2356,5.3395,5.3818,5.3376,5.3741,5.4222,5.4453,5.4511,5.4914,5.5459,5.5356,5.4966,5.4563,5.4371,5.3961,5.3293,5.3444,5.3464,5.3272,5.3185,5.3185,5.3185,5.3185,5.3185,5.3185,5.3185,5.3185,5.3185,5.3185,5.3185,5.3185,5.3185,5.3222,5.3332,5.3922,5.4803,5.5868,5.7097,5.7666,5.7923,5.7978,5.7978,5.7978,5.7978,5.7978,5.7978,5.7978,5.7978,5.7978,5.7978,5.7978,5.7978,5.7978,5.7978,5.7978,5.7978,5.7978,5.7978,5.7978,5.7978,5.7978,5.7978,5.7978,5.7923,5.774,5.6363,5.5669,5.5482,5.4051,5.3314,5.3314,5.3222,5.3185,5.3185,5.3185,5.3185,5.3185,5.3185,5.3304,5.3702,5.2175,5.1721,5.1915,5.0919,5.0344,5.0634,5.0683,5.0683,5.0683,5.0683,5.0683,5.0683,5.0683,5.0683,5.0683,5.0683,5.0683,5.0683,5.0683,5.0683,5.0683,5.0683,5.0683,5.0683,5.0683,5.0683,5.0731,5.0789,5.0894,5.0856,5.1433,5.1827,5.1741,5.226,5.2914,5.2837,5.2991,5.3087,5.3164,5.3164,5.351,5.4184,5.4511,5.4808,5.5426,5.5262,5.4905,5.4516,5.4085,5.3643,5.3336,5.323,5.3272,5.3206,5.3185,5.3185,5.3185,5.3185,5.3185,5.3185,5.3185,5.3185,5.3185,5.3185,5.3185,5.3185,5.3185,5.3185,5.3332,5.4197,5.5097,5.6198,5.7317,5.774,5.7978,5.7978,5.7978,5.7978,5.7978,5.7978,5.7978,5.7978,5.7978,5.7978,5.7978,5.7978,5.7978,5.7978,5.7978,5.7978,5.7978,5.7978,5.7978,5.7978,5.7978,5.7978,5.7978,5.796,5.7703,5.706,5.6069,5.5317,5.4711,5.372,5.3185,5.3185,5.3185,5.3185,5.3185,5.3185,5.3185,5.3185,5.3185,5.3251,5.3328,5.2048,5.1609,5.1891,5.0786,5.0302,5.0644,5.0702,5.0683,5.0683,5.0683,5.0683,5.0683,5.0683,5.0683,5.0683,5.0683,5.0683,5.0683,5.0683,5.0683,5.0683,5.0683,5.0683,5.0683,5.0683,5.0683,5.0798,5.1183,5.1183,5.0875,5.1414,5.1615,5.1221,5.1337,5.1471,5.1471,5.1471,5.1837,5.225,5.2308,5.2712,5.3652,5.4635,5.5201,5.5198,5.4919,5.4497,5.4083,5.3663,5.338,5.3251,5.3185,5.3185,5.3185,5.3185,5.3185,5.3185,5.3185,5.3185,5.3185,5.3185,5.3185,5.3185,5.3185,5.3185,5.3185,5.3185,5.3185,5.3534,5.4418,5.5372,5.6492,5.7317,5.7795,5.7978,5.7978,5.7978,5.7978,5.7978,5.7978,5.7978,5.7978,5.7978,5.7978,5.7978,5.7978,5.7978,5.7978,5.7978,5.7978,5.7978,5.7978,5.7978,5.7978,5.7978,5.7978,5.7978,5.7978,5.7409,5.6436,5.5868,5.5427,5.5097,5.4142,5.3463,5.3222,5.3185,5.3185,5.3185,5.3185,5.3185,5.3185,5.3185,5.3206,5.3096,5.215,5.1749,5.1917,5.1291,5.0849,5.0927,5.1075,5.101,5.075,5.0683,5.0683,5.0683,5.0683,5.0683,5.0683,5.0683,5.0683,5.0683,5.0683,5.0683,5.0683,5.0683,5.0683,5.0683,5.0683,5.0683,5.0798,5.1164,5.1241,5.0885,5.126,5.1241,5.1202,5.1202,5.1279,5.1587,5.1645,5.1895,5.2318,5.2115,5.2391,5.3344,5.4614,5.5179,5.4905,5.4516,5.4135,5.3833,5.3464,5.3227,5.3185,5.3185,5.3185,5.3185,5.3185,5.3185,5.3185,5.3185,5.3185,5.3185,5.3185,5.3185,5.3185,5.3185,5.3185,5.3185,5.3185,5.3203,5.3647,5.4344,5.5188,5.6253,5.7317,5.7978,5.7978,5.7978,5.7978,5.7978,5.7978,5.7997,5.7978,5.7978,5.7978,5.7978,5.7978,5.7978,5.7978,5.7978,5.7978,5.7978,5.7978,5.7978,5.7978,5.7978,5.7978,5.7941,5.7923,5.7978,5.7152,5.6051,5.5611,5.5721,5.5721,5.4601,5.3757,5.3277,5.3185,5.3185,5.3185,5.3185,5.3185,5.3185,5.3185,5.3185,5.3041,5.2383,5.2114,5.2323,5.2038,5.1594,5.1231,5.1579,5.1402,5.0682,5.0614,5.0634,5.0683,5.0683,5.0683,5.0683,5.0683,5.0683,5.0683,5.0683,5.0683,5.0683,5.0683,5.0683,5.0683,5.0683,5.076,5.0875,5.0818,5.0789,5.1058,5.1144,5.1356,5.1914,5.1981,5.225,5.2856,5.2991,5.3058,5.3095,5.2619,5.2759,5.3658,5.4573,5.4786,5.4481,5.4083,5.3777,5.3739,5.34,5.3251,5.3185,5.3185,5.3185,5.3185,5.3185,5.3185,5.3185,5.3185,5.3185,5.3185,5.3185,5.3185,5.3185,5.3185,5.3203,5.3203,5.3203,5.3405,5.3849,5.4473,5.5244,5.6128,5.7244,5.7905,5.7978,5.7978,5.7978,5.7978,5.7978,5.798,5.7978,5.7978,5.7978,5.7978,5.7978,5.7978,5.7978,5.7978,5.7978,5.7941,5.7978,5.7978,5.796,5.7978,5.7978,5.7703,5.7409,5.7758,5.7116,5.5794,5.5614,5.4932,5.4308,5.3812,5.3445,5.3222,5.3185,5.3185,5.3185,5.3185,5.3185,5.3185,5.3185,5.3185,5.3075,5.2417,5.2203,5.2345,5.1836,5.1335,5.1036,5.1288,5.1059,5.0356,5.026,5.0399,5.0653,5.0683,5.0683,5.0683,5.0683,5.0683,5.0683,5.0683,5.0683,5.0683,5.0683,5.0683,5.0683,5.0683,5.0962,5.1452,5.1048,5.1231,5.2433,5.1933,5.2087,5.2645,5.2876,5.2962,5.3183,5.325,5.3358,5.3573,5.3327,5.3334,5.3783,5.4273,5.4484,5.4066,5.3851,5.3663,5.3442,5.3295,5.3185,5.3185,5.3185,5.3185,5.3185,5.3185,5.3185,5.3185,5.3185,5.3185,5.3185,5.3185,5.3185,5.3185,5.3203,5.3243,5.324,5.3259,5.3628,5.4087,5.4968,5.5794,5.651,5.7409,5.7666,5.7978,5.7978,5.7978,5.7978,5.7973,5.7972,5.7978,5.7978,5.7978,5.7978,5.7978,5.7978,5.7978,5.7923,5.7629,5.7721,5.7868,5.7629,5.7685,5.7978,5.7978,5.7556,5.6987,5.7629,5.6877,5.5225,5.4693,5.4069,5.3463,5.3482,5.3555,5.3203,5.3185,5.3185,5.3185,5.3185,5.3185,5.3185,5.3185,5.3185,5.3167,5.2784,5.2578,5.2729,5.2419,5.1944,5.1072,5.1376,5.0844,5.0144,4.984,4.9993,5.0197,5.082,5.1059,5.0786,5.0683,5.0683,5.0683,5.0683,5.0683,5.0683,5.0683,5.0683,5.0683,5.0702,5.1068,5.1645,5.1414,5.1933,5.276,5.2722,5.2818,5.3587,5.3722,5.3914,5.4163,5.4114,5.4033,5.4073,5.3913,5.3804,5.3788,5.4037,5.3976,5.3701,5.3545,5.3484,5.3227,5.3206,5.3185,5.3185,5.3185,5.3185,5.3185,5.3185,5.3185,5.3185,5.3185,5.3185,5.3185,5.3185,5.3295,5.3295,5.3552,5.3537,5.3573,5.357,5.3977,5.4583,5.5482,5.6271,5.6895,5.7446,5.7776,5.7978,5.7978,5.7955,5.7955,5.7867,5.7872,5.7978,5.7978,5.7978,5.7978,5.7978,5.7978,5.7978,5.785,5.7354,5.7428,5.7758,5.7262,5.7483,5.7978,5.796,5.7556,5.6836,5.7446,5.6326,5.4858,5.383,5.3259,5.3335,5.3739,5.3794,5.3424,5.3277,5.3295,5.335,5.3314,5.3185,5.3185,5.3185,5.3185,5.3167,5.3133,5.3167,5.3182,5.3303,5.2531,5.1542,5.1621,5.1242,4.9954,4.983,4.99,5.022,5.0892,5.1337,5.0726,5.0739,5.0759,5.073,5.0683,5.0683,5.0683,5.0683,5.0683,5.0741,5.0827,5.1221,5.1923,5.2096,5.25,5.3337,5.351,5.3683,5.453,5.4566,5.4729,5.5009,5.5071,5.4614,5.425,5.3956,5.3758,5.3739,5.3739,5.3604,5.3272,5.3206,5.3206,5.3185,5.3185,5.3185,5.3185,5.3185,5.3185,5.3185,5.3185,5.3185,5.3185,5.3185,5.3185,5.3185,5.3185,5.335,5.35,5.394,5.4106,5.4161,5.4252,5.4528,5.5097,5.5978,5.662,5.7097,5.7538,5.7845,5.7844,5.7774,5.7821,5.7875,5.7746,5.7694,5.7978,5.7978,5.7978,5.7978,5.7978,5.7978,5.7978,5.7941,5.7776,5.7611,5.7886,5.774,5.774,5.7941,5.785,5.7574,5.6767,5.6822,5.6051,5.4509,5.3573,5.3222,5.3222,5.3518,5.3739,5.3775,5.3445,5.3518,5.383,5.3442,5.3185,5.3185,5.3185,5.3185,5.3185,5.3185,5.3185,5.3206,5.3316,5.2548,5.1541,5.1843,5.1591,5.0169,5.026,5.0579,5.0808,5.0945,5.0868,5.0803,5.1002,5.1094,5.0737,5.0702,5.075,5.077,5.0731,5.0712,5.0818,5.1337,5.2029,5.2779,5.2991,5.3568,5.4953,5.453,5.4645,5.5179,5.5174,5.4931,5.4747,5.435,5.4117,5.3924,5.3604,5.3359,5.3339,5.3339,5.3295,5.323,5.3185,5.3185,5.3185,5.3185,5.3185,5.3185,5.3185,5.3185,5.3185,5.3185,5.3185,5.3185,5.3185,5.3203,5.324,5.335,5.3665,5.4014,5.4491,5.4895,5.495,5.5207,5.5574,5.5978,5.6492,5.7024,5.7446,5.7491,5.7774,5.766,5.754,5.7516,5.752,5.748,5.763,5.7978,5.7978,5.7978,5.7978,5.7923,5.7611,5.7428,5.7281,5.6583,5.6528,5.6712,5.651,5.673,5.7354,5.7042,5.6583,5.6124,5.5409,5.4913,5.4216,5.361,5.3203,5.3353,5.3537,5.3885,5.3867,5.3445,5.3518,5.361,5.346,5.3185,5.3185,5.3185,5.3185,5.3185,5.3185,5.3185,5.3185,5.3167,5.2582,5.1708,5.1888,5.1766,5.0805,5.0933,5.1304,5.1009,5.1677,5.1516,5.1305,5.1509,5.138,5.0685,5.0793,5.1058,5.1202,5.0846,5.1221,5.1702,5.1933,5.2452,5.3703,5.3799,5.4511,5.5299,5.5261,5.5154,5.5301,5.5167,5.4876,5.4253,5.4013,5.3777,5.3505,5.3318,5.3206,5.3185,5.3185,5.3185,5.3185,5.3185,5.3185,5.3185,5.3185,5.3185,5.3185,5.3185,5.3185,5.3185,5.3185,5.3185,5.3185,5.3185,5.3222,5.3316,5.3555,5.4014,5.4546,5.5225,5.5702,5.5996,5.6345,5.6748,5.6932,5.7024,5.7428,5.7772,5.7737,5.7498,5.7284,5.7145,5.7162,5.7154,5.7207,5.7452,5.7978,5.7978,5.7978,5.7978,5.7868,5.7189,5.6859,5.662,5.5225,5.5299,5.5409,5.484,5.5684,5.6271,5.6018,5.5614,5.5097,5.4363,5.3995,5.3959,5.35,5.3222,5.3314,5.3665,5.3885,5.3408,5.3683,5.3757,5.3573,5.3371,5.3408,5.324,5.3185,5.3185,5.3185,5.3185,5.3185,5.3185,5.3185,5.2803,5.2123,5.2128,5.191,5.1618,5.1546,5.1788,5.1654,5.2138,5.2404,5.1547,5.2178,5.1682,5.0922,5.0939,5.1522,5.1842,5.1201,5.1512,5.2368,5.2536,5.2856,5.4376,5.4645,5.4953,5.5491,5.553,5.5334,5.5116,5.4905,5.4497,5.3833,5.3663,5.3505,5.3316,5.3206,5.3185,5.3185,5.3185,5.3185,5.3185,5.3185,5.3185,5.3185,5.3185,5.3185,5.3185,5.3185,5.3185,5.3185,5.3222,5.3222,5.3203,5.3185,5.3534,5.3683,5.3922,5.4344,5.5225,5.5959,5.64,5.6859,5.7152,5.7354,5.7317,5.7483,5.7795,5.776,5.7456,5.7209,5.6938,5.6855,5.6876,5.6937,5.6945,5.736,5.7978,5.7978,5.7978,5.7978,5.785,5.7152,5.673,5.6657,5.5629,5.5445,5.5464,5.5431,5.5372,5.5702,5.5706,5.5225,5.4564,5.4069,5.3794,5.3573,5.324,5.3185,5.3259,5.3555,5.3757,5.4326,5.473,5.4785,5.4252,5.4197,5.3665,5.3295,5.3185,5.3185,5.3185,5.3185,5.3185,5.3185,5.3185,5.2803,5.2417,5.2564,5.2839,5.2488,5.2307,5.2289,5.2509,5.2344,5.2073,5.1989,5.267,5.2268,5.1587,5.161,5.1865,5.1873,5.1535,5.1756,5.2723,5.2996,5.3479,5.4376,5.5049,5.5415,5.5583,5.5411,5.5186,5.489,5.4382,5.3833,5.338,5.3359,5.3295,5.3206,5.3185,5.3185,5.3185,5.3185,5.3185,5.3185,5.3185,5.3185,5.3185,5.3185,5.3185,5.3185,5.3185,5.3185,5.3185,5.3259,5.3332,5.3259,5.3185,5.3683,5.4142,5.4418,5.484,5.5904,5.662,5.6987,5.7409,5.7721,5.7868,5.7703,5.7703,5.7886,5.7708,5.7284,5.6747,5.634,5.6438,5.6635,5.6646,5.6737,5.7485,5.7978,5.7978,5.7978,5.7758,5.7281,5.651,5.5941,5.5464,5.473,5.4363,5.4363,5.4399,5.4858,5.517,5.4601,5.4124,5.3922,5.3775,5.3537,5.3203,5.3185,5.3185,5.3277,5.3573,5.3995,5.4656,5.5482,5.5482,5.4436,5.3922,5.3665,5.3314,5.3185,5.3185,5.3185,5.3185,5.3185,5.3185,5.3167,5.302,5.2637,5.3059,5.3148,5.3057,5.2876,5.2876,5.2986,5.2913,5.2637,5.2692,5.3004,5.2817,5.2523,5.2382,5.2539,5.2454,5.1996,5.2243,5.3224,5.3627,5.3908,5.4721,5.5343,5.5645,5.5599,5.5343,5.4905,5.4417,5.396,5.3422,5.3248,5.3185,5.3185,5.3185,5.3185,5.3185,5.3185,5.3185,5.3185,5.3185,5.3185,5.3185,5.3185,5.3185,5.3185,5.3185,5.3222,5.3277,5.3332,5.357,5.3812,5.3885,5.3959,5.4436,5.4932,5.5225,5.55,5.6473,5.7152,5.7519,5.7721,5.7923,5.7978,5.7905,5.796,5.7844,5.7528,5.7073,5.6403,5.5808,5.5936,5.6095,5.6299,5.6645,5.7411,5.7905,5.7758,5.7776,5.7391,5.6712,5.5739,5.5133,5.4509,5.3683,5.3277,5.3185,5.3277,5.3977,5.4528,5.3977,5.3298,5.3387,5.3518,5.3537,5.3537,5.3497,5.3424,5.3405,5.3775,5.4197,5.4546,5.5317,5.5647,5.462,5.4161,5.3665,5.3277,5.3185,5.3185,5.3185,5.3185,5.3185,5.3185,5.3185,5.3185,5.3185,5.3185,5.3185,5.3185,5.3185,5.3167,5.3167,5.3112,5.3093,5.3093,5.3167,5.317,5.3167,5.3185,5.3189,5.3058,5.2454,5.3024,5.3701,5.3844,5.3938,5.4765,5.5212,5.5399,5.5319,5.4919,5.4481,5.3814,5.3424,5.323,5.3206,5.3185,5.3185,5.3185,5.3185,5.3185,5.3185,5.3185,5.3185,5.3185,5.3185,5.3222,5.324,5.3259,5.3277,5.3702,5.3757,5.4069,5.4161,5.4454,5.4656,5.4766,5.4968,5.5372,5.5794,5.6161,5.6492,5.706,5.7501,5.7795,5.7886,5.7978,5.789,5.7732,5.7637,5.7474,5.7173,5.6737,5.5976,5.5495,5.5506,5.5759,5.6278,5.6731,5.7348,5.7593,5.695,5.695,5.6877,5.6528,5.5188,5.4913,5.5133,5.3794,5.3203,5.3185,5.3185,5.3332,5.3518,5.3518,5.3647,5.3977,5.4032,5.3977,5.394,5.3977,5.3662,5.3259,5.324,5.3995,5.4473,5.4785,5.4601,5.462,5.4987,5.4381,5.346,5.3185,5.3185,5.3185,5.3185,5.3185,5.3185,5.3185,5.3185,5.3185,5.3185,5.3185,5.3185,5.3185,5.3185,5.3185,5.3185,5.3185,5.3185,5.3185,5.3185,5.3185,5.3185,5.3209,5.3051,5.2863,5.2862,5.3643,5.3612,5.3682,5.4412,5.4705,5.4655,5.4591,5.4352,5.3906,5.3378,5.3206,5.3206,5.3185,5.3185,5.3185,5.3185,5.3185,5.3185,5.3185,5.3185,5.3185,5.3314,5.335,5.3332,5.3332,5.335,5.3424,5.3904,5.4344,5.4656,5.4968,5.5225,5.5666,5.5849,5.5878,5.6245,5.6374,5.6782,5.6997,5.7501,5.7753,5.7932,5.7774,5.7637,5.7431,5.7284,5.7116,5.685,5.6474,5.5994,5.5379,5.5243,5.5301,5.5846,5.6562,5.6969,5.7403,5.7538,5.6785,5.6308,5.5849,5.5372,5.4675,5.4326,5.4106,5.3515,5.3185,5.3185,5.3185,5.3185,5.324,5.3628,5.3794,5.3794,5.3794,5.3739,5.3812,5.3775,5.3534,5.3277,5.3277,5.3775,5.473,5.5133,5.5592,5.55,5.5005,5.4271,5.346,5.3222,5.3185,5.335,5.3222,5.3185,5.3185,5.3185,5.3185,5.3185,5.3185,5.3185,5.3185,5.3185,5.3185,5.3185,5.3185,5.3185,5.3185,5.3185,5.3185,5.3185,5.3185,5.3206,5.3191,5.3044,5.3093,5.3394,5.3478,5.375,5.4018,5.429,5.4439,5.4153,5.3924,5.3624,5.3269,5.3206,5.3185,5.3185,5.3185,5.3185,5.3203,5.3314,5.335,5.3332,5.3203,5.3222,5.3369,5.3592,5.3757,5.3922,5.4087,5.4197,5.4454,5.4895,5.528,5.5611,5.5941,5.6473,5.7042,5.7029,5.7052,5.7063,5.7187,5.7103,5.7424,5.7697,5.775,5.7401,5.7184,5.692,5.6367,5.5865,5.5667,5.5599,5.5326,5.4866,5.4961,5.5135,5.5808,5.6514,5.7268,5.7652,5.7116,5.6161,5.5757,5.5133,5.4381,5.4216,5.3922,5.3555,5.3295,5.3185,5.3185,5.3185,5.3185,5.3277,5.3739,5.3812,5.357,5.35,5.3518,5.35,5.3463,5.3445,5.3259,5.3295,5.3904,5.5321,5.5412,5.5702,5.5849,5.5611,5.484,5.383,5.4051,5.394,5.3867,5.3922,5.3922,5.3589,5.3314,5.3203,5.3185,5.3185,5.3185,5.3185,5.3185,5.3185,5.3185,5.3185,5.3185,5.3185,5.3185,5.3185,5.3185,5.3185,5.3185,5.3206,5.3122,5.3159,5.3297,5.3411,5.3605,5.3758,5.387,5.3943,5.3739,5.3644,5.3565,5.3225,5.3206,5.3185,5.3185,5.3185,5.3369,5.3479,5.3589,5.3625,5.3739,5.3885,5.4069,5.4326,5.4528,5.462,5.4785,5.4968,5.5078,5.5115,5.5445,5.5886,5.629,5.6693,5.706,5.7611,5.7607,5.7514,5.7489,5.7473,5.7382,5.7216,5.7474,5.7315,5.6825,5.6474,5.6214,5.5581,5.4961,5.4682,5.4717,5.4548,5.446,5.4931,5.5378,5.5797,5.6421,5.7259,5.7792,5.5978,5.462,5.5299,5.5097,5.4308,5.3592,5.3702,5.4014,5.3482,5.3203,5.3185,5.3185,5.3185,5.324,5.335,5.372,5.4216,5.4308,5.4106,5.4124,5.4252,5.372,5.3387,5.3314,5.3644,5.4564,5.5097,5.5504,5.5812,5.6161,5.5776,5.5519,5.5097,5.5299,5.5244,5.4987,5.4656,5.4197,5.3683,5.3277,5.3222,5.3185,5.3185,5.3185,5.3185,5.3185,5.3185,5.3185,5.3185,5.3185,5.3185,5.3185,5.3185,5.3185,5.3185,5.3185,5.3185,5.3185,5.3251,5.3251,5.3251,5.3272,5.3336,5.3461,5.3359,5.3274,5.3206,5.3206,5.3185,5.3185,5.3185,5.3259,5.3647,5.394,5.4197,5.4528,5.4711,5.4968,5.5133,5.5376,5.5464,5.5519,5.5776,5.5978,5.5941,5.5978,5.6326,5.6785,5.7152,5.7501,5.7611,5.7886,5.7905,5.7859,5.7766,5.7613,5.7191,5.6773,5.6703,5.6403,5.5948,5.5678,5.5552,5.5209,5.4684,5.4228,5.4001,5.4409,5.4781,5.5212,5.5644,5.6133,5.6747,5.7533,5.7837,5.5409,5.4454,5.473,5.4399,5.3625,5.3353,5.3369,5.3592,5.3314,5.3185,5.3185,5.3185,5.3185,5.3185,5.3185,5.3332,5.3647,5.3665,5.3683,5.3665,5.3592,5.3463,5.3203,5.3314,5.3607,5.4326,5.4803,5.5207,5.5669,5.6088,5.6308,5.6106,5.5868,5.5629,5.5596,5.5666,5.5188,5.462,5.4106,5.3757,5.3222,5.3185,5.3185,5.3185,5.3185,5.3185,5.3185,5.3185,5.3185,5.3185,5.3185,5.3185,5.3185,5.3185,5.3185,5.3185,5.3185,5.3185,5.3185,5.3185,5.3185,5.3185,5.3206,5.3203,5.3259,5.3222,5.3203,5.3185,5.3295,5.3405,5.3259,5.3665,5.4142,5.4436,5.484,5.528,5.5647,5.5886,5.5923,5.6014,5.6198,5.6345,5.6675,5.7024,5.6914,5.6859,5.7262,5.7588,5.7721,5.7844,5.7821,5.7708,5.7642,5.7205,5.7054,5.6927,5.6825,5.6394,5.5938,5.5641,5.5325,5.5042,5.4887,5.4623,5.473,5.4651,5.4686,5.4804,5.5077,5.5382,5.5979,5.6622,5.7248,5.7827,5.7891,5.5115,5.4473,5.4656,5.4289,5.3592,5.3295,5.335,5.35,5.3295,5.3185,5.3185,5.3185,5.3185,5.3185,5.3185,5.3185,5.3259,5.3259,5.3222,5.324,5.3259,5.3185,5.3185,5.3314,5.3589,5.4234,5.4509,5.4858,5.6014,5.5959,5.629,5.6455,5.629,5.6161,5.6345,5.6014,5.5647,5.5225,5.4509,5.4216,5.361,5.3295,5.3185,5.3185,5.3185,5.3185,5.3185,5.3185,5.3185,5.3185,5.3185,5.3185,5.3185,5.3185,5.3185,5.3185,5.3185,5.3185,5.3185,5.3185,5.3185,5.3185,5.3185,5.3335,5.35,5.3573,5.3757,5.4069,5.4014,5.3904,5.3885,5.4491,5.5023,5.5427,5.5702,5.6124,5.6492,5.6748,5.6657,5.662,5.6859,5.7134,5.7244,5.7496,5.7173,5.7146,5.7487,5.7549,5.734,5.7449,5.7492,5.7358,5.7173,5.6588,5.5986,5.6114,5.6186,5.5599,5.5214,5.5157,5.4852,5.4678,5.4849,5.5074,5.5213,5.5261,5.5412,5.5564,5.5513,5.5464,5.6293,5.7226,5.7429,5.7889,5.7887,5.506,5.4528,5.517,5.5042,5.4308,5.3555,5.3625,5.4106,5.3497,5.3185,5.3185,5.3185,5.3185,5.3185,5.3185,5.3185,5.3185,5.3185,5.3185,5.3185,5.3185,5.3185,5.3185,5.3295,5.3497,5.4197,5.4491,5.5133,5.6436,5.6326,5.6547,5.6693,5.6583,5.6859,5.7703,5.7152,5.6785,5.651,5.517,5.4711,5.4271,5.3757,5.3442,5.3387,5.3222,5.3203,5.3185,5.3185,5.3185,5.3185,5.3185,5.3185,5.3185,5.3185,5.3185,5.3185,5.3185,5.3185,5.3185,5.3203,5.3314,5.3369,5.3479,5.3702,5.4197,5.4436,5.4583,5.4895,5.5152,5.528,5.5449,5.5578,5.5959,5.6253,5.651,5.6859,5.7226,5.7391,5.7262,5.7189,5.7574,5.7923,5.7905,5.7831,5.7383,5.734,5.7671,5.7546,5.7141,5.6894,5.6902,5.6825,5.6588,5.6087,5.5592,5.5638,5.5495,5.4878,5.4707,5.4783,5.4865,5.4922,5.5145,5.553,5.5767,5.5902,5.6105,5.6308,5.6342,5.6478,5.7053,5.7749,5.7848,5.7881,5.7881,5.3849,5.3683,5.4473,5.495,5.5042,5.4326,5.4161,5.4234,5.361,5.3185,5.3185,5.3185,5.3185,5.3185,5.3185,5.3185,5.3185,5.3185,5.3185,5.3185,5.3185,5.3185,5.3185,5.3222,5.335,5.3702,5.4087,5.4528,5.5133,5.5702,5.5978,5.6051,5.6473,5.6932,5.7244,5.7226,5.7409,5.6859,5.6216,5.5776,5.517,5.4454,5.3995,5.3977,5.3573,5.3332,5.3277,5.3295,5.3277,5.3203,5.3185,5.3185,5.3185,5.3185,5.3185,5.3203,5.3203,5.3185,5.3369,5.3592,5.3995,5.4032,5.4051,5.4363,5.5042,5.517,5.539,5.5574,5.5816,5.5798,5.5578,5.6124,5.6547,5.6748,5.7042,5.7483,5.7813,5.7831,5.7776,5.774,5.796,5.7978,5.7978,5.7732,5.7333,5.6825,5.6953,5.7047,5.6747,5.6295,5.6087,5.6087,5.592,5.5495,5.5238,5.5234,5.5295,5.4989,5.4834,5.4907,5.5008,5.526,5.5733,5.6275,5.6427,5.6562,5.6816,5.7087,5.7357,5.7662,5.7814,5.7881,5.7881,5.7881,5.7881,5.3794,5.4124,5.4895,5.5519,5.5831,5.5152,5.4675,5.4344,5.383,5.3482,5.3316,5.346,5.3442,5.3277,5.3185,5.3185,5.3185,5.3185,5.3185,5.3185,5.3185,5.3185,5.3185,5.3203,5.3222,5.339,5.3665,5.4106,5.4564,5.495,5.5133,5.5372,5.5996,5.6253,5.6657,5.7134,5.7758,5.7262,5.6859,5.6455,5.5886,5.5335,5.4821,5.4693,5.4381,5.3995,5.3739,5.3573,5.3482,5.3295,5.3185,5.3185,5.3185,5.3203,5.3185,5.3203,5.3497,5.3552,5.383,5.4399,5.4876,5.528,5.5005,5.5225,5.5812,5.5996,5.6253,5.6381,5.633,5.6363,5.6492,5.7079,5.7134,5.7336,5.7483,5.7923,5.7978,5.7978,5.7978,5.7978,5.7978,5.7978,5.7867,5.7546,5.7191,5.6624,5.6104,5.6213,5.6248,5.5801,5.5396,5.5414,5.5312,5.4946,5.477,5.4797,5.4885,5.4991,5.5108,5.526,5.5716,5.6105,5.6562,5.6951,5.7087,5.7273,5.7594,5.7831,5.778,5.778,5.7848,5.7881,5.7881,5.7881,5.7881,5.4803,5.5611,5.6381,5.6583,5.6528,5.5666,5.5005,5.4363,5.4344,5.3922,5.3259,5.394,5.3794,5.3259,5.3185,5.3185,5.3185,5.3185,5.3295,5.3259,5.3259,5.3259,5.3277,5.3259,5.3203,5.3203,5.3479,5.4032,5.4381,5.4803,5.4785,5.4932,5.5739,5.6106,5.6638,5.7262,5.7868,5.7648,5.7336,5.7042,5.6693,5.6069,5.5702,5.5519,5.5299,5.4803,5.4473,5.4216,5.3812,5.35,5.3185,5.3185,5.3203,5.3222,5.3222,5.3515,5.4142,5.4344,5.4564,5.517,5.5794,5.6198,5.6069,5.6253,5.6547,5.6859,5.7042,5.7336,5.7446,5.7629,5.785,5.7831,5.7795,5.785,5.785,5.7978,5.7978,5.7978,5.7978,5.7978,5.7978,5.7932,5.7679,5.7376,5.6887,5.6184,5.5631,5.5396,5.5401,5.5196,5.489,5.4845,5.4714,5.4413,5.4432,5.4822,5.5264,5.5615,5.5767,5.5953,5.6444,5.6833,5.712,5.7425,5.7695,5.7881,5.7881,5.7881,5.7865,5.7881,5.7881,5.7881,5.7881,5.7881,5.7881,5.3683,5.3977,5.4766,5.5078,5.506,5.4858,5.4289,5.3665,5.4106,5.3959,5.3203,5.3442,5.35,5.3185,5.3185,5.3185,5.3185,5.3277,5.3647,5.3628,5.3369,5.3625,5.3644,5.346,5.3277,5.3369,5.3702,5.4014,5.4436,5.4785,5.5519,5.6161,5.6143,5.6583,5.7116,5.774,5.7886,5.7923,5.7666,5.7574,5.7391,5.6822,5.6565,5.6381,5.5996,5.5427,5.484,5.4601,5.4142,5.35,5.3277,5.3222,5.3185,5.3739,5.4197,5.4876,5.5192,5.5262,5.5372,5.5996,5.6583,5.695,5.7005,5.7373,5.7593,5.7629,5.7721,5.7886,5.7978,5.7978,5.7978,5.7978,5.7978,5.7978,5.7978,5.7978,5.7978,5.7978,5.7978,5.7978,5.7978,5.7708,5.7492,5.7065,5.6528,5.5775,5.5214,5.4994,5.4912,5.4814,5.4798,5.4766,5.4905,5.4838,5.5091,5.5466,5.5905,5.6275,5.6444,5.6681,5.712,5.7476,5.7662,5.7763,5.7848,5.7881,5.7881,5.7881,5.7881,5.7881,5.7881,5.7881,5.7881,5.7881,5.7881,5.3683,5.3794,5.4546,5.4711,5.4436,5.4418,5.394,5.3445,5.4051,5.3959,5.3316,5.3573,5.35,5.3203,5.3185,5.3185,5.3185,5.3203,5.3427,5.35,5.3424,5.3537,5.3573,5.3497,5.3259,5.3405,5.361,5.3757,5.4179,5.4711,5.539,5.5666,5.629,5.7042,5.7428,5.7703,5.7941,5.7978,5.796,5.7978,5.7776,5.7519,5.7373,5.7134,5.6638,5.6069,5.539,5.528,5.4876,5.4271,5.4161,5.4161,5.4197,5.4693,5.495,5.5541,5.5923,5.6014,5.6198,5.6822,5.7152,5.7373,5.7685,5.7831,5.7905,5.7886,5.7923,5.7978,5.7978,5.7978,5.7978,5.7978,5.7978,5.7978,5.7978,5.7978,5.7978,5.7978,5.7978,5.7978,5.7821,5.7546,5.7191,5.6747,5.629,5.5674,5.5283,5.5123,5.5162,5.5247,5.5247,5.523,5.5449,5.5632,5.5902,5.6173,5.6545,5.6917,5.7171,5.7442,5.7848,5.7865,5.7814,5.7831,5.7865,5.7881,5.7881,5.7881,5.7881,5.7881,5.7881,5.7881,5.7881,5.7881,5.7881,5.4271,5.4308,5.5097,5.484,5.4344,5.4252,5.3849,5.3335,5.394,5.3885,5.3427,5.3922,5.3794,5.3259,5.3185,5.3185,5.3185,5.3203,5.335,5.3259,5.3259,5.3408,5.3537,5.3261,5.3203,5.3185,5.3259,5.3442,5.3518,5.4124,5.4693,5.4564,5.6051,5.6987,5.7317,5.7758,5.7978,5.7978,5.7978,5.7978,5.7978,5.7941,5.7978,5.7923,5.774,5.7501,5.6914,5.6602,5.6436,5.5849,5.5522,5.5427,5.5611,5.5629,5.5721,5.6069,5.6638,5.6822,5.7005,5.7464,5.7721,5.7868,5.7978,5.7978,5.7978,5.7978,5.7978,5.7978,5.7978,5.7978,5.7978,5.7978,5.7978,5.7978,5.7978,5.7978,5.7978,5.7909,5.775,5.766,5.734,5.7047,5.6696,5.6229,5.5883,5.5447,5.5566,5.5467,5.5617,5.5835,5.5835,5.5852,5.6224,5.6511,5.6697,5.6968,5.7205,5.7526,5.7695,5.778,5.7865,5.7881,5.7881,5.7881,5.7881,5.7881,5.7881,5.7881,5.7881,5.7881,5.7881,5.7881,5.7881,5.7881,5.7881,5.35,5.35,5.3702,5.3647,5.35,5.3479,5.3408,5.3203,5.3369,5.3408,5.3259,5.339,5.3445,5.324,5.3185,5.3185,5.3185,5.3222,5.357,5.3592,5.3482,5.3442,5.3794,5.339,5.324,5.3185,5.3185,5.3203,5.3369,5.3977,5.4766,5.5335,5.64,5.6987,5.7556,5.7978,5.7978,5.7978,5.7978,5.7978,5.7978,5.7978,5.7978,5.7978,5.7905,5.7629,5.7134,5.684,5.6345,5.5739,5.5611,5.5886,5.6455,5.651,5.684,5.7299,5.7464,5.7538,5.7648,5.7813,5.7941,5.7978,5.7978,5.7978,5.7978,5.7978,5.7978,5.7978,5.7978,5.7978,5.7978,5.7978,5.7978,5.7978,5.7978,5.7978,5.7978,5.775,5.754,5.7166,5.6807,5.6537,5.6199,5.5842,5.5424,5.5616,5.6217,5.6462,5.6632,5.6799,5.6714,5.6782,5.7188,5.7459,5.7526,5.7492,5.7611,5.7679,5.7797,5.7848,5.7881,5.7881,5.7881,5.7881,5.7881,5.7881,5.7881,5.7881,5.7881,5.7881,5.7881,5.7881,5.7881,5.7881,5.7881,5.3185,5.3185,5.3185,5.3185,5.3185,5.3185,5.3185,5.3185,5.3185,5.3185,5.3185,5.3185,5.3185,5.3185,5.3185,5.3185,5.3185,5.3185,5.335,5.3518,5.3573,5.3479,5.346,5.3424,5.3277,5.3185,5.3185,5.3222,5.3332,5.4014,5.4803,5.5611,5.64,5.7171,5.7868,5.7978,5.7978,5.7978,5.7978,5.7978,5.7978,5.7978,5.7978,5.7978,5.7886,5.7648,5.7593,5.7336,5.7097,5.6785,5.6767,5.6877,5.7262,5.7336,5.7538,5.7776,5.7905,5.7978,5.7978,5.7978,5.7978,5.7978,5.7978,5.7978,5.7978,5.7978,5.7978,5.7978,5.7978,5.7978,5.7978,5.7978,5.7978,5.7978,5.7932,5.7886,5.7797,5.7655,5.7116,5.6403,5.6428,5.6837,5.6533,5.6318,5.5998,5.6116,5.6699,5.7053,5.7306,5.7442,5.7425,5.7476,5.7729,5.7848,5.7746,5.7729,5.7797,5.7865,5.7881,5.7881,5.7881,5.7881,5.7881,5.7881,5.7881,5.7881,5.7881,5.7881,5.7881,5.7881,5.7881,5.7881,5.7881,5.7881,5.7881,5.3185,5.3185,5.3185,5.3185,5.3185,5.3185,5.3185,5.3185,5.3185,5.3185,5.3185,5.3185,5.3185,5.3185,5.3185,5.3185,5.3185,5.3185,5.3259,5.3259,5.324,5.3295,5.3295,5.3203,5.3185,5.3185,5.3185,5.3203,5.324,5.4032,5.4821,5.5611,5.64,5.7207,5.7758,5.7978,5.7978,5.7978,5.7978,5.7978,5.7978,5.7978,5.7978,5.7978,5.7978,5.7978,5.7978,5.7978,5.796,5.7886,5.7703,5.774,5.7758,5.7813,5.785,5.7978,5.7978,5.7978,5.7978,5.7978,5.7978,5.7978,5.7978,5.7978,5.7978,5.7978,5.7978,5.7978,5.7978,5.7978,5.7978,5.7978,5.7978,5.789,5.7797,5.7745,5.7649,5.7455,5.6678,5.5925,5.6372,5.6857,5.6829,5.6614,5.6677,5.6792,5.7036,5.7374,5.7628,5.7662,5.7679,5.7679,5.7797,5.7865,5.7881,5.7881,5.7881,5.7881,5.7881,5.7881,5.7881,5.7881,5.7881,5.7881,5.7881,5.7881,5.7881,5.7881,5.7881,5.7881,5.7881,5.7881,5.7881,5.7881,5.7881,5.3185,5.3185,5.3185,5.3185,5.3185,5.3185,5.3185,5.3185,5.3185,5.3185,5.3185,5.3185,5.3185,5.3185,5.3185,5.3185,5.3185,5.3185,5.3185,5.3203,5.3185,5.3185,5.3185,5.3185,5.3185,5.3185,5.3185,5.3185,5.3314,5.4014,5.4803,5.5592,5.64,5.7171,5.7831,5.7978,5.7978,5.7978,5.7978,5.7978,5.7978,5.7978,5.7978,5.7978,5.7978,5.7978,5.7978,5.7978,5.7978,5.7978,5.7978,5.7978,5.7978,5.7978,5.7978,5.7978,5.7978,5.7978,5.7978,5.7978,5.7978,5.7978,5.7978,5.7978,5.7978,5.7978,5.7978,5.7978,5.7978,5.7978,5.7978,5.7978,5.7978,5.7708,5.7565,5.7547,5.751,5.7015,5.637,5.627,5.6545,5.6795,5.6831,5.6778,5.69,5.707,5.7391,5.7695,5.7763,5.7831,5.7881,5.7881,5.7881,5.7881,5.7881,5.7881,5.7881,5.7881,5.7881,5.7881,5.7881,5.7881,5.7881,5.7881,5.7881,5.7881,5.7881,5.7881,5.7881,5.7881,5.7881,5.7881,5.7881,5.7881,5.7881]}]]